﻿<?xml version="1.0" encoding="utf-8"?><gpx creator="Garmin Desktop App" version="1.1" xsi:schemaLocation="http://www.topografix.com/GPX/1/1 http://www.topografix.com/GPX/1/1/gpx.xsd http://www.garmin.com/xmlschemas/WaypointExtension/v1 http://www8.garmin.com/xmlschemas/WaypointExtensionv1.xsd http://www.garmin.com/xmlschemas/TrackPointExtension/v1 http://www.garmin.com/xmlschemas/TrackPointExtensionv1.xsd http://www.garmin.com/xmlschemas/GpxExtensions/v3 http://www8.garmin.com/xmlschemas/GpxExtensionsv3.xsd http://www.garmin.com/xmlschemas/ActivityExtension/v1 http://www8.garmin.com/xmlschemas/ActivityExtensionv1.xsd http://www.garmin.com/xmlschemas/AdventuresExtensions/v1 http://www8.garmin.com/xmlschemas/AdventuresExtensionv1.xsd http://www.garmin.com/xmlschemas/PressureExtension/v1 http://www.garmin.com/xmlschemas/PressureExtensionv1.xsd http://www.garmin.com/xmlschemas/TripExtensions/v1 http://www.garmin.com/xmlschemas/TripExtensionsv1.xsd http://www.garmin.com/xmlschemas/TripMetaDataExtensions/v1 http://www.garmin.com/xmlschemas/TripMetaDataExtensionsv1.xsd http://www.garmin.com/xmlschemas/ViaPointTransportationModeExtensions/v1 http://www.garmin.com/xmlschemas/ViaPointTransportationModeExtensionsv1.xsd http://www.garmin.com/xmlschemas/CreationTimeExtension/v1 http://www.garmin.com/xmlschemas/CreationTimeExtensionsv1.xsd http://www.garmin.com/xmlschemas/AccelerationExtension/v1 http://www.garmin.com/xmlschemas/AccelerationExtensionv1.xsd http://www.garmin.com/xmlschemas/PowerExtension/v1 http://www.garmin.com/xmlschemas/PowerExtensionv1.xsd http://www.garmin.com/xmlschemas/VideoExtension/v1 http://www.garmin.com/xmlschemas/VideoExtensionv1.xsd" xmlns="http://www.topografix.com/GPX/1/1" xmlns:xsi="http://www.w3.org/2001/XMLSchema-instance" xmlns:wptx1="http://www.garmin.com/xmlschemas/WaypointExtension/v1" xmlns:gpxtrx="http://www.garmin.com/xmlschemas/GpxExtensions/v3" xmlns:gpxtpx="http://www.garmin.com/xmlschemas/TrackPointExtension/v1" xmlns:gpxx="http://www.garmin.com/xmlschemas/GpxExtensions/v3" xmlns:trp="http://www.garmin.com/xmlschemas/TripExtensions/v1" xmlns:adv="http://www.garmin.com/xmlschemas/AdventuresExtensions/v1" xmlns:prs="http://www.garmin.com/xmlschemas/PressureExtension/v1" xmlns:tmd="http://www.garmin.com/xmlschemas/TripMetaDataExtensions/v1" xmlns:vptm="http://www.garmin.com/xmlschemas/ViaPointTransportationModeExtensions/v1" xmlns:ctx="http://www.garmin.com/xmlschemas/CreationTimeExtension/v1" xmlns:gpxacc="http://www.garmin.com/xmlschemas/AccelerationExtension/v1" xmlns:gpxpx="http://www.garmin.com/xmlschemas/PowerExtension/v1" xmlns:vidx1="http://www.garmin.com/xmlschemas/VideoExtension/v1">

  <metadata>
    <link href="http://www.garmin.com">
      <text>Garmin International</text>
    </link>
    <time>2020-01-31T09:48:12Z</time>
    <bounds maxlat="50.473561221733689" maxlon="5.299795316532254" minlat="50.433183833956718" minlon="5.207910044118762" />
  </metadata>

  <trk>
    <name>marchin malle post modave 25 km gereden</name>
    <extensions>
      <gpxx:TrackExtension>
        <gpxx:DisplayColor>Red</gpxx:DisplayColor>
      </gpxx:TrackExtension>
    </extensions>
    <trkseg>
      <trkpt lat="50.47218332067132" lon="5.208363505080342">
        <ele>194.50999999999999</ele>
        <time>2019-07-02T07:46:03Z</time>
      </trkpt>
      <trkpt lat="50.472131604328752" lon="5.208277506753802">
        <ele>194.78999999999999</ele>
        <time>2019-07-02T07:46:10Z</time>
      </trkpt>
      <trkpt lat="50.472003193572164" lon="5.208007358014584">
        <ele>194.63999999999999</ele>
        <time>2019-07-02T07:46:28Z</time>
      </trkpt>
      <trkpt lat="50.471968241035938" lon="5.208053374662995">
        <ele>194.88</ele>
        <time>2019-07-02T07:46:34Z</time>
      </trkpt>
      <trkpt lat="50.471858102828264" lon="5.208248170092702">
        <ele>194.65000000000001</ele>
        <time>2019-07-02T07:46:49Z</time>
      </trkpt>
      <trkpt lat="50.471709491685033" lon="5.208438942208886">
        <ele>195.18000000000001</ele>
        <time>2019-07-02T07:47:03Z</time>
      </trkpt>
      <trkpt lat="50.471542607992887" lon="5.208585038781166">
        <ele>194.90000000000001</ele>
        <time>2019-07-02T07:47:18Z</time>
      </trkpt>
      <trkpt lat="50.471334736794233" lon="5.20878117531538">
        <ele>195.31999999999999</ele>
        <time>2019-07-02T07:47:30Z</time>
      </trkpt>
      <trkpt lat="50.471094595268369" lon="5.209021400660276">
        <ele>196</ele>
        <time>2019-07-02T07:47:48Z</time>
      </trkpt>
      <trkpt lat="50.470873564481735" lon="5.209233378991485">
        <ele>196.55000000000001</ele>
        <time>2019-07-02T07:48:04Z</time>
      </trkpt>
      <trkpt lat="50.470673320814967" lon="5.209407722577453">
        <ele>197.13999999999999</ele>
        <time>2019-07-02T07:48:21Z</time>
      </trkpt>
      <trkpt lat="50.470495959743857" lon="5.209581898525357">
        <ele>197.69</ele>
        <time>2019-07-02T07:48:37Z</time>
      </trkpt>
      <trkpt lat="50.470427311956882" lon="5.209643924608827">
        <ele>197.93000000000001</ele>
        <time>2019-07-02T07:48:44Z</time>
      </trkpt>
      <trkpt lat="50.470414822921157" lon="5.209648869931698">
        <ele>197.96000000000001</ele>
        <time>2019-07-02T07:48:45Z</time>
      </trkpt>
      <trkpt lat="50.47023905441165" lon="5.20979655906558">
        <ele>198.53</ele>
        <time>2019-07-02T07:49:01Z</time>
      </trkpt>
      <trkpt lat="50.470112822949886" lon="5.209885323420167">
        <ele>198.97</ele>
        <time>2019-07-02T07:49:14Z</time>
      </trkpt>
      <trkpt lat="50.470098992809653" lon="5.209934609010816">
        <ele>199.06999999999999</ele>
        <time>2019-07-02T07:49:17Z</time>
      </trkpt>
      <trkpt lat="50.470101507380605" lon="5.209955312311649">
        <ele>199.09999999999999</ele>
        <time>2019-07-02T07:49:18Z</time>
      </trkpt>
      <trkpt lat="50.470119696110487" lon="5.210119178518653">
        <ele>199.38</ele>
        <time>2019-07-02T07:49:26Z</time>
      </trkpt>
      <trkpt lat="50.470119696110487" lon="5.210139211267233">
        <ele>199.41999999999999</ele>
        <time>2019-07-02T07:49:27Z</time>
      </trkpt>
      <trkpt lat="50.470124809071422" lon="5.210158489644527">
        <ele>199.44999999999999</ele>
        <time>2019-07-02T07:49:28Z</time>
      </trkpt>
      <trkpt lat="50.470131514593959" lon="5.210175588726997">
        <ele>199.47999999999999</ele>
        <time>2019-07-02T07:49:29Z</time>
      </trkpt>
      <trkpt lat="50.470137884840369" lon="5.210191933438182">
        <ele>199.52000000000001</ele>
        <time>2019-07-02T07:49:30Z</time>
      </trkpt>
      <trkpt lat="50.470143668353558" lon="5.210210289806128">
        <ele>199.55000000000001</ele>
        <time>2019-07-02T07:49:31Z</time>
      </trkpt>
      <trkpt lat="50.470201587304473" lon="5.21048991009593">
        <ele>199.94</ele>
        <time>2019-07-02T07:49:44Z</time>
      </trkpt>
      <trkpt lat="50.470222374424338" lon="5.2108143735677">
        <ele>199.56</ele>
        <time>2019-07-02T07:49:59Z</time>
      </trkpt>
      <trkpt lat="50.470289848744869" lon="5.211199354380369">
        <ele>200.13</ele>
        <time>2019-07-02T07:50:17Z</time>
      </trkpt>
      <trkpt lat="50.470318514853716" lon="5.211419127881527">
        <ele>200.33000000000001</ele>
        <time>2019-07-02T07:50:23Z</time>
      </trkpt>
      <trkpt lat="50.470324466004968" lon="5.211443100124598">
        <ele>200.36000000000001</ele>
        <time>2019-07-02T07:50:24Z</time>
      </trkpt>
      <trkpt lat="50.470327064394951" lon="5.211463551968336">
        <ele>200.38999999999999</ele>
        <time>2019-07-02T07:50:25Z</time>
      </trkpt>
      <trkpt lat="50.470329076051712" lon="5.211483333259821">
        <ele>200.41999999999999</ele>
        <time>2019-07-02T07:50:26Z</time>
      </trkpt>
      <trkpt lat="50.470333015546203" lon="5.211501605808735">
        <ele>200.46000000000001</ele>
        <time>2019-07-02T07:50:27Z</time>
      </trkpt>
      <trkpt lat="50.47040811739862" lon="5.211911983788014">
        <ele>200.27000000000001</ele>
        <time>2019-07-02T07:50:46Z</time>
      </trkpt>
      <trkpt lat="50.470468299463391" lon="5.2122304122895">
        <ele>199.80000000000001</ele>
        <time>2019-07-02T07:50:58Z</time>
      </trkpt>
      <trkpt lat="50.470565110445023" lon="5.212558060884476">
        <ele>200.31</ele>
        <time>2019-07-02T07:51:13Z</time>
      </trkpt>
      <trkpt lat="50.470666447654366" lon="5.212895181030035">
        <ele>200.81999999999999</ele>
        <time>2019-07-02T07:51:30Z</time>
      </trkpt>
      <trkpt lat="50.470688408240676" lon="5.213241521269083">
        <ele>199.75</ele>
        <time>2019-07-02T07:51:48Z</time>
      </trkpt>
      <trkpt lat="50.470554465427995" lon="5.213413601741195">
        <ele>194.97999999999999</ele>
        <time>2019-07-02T07:52:01Z</time>
      </trkpt>
      <trkpt lat="50.470547089353204" lon="5.213424582034349">
        <ele>200.66999999999999</ele>
        <time>2019-07-02T07:52:02Z</time>
      </trkpt>
      <trkpt lat="50.47054105438292" lon="5.213435478508472">
        <ele>196.37</ele>
        <time>2019-07-02T07:52:03Z</time>
      </trkpt>
      <trkpt lat="50.47049755230546" lon="5.213501108810306">
        <ele>199.37</ele>
        <time>2019-07-02T07:52:08Z</time>
      </trkpt>
      <trkpt lat="50.470498725771904" lon="5.213751392439008">
        <ele>197.28</ele>
        <time>2019-07-02T07:52:19Z</time>
      </trkpt>
      <trkpt lat="50.470591178163886" lon="5.214044256135821">
        <ele>197.03</ele>
        <time>2019-07-02T07:52:32Z</time>
      </trkpt>
      <trkpt lat="50.47071548178792" lon="5.214384058490396">
        <ele>197.63</ele>
        <time>2019-07-02T07:52:49Z</time>
      </trkpt>
      <trkpt lat="50.470847999677062" lon="5.214696787297726">
        <ele>197.44999999999999</ele>
        <time>2019-07-02T07:53:06Z</time>
      </trkpt>
      <trkpt lat="50.470966938883066" lon="5.215004151687026">
        <ele>198</ele>
        <time>2019-07-02T07:53:22Z</time>
      </trkpt>
      <trkpt lat="50.471026953309774" lon="5.215115128085017">
        <ele>197.86000000000001</ele>
        <time>2019-07-02T07:53:40Z</time>
      </trkpt>
      <trkpt lat="50.471060061827302" lon="5.215171873569489">
        <ele>198.75</ele>
        <time>2019-07-02T07:54:07Z</time>
      </trkpt>
      <trkpt lat="50.47119383700192" lon="5.21549005061388">
        <ele>199.28999999999999</ele>
        <time>2019-07-02T07:54:24Z</time>
      </trkpt>
      <trkpt lat="50.471345968544483" lon="5.21586581133306">
        <ele>199.09</ele>
        <time>2019-07-02T07:54:45Z</time>
      </trkpt>
      <trkpt lat="50.471481336280704" lon="5.216208714991808">
        <ele>199.68000000000001</ele>
        <time>2019-07-02T07:55:04Z</time>
      </trkpt>
      <trkpt lat="50.471612261608243" lon="5.216541811823845">
        <ele>200.30000000000001</ele>
        <time>2019-07-02T07:55:23Z</time>
      </trkpt>
      <trkpt lat="50.471718795597553" lon="5.216827718541026">
        <ele>200.78999999999999</ele>
        <time>2019-07-02T07:55:39Z</time>
      </trkpt>
      <trkpt lat="50.471892552450299" lon="5.217237258329988">
        <ele>201.28999999999999</ele>
        <time>2019-07-02T07:55:56Z</time>
      </trkpt>
      <trkpt lat="50.472022136673331" lon="5.217673955485225">
        <ele>200.13</ele>
        <time>2019-07-02T07:56:10Z</time>
      </trkpt>
      <trkpt lat="50.472115259617567" lon="5.217965142801404">
        <ele>201.33000000000001</ele>
        <time>2019-07-02T07:56:24Z</time>
      </trkpt>
      <trkpt lat="50.472137806937099" lon="5.218023899942637">
        <ele>199</ele>
        <time>2019-07-02T07:56:27Z</time>
      </trkpt>
      <trkpt lat="50.472234701737761" lon="5.21832162514329">
        <ele>199.38</ele>
        <time>2019-07-02T07:56:42Z</time>
      </trkpt>
      <trkpt lat="50.472349282354116" lon="5.218636449426413">
        <ele>199.88</ele>
        <time>2019-07-02T07:56:59Z</time>
      </trkpt>
      <trkpt lat="50.472459169104695" lon="5.218948340043426">
        <ele>200.34999999999999</ele>
        <time>2019-07-02T07:57:15Z</time>
      </trkpt>
      <trkpt lat="50.472483979538083" lon="5.219028135761619">
        <ele>200.47999999999999</ele>
        <time>2019-07-02T07:57:19Z</time>
      </trkpt>
      <trkpt lat="50.472486494109035" lon="5.219049593433738">
        <ele>200.50999999999999</ele>
        <time>2019-07-02T07:57:20Z</time>
      </trkpt>
      <trkpt lat="50.472492445260286" lon="5.219069626182318">
        <ele>200.53999999999999</ele>
        <time>2019-07-02T07:57:21Z</time>
      </trkpt>
      <trkpt lat="50.472616329789162" lon="5.219431221485138">
        <ele>201.09</ele>
        <time>2019-07-02T07:57:40Z</time>
      </trkpt>
      <trkpt lat="50.472728982567787" lon="5.21970933303237">
        <ele>201.52000000000001</ele>
        <time>2019-07-02T07:57:55Z</time>
      </trkpt>
      <trkpt lat="50.472867703065276" lon="5.219940589740872">
        <ele>201.94</ele>
        <time>2019-07-02T07:58:10Z</time>
      </trkpt>
      <trkpt lat="50.473041208460927" lon="5.220091715455055">
        <ele>202.37</ele>
        <time>2019-07-02T07:58:25Z</time>
      </trkpt>
      <trkpt lat="50.473149083554745" lon="5.22030545398593">
        <ele>202.69999999999999</ele>
        <time>2019-07-02T07:58:37Z</time>
      </trkpt>
      <trkpt lat="50.473321415483952" lon="5.220666797831655">
        <ele>202.34</ele>
        <time>2019-07-02T07:58:53Z</time>
      </trkpt>
      <trkpt lat="50.473467512056231" lon="5.220919512212277">
        <ele>202.69999999999999</ele>
        <time>2019-07-02T07:59:06Z</time>
      </trkpt>
      <trkpt lat="50.473561221733689" lon="5.221090083941817">
        <ele>202.21000000000001</ele>
        <time>2019-07-02T07:59:19Z</time>
      </trkpt>
      <trkpt lat="50.473507242277265" lon="5.221116738393903">
        <ele>201.62</ele>
        <time>2019-07-02T07:59:26Z</time>
      </trkpt>
      <trkpt lat="50.473494920879602" lon="5.221114810556173">
        <ele>201.65000000000001</ele>
        <time>2019-07-02T07:59:27Z</time>
      </trkpt>
      <trkpt lat="50.473480755463243" lon="5.221113720908761">
        <ele>201.68000000000001</ele>
        <time>2019-07-02T07:59:28Z</time>
      </trkpt>
      <trkpt lat="50.473468014970422" lon="5.221110116690397">
        <ele>201.69999999999999</ele>
        <time>2019-07-02T07:59:29Z</time>
      </trkpt>
      <trkpt lat="50.473454855382442" lon="5.221106763929129">
        <ele>201.72</ele>
        <time>2019-07-02T07:59:30Z</time>
      </trkpt>
      <trkpt lat="50.473442114889622" lon="5.221105255186558">
        <ele>201.74000000000001</ele>
        <time>2019-07-02T07:59:31Z</time>
      </trkpt>
      <trkpt lat="50.473428117111325" lon="5.22110584191978">
        <ele>200.99000000000001</ele>
        <time>2019-07-02T07:59:32Z</time>
      </trkpt>
      <trkpt lat="50.473199794068933" lon="5.221082791686058">
        <ele>199.72999999999999</ele>
        <time>2019-07-02T07:59:48Z</time>
      </trkpt>
      <trkpt lat="50.47294850461185" lon="5.221043732017279">
        <ele>199.34</ele>
        <time>2019-07-02T08:00:05Z</time>
      </trkpt>
      <trkpt lat="50.472747255116701" lon="5.2210340090096">
        <ele>198.08000000000001</ele>
        <time>2019-07-02T08:00:19Z</time>
      </trkpt>
      <trkpt lat="50.472517088055611" lon="5.221053622663021">
        <ele>196.75</ele>
        <time>2019-07-02T08:00:35Z</time>
      </trkpt>
      <trkpt lat="50.472302846610546" lon="5.221065441146493">
        <ele>195.36000000000001</ele>
        <time>2019-07-02T08:00:51Z</time>
      </trkpt>
      <trkpt lat="50.472113080322742" lon="5.221054712310433">
        <ele>194.16999999999999</ele>
        <time>2019-07-02T08:01:06Z</time>
      </trkpt>
      <trkpt lat="50.471900347620249" lon="5.221024118363857">
        <ele>192.00999999999999</ele>
        <time>2019-07-02T08:01:21Z</time>
      </trkpt>
      <trkpt lat="50.471872603520751" lon="5.221009701490402">
        <ele>192.03999999999999</ele>
        <time>2019-07-02T08:01:23Z</time>
      </trkpt>
      <trkpt lat="50.471857683733106" lon="5.220998553559184">
        <ele>191.27000000000001</ele>
        <time>2019-07-02T08:01:24Z</time>
      </trkpt>
      <trkpt lat="50.471840668469667" lon="5.220990087836981">
        <ele>191.28</ele>
        <time>2019-07-02T08:01:25Z</time>
      </trkpt>
      <trkpt lat="50.471826419234276" lon="5.220976090058684">
        <ele>191.31999999999999</ele>
        <time>2019-07-02T08:01:26Z</time>
      </trkpt>
      <trkpt lat="50.471813511103392" lon="5.22096217609942">
        <ele>191.34</ele>
        <time>2019-07-02T08:01:27Z</time>
      </trkpt>
      <trkpt lat="50.471797417849302" lon="5.220954548567534">
        <ele>191.36000000000001</ele>
        <time>2019-07-02T08:01:28Z</time>
      </trkpt>
      <trkpt lat="50.47178115695715" lon="5.220947675406933">
        <ele>191.38999999999999</ele>
        <time>2019-07-02T08:01:29Z</time>
      </trkpt>
      <trkpt lat="50.471743773669004" lon="5.220932001248002">
        <ele>190.61000000000001</ele>
        <time>2019-07-02T08:01:32Z</time>
      </trkpt>
      <trkpt lat="50.471731284633279" lon="5.220928816124797">
        <ele>190.59</ele>
        <time>2019-07-02T08:01:33Z</time>
      </trkpt>
      <trkpt lat="50.471660122275352" lon="5.220924876630306">
        <ele>189.94</ele>
        <time>2019-07-02T08:01:39Z</time>
      </trkpt>
      <trkpt lat="50.471450658515096" lon="5.220982041209936">
        <ele>187.88</ele>
        <time>2019-07-02T08:01:52Z</time>
      </trkpt>
      <trkpt lat="50.471325013786554" lon="5.221044234931469">
        <ele>186.41999999999999</ele>
        <time>2019-07-02T08:02:02Z</time>
      </trkpt>
      <trkpt lat="50.471304729580879" lon="5.221051024273038">
        <ele>186.46000000000001</ele>
        <time>2019-07-02T08:02:04Z</time>
      </trkpt>
      <trkpt lat="50.471287379041314" lon="5.221052952110767">
        <ele>186.49000000000001</ele>
        <time>2019-07-02T08:02:05Z</time>
      </trkpt>
      <trkpt lat="50.471269357949495" lon="5.221057897433639">
        <ele>185.59</ele>
        <time>2019-07-02T08:02:06Z</time>
      </trkpt>
      <trkpt lat="50.471251672133803" lon="5.221065022051334">
        <ele>185.59999999999999</ele>
        <time>2019-07-02T08:02:07Z</time>
      </trkpt>
      <trkpt lat="50.471238093450665" lon="5.22107407450676">
        <ele>185.63999999999999</ele>
        <time>2019-07-02T08:02:08Z</time>
      </trkpt>
      <trkpt lat="50.47107120975852" lon="5.221226289868355">
        <ele>185.12</ele>
        <time>2019-07-02T08:02:20Z</time>
      </trkpt>
      <trkpt lat="50.470919413492084" lon="5.221328800544143">
        <ele>184.59999999999999</ele>
        <time>2019-07-02T08:02:32Z</time>
      </trkpt>
      <trkpt lat="50.470747165381908" lon="5.221488391980529">
        <ele>183.19999999999999</ele>
        <time>2019-07-02T08:02:48Z</time>
      </trkpt>
      <trkpt lat="50.470546586439013" lon="5.221680337563157">
        <ele>181.06999999999999</ele>
        <time>2019-07-02T08:03:06Z</time>
      </trkpt>
      <trkpt lat="50.470530996099114" lon="5.221688216552138">
        <ele>181.08000000000001</ele>
        <time>2019-07-02T08:03:07Z</time>
      </trkpt>
      <trkpt lat="50.470403339713812" lon="5.221795924007893">
        <ele>179.84999999999999</ele>
        <time>2019-07-02T08:03:25Z</time>
      </trkpt>
      <trkpt lat="50.470151379704475" lon="5.221876557916403">
        <ele>178.58000000000001</ele>
        <time>2019-07-02T08:03:43Z</time>
      </trkpt>
      <trkpt lat="50.469930935651064" lon="5.222035143524408">
        <ele>178.03</ele>
        <time>2019-07-02T08:03:57Z</time>
      </trkpt>
      <trkpt lat="50.469746198505163" lon="5.222223568707705">
        <ele>174.59</ele>
        <time>2019-07-02T08:04:12Z</time>
      </trkpt>
      <trkpt lat="50.469734547659755" lon="5.22224142216146">
        <ele>177.87</ele>
        <time>2019-07-02T08:04:13Z</time>
      </trkpt>
      <trkpt lat="50.469721639528871" lon="5.222252402454615">
        <ele>177.90000000000001</ele>
        <time>2019-07-02T08:04:14Z</time>
      </trkpt>
      <trkpt lat="50.469690877944231" lon="5.222291965037584">
        <ele>175.47999999999999</ele>
        <time>2019-07-02T08:04:18Z</time>
      </trkpt>
      <trkpt lat="50.469545619562268" lon="5.222507212311029">
        <ele>173.91</ele>
        <time>2019-07-02T08:04:32Z</time>
      </trkpt>
      <trkpt lat="50.469530783593655" lon="5.222519533708692">
        <ele>173.91999999999999</ele>
        <time>2019-07-02T08:04:33Z</time>
      </trkpt>
      <trkpt lat="50.469517288729548" lon="5.222542751580477">
        <ele>173.96000000000001</ele>
        <time>2019-07-02T08:04:34Z</time>
      </trkpt>
      <trkpt lat="50.469417795538902" lon="5.2226831484586">
        <ele>173.37</ele>
        <time>2019-07-02T08:04:45Z</time>
      </trkpt>
      <trkpt lat="50.469401953741908" lon="5.222688093781471">
        <ele>173.38999999999999</ele>
        <time>2019-07-02T08:04:46Z</time>
      </trkpt>
      <trkpt lat="50.469382675364614" lon="5.222687171772122">
        <ele>173.41</ele>
        <time>2019-07-02T08:04:47Z</time>
      </trkpt>
      <trkpt lat="50.469358954578638" lon="5.222683316096664">
        <ele>173.43000000000001</ele>
        <time>2019-07-02T08:04:48Z</time>
      </trkpt>
      <trkpt lat="50.469341184943914" lon="5.222681304439902">
        <ele>173.31999999999999</ele>
        <time>2019-07-02T08:04:49Z</time>
      </trkpt>
      <trkpt lat="50.469322744756937" lon="5.222684992477298">
        <ele>173.40000000000001</ele>
        <time>2019-07-02T08:04:50Z</time>
      </trkpt>
      <trkpt lat="50.469279075041413" lon="5.222682226449251">
        <ele>173.47999999999999</ele>
        <time>2019-07-02T08:04:53Z</time>
      </trkpt>
      <trkpt lat="50.469267256557941" lon="5.222674179822207">
        <ele>173.5</ele>
        <time>2019-07-02T08:04:54Z</time>
      </trkpt>
      <trkpt lat="50.469186371192336" lon="5.222745761275291">
        <ele>172.97999999999999</ele>
        <time>2019-07-02T08:05:04Z</time>
      </trkpt>
      <trkpt lat="50.468966010957956" lon="5.223018676042557">
        <ele>173.28</ele>
        <time>2019-07-02T08:05:20Z</time>
      </trkpt>
      <trkpt lat="50.468765934929252" lon="5.223240796476603">
        <ele>173.63</ele>
        <time>2019-07-02T08:05:37Z</time>
      </trkpt>
      <trkpt lat="50.468600643798709" lon="5.223419163376093">
        <ele>173.96000000000001</ele>
        <time>2019-07-02T08:05:53Z</time>
      </trkpt>
      <trkpt lat="50.468469886109233" lon="5.223563332110643">
        <ele>174.22999999999999</ele>
        <time>2019-07-02T08:06:06Z</time>
      </trkpt>
      <trkpt lat="50.468446919694543" lon="5.223598619922996">
        <ele>174.28</ele>
        <time>2019-07-02T08:06:09Z</time>
      </trkpt>
      <trkpt lat="50.468434514477849" lon="5.223608007654548">
        <ele>174.30000000000001</ele>
        <time>2019-07-02T08:06:10Z</time>
      </trkpt>
      <trkpt lat="50.468319179490209" lon="5.223716637119651">
        <ele>174.55000000000001</ele>
        <time>2019-07-02T08:06:22Z</time>
      </trkpt>
      <trkpt lat="50.468310378491879" lon="5.223717642948031">
        <ele>174.56999999999999</ele>
        <time>2019-07-02T08:06:23Z</time>
      </trkpt>
      <trkpt lat="50.468299733474851" lon="5.223721330985427">
        <ele>174.59</ele>
        <time>2019-07-02T08:06:24Z</time>
      </trkpt>
      <trkpt lat="50.468239635229111" lon="5.223823338747025">
        <ele>174.86000000000001</ele>
        <time>2019-07-02T08:06:37Z</time>
      </trkpt>
      <trkpt lat="50.468239719048142" lon="5.2238436229527">
        <ele>174.88999999999999</ele>
        <time>2019-07-02T08:06:38Z</time>
      </trkpt>
      <trkpt lat="50.46823862940073" lon="5.223861979320645">
        <ele>177.18000000000001</ele>
        <time>2019-07-02T08:06:39Z</time>
      </trkpt>
      <trkpt lat="50.468237958848476" lon="5.223881006240845">
        <ele>177.19999999999999</ele>
        <time>2019-07-02T08:06:40Z</time>
      </trkpt>
      <trkpt lat="50.468239383772016" lon="5.223901206627488">
        <ele>177.21000000000001</ele>
        <time>2019-07-02T08:06:41Z</time>
      </trkpt>
      <trkpt lat="50.468241395428777" lon="5.223923167213798">
        <ele>177.22999999999999</ele>
        <time>2019-07-02T08:06:42Z</time>
      </trkpt>
      <trkpt lat="50.468240305781364" lon="5.223945379257202">
        <ele>177.25</ele>
        <time>2019-07-02T08:06:43Z</time>
      </trkpt>
      <trkpt lat="50.468240221962333" lon="5.223967339843512">
        <ele>177.27000000000001</ele>
        <time>2019-07-02T08:06:44Z</time>
      </trkpt>
      <trkpt lat="50.468245083466172" lon="5.223990306258202">
        <ele>177.28999999999999</ele>
        <time>2019-07-02T08:06:45Z</time>
      </trkpt>
      <trkpt lat="50.468244161456823" lon="5.224015200510621">
        <ele>177.31999999999999</ele>
        <time>2019-07-02T08:06:46Z</time>
      </trkpt>
      <trkpt lat="50.46824449673295" lon="5.22403858602047">
        <ele>177.33000000000001</ele>
        <time>2019-07-02T08:06:47Z</time>
      </trkpt>
      <trkpt lat="50.468245754018426" lon="5.224059959873557">
        <ele>177.36000000000001</ele>
        <time>2019-07-02T08:06:48Z</time>
      </trkpt>
      <trkpt lat="50.468247598037124" lon="5.224080076441169">
        <ele>177.37</ele>
        <time>2019-07-02T08:06:49Z</time>
      </trkpt>
      <trkpt lat="50.468278611078858" lon="5.224352488294244">
        <ele>179.00999999999999</ele>
        <time>2019-07-02T08:07:02Z</time>
      </trkpt>
      <trkpt lat="50.468280538916588" lon="5.224371515214443">
        <ele>179.03</ele>
        <time>2019-07-02T08:07:03Z</time>
      </trkpt>
      <trkpt lat="50.468360837548971" lon="5.22456144914031">
        <ele>179.22</ele>
        <time>2019-07-02T08:07:14Z</time>
      </trkpt>
      <trkpt lat="50.468366369605064" lon="5.224581146612763">
        <ele>179.24000000000001</ele>
        <time>2019-07-02T08:07:15Z</time>
      </trkpt>
      <trkpt lat="50.468369638547301" lon="5.224601682275534">
        <ele>179.25999999999999</ele>
        <time>2019-07-02T08:07:16Z</time>
      </trkpt>
      <trkpt lat="50.468374164775014" lon="5.224623139947653">
        <ele>179.28</ele>
        <time>2019-07-02T08:07:17Z</time>
      </trkpt>
      <trkpt lat="50.468378020450473" lon="5.22464451380074">
        <ele>179.30000000000001</ele>
        <time>2019-07-02T08:07:18Z</time>
      </trkpt>
      <trkpt lat="50.468380199745297" lon="5.224665720015764">
        <ele>179.31999999999999</ele>
        <time>2019-07-02T08:07:19Z</time>
      </trkpt>
      <trkpt lat="50.468383301049471" lon="5.224686758592725">
        <ele>179.34</ele>
        <time>2019-07-02T08:07:20Z</time>
      </trkpt>
      <trkpt lat="50.46838665381074" lon="5.224708886817098">
        <ele>179.36000000000001</ele>
        <time>2019-07-02T08:07:21Z</time>
      </trkpt>
      <trkpt lat="50.468390174210072" lon="5.224731350317597">
        <ele>179.38</ele>
        <time>2019-07-02T08:07:22Z</time>
      </trkpt>
      <trkpt lat="50.468500731512904" lon="5.22507643327117">
        <ele>179.72</ele>
        <time>2019-07-02T08:07:39Z</time>
      </trkpt>
      <trkpt lat="50.468623358756304" lon="5.225415648892522">
        <ele>180.03999999999999</ele>
        <time>2019-07-02T08:07:55Z</time>
      </trkpt>
      <trkpt lat="50.468740034848452" lon="5.225720833986998">
        <ele>180.37</ele>
        <time>2019-07-02T08:08:10Z</time>
      </trkpt>
      <trkpt lat="50.468863165006042" lon="5.226024175062776">
        <ele>180.63999999999999</ele>
        <time>2019-07-02T08:08:25Z</time>
      </trkpt>
      <trkpt lat="50.46896961517632" lon="5.226416615769267">
        <ele>181.00999999999999</ele>
        <time>2019-07-02T08:08:43Z</time>
      </trkpt>
      <trkpt lat="50.469040106981993" lon="5.226804194971919">
        <ele>181.38999999999999</ele>
        <time>2019-07-02T08:09:01Z</time>
      </trkpt>
      <trkpt lat="50.469058798626065" lon="5.227262517437339">
        <ele>183.62</ele>
        <time>2019-07-02T08:09:21Z</time>
      </trkpt>
      <trkpt lat="50.469092158600688" lon="5.227643894031644">
        <ele>183.96000000000001</ele>
        <time>2019-07-02T08:09:38Z</time>
      </trkpt>
      <trkpt lat="50.469229789450765" lon="5.227897530421615">
        <ele>184.25999999999999</ele>
        <time>2019-07-02T08:09:53Z</time>
      </trkpt>
      <trkpt lat="50.469332886859775" lon="5.228071790188551">
        <ele>180.5</ele>
        <time>2019-07-02T08:10:03Z</time>
      </trkpt>
      <trkpt lat="50.46933900564909" lon="5.228087799623609">
        <ele>184.44</ele>
        <time>2019-07-02T08:10:04Z</time>
      </trkpt>
      <trkpt lat="50.469356775283813" lon="5.228128200396895">
        <ele>182.13999999999999</ele>
        <time>2019-07-02T08:10:07Z</time>
      </trkpt>
      <trkpt lat="50.469449143856764" lon="5.22841477766633">
        <ele>182.38999999999999</ele>
        <time>2019-07-02T08:10:21Z</time>
      </trkpt>
      <trkpt lat="50.469491807743907" lon="5.228513767942786">
        <ele>182.47</ele>
        <time>2019-07-02T08:10:26Z</time>
      </trkpt>
      <trkpt lat="50.469495998695493" lon="5.228534387424588">
        <ele>182.49000000000001</ele>
        <time>2019-07-02T08:10:27Z</time>
      </trkpt>
      <trkpt lat="50.469500357285142" lon="5.228554839268327">
        <ele>182.50999999999999</ele>
        <time>2019-07-02T08:10:28Z</time>
      </trkpt>
      <trkpt lat="50.469578728079796" lon="5.228900425136089">
        <ele>182.74000000000001</ele>
        <time>2019-07-02T08:10:43Z</time>
      </trkpt>
      <trkpt lat="50.469670342281461" lon="5.229192031547427">
        <ele>182.97</ele>
        <time>2019-07-02T08:10:56Z</time>
      </trkpt>
      <trkpt lat="50.469683250412345" lon="5.229222374036908">
        <ele>182.97999999999999</ele>
        <time>2019-07-02T08:10:57Z</time>
      </trkpt>
      <trkpt lat="50.469711413607001" lon="5.229349443688989">
        <ele>183.06</ele>
        <time>2019-07-02T08:11:02Z</time>
      </trkpt>
      <trkpt lat="50.469712922349572" lon="5.229372158646584">
        <ele>183.08000000000001</ele>
        <time>2019-07-02T08:11:03Z</time>
      </trkpt>
      <trkpt lat="50.469714514911175" lon="5.229393113404512">
        <ele>183.09</ele>
        <time>2019-07-02T08:11:04Z</time>
      </trkpt>
      <trkpt lat="50.469716107472777" lon="5.229415660724044">
        <ele>183.11000000000001</ele>
        <time>2019-07-02T08:11:05Z</time>
      </trkpt>
      <trkpt lat="50.469721890985966" lon="5.229439297690988">
        <ele>183.12</ele>
        <time>2019-07-02T08:11:06Z</time>
      </trkpt>
      <trkpt lat="50.469728764146566" lon="5.229462180286646">
        <ele>183.13999999999999</ele>
        <time>2019-07-02T08:11:07Z</time>
      </trkpt>
      <trkpt lat="50.469849966466427" lon="5.229814806953073">
        <ele>183.38999999999999</ele>
        <time>2019-07-02T08:11:24Z</time>
      </trkpt>
      <trkpt lat="50.469922302290797" lon="5.230051428079605">
        <ele>186.05000000000001</ele>
        <time>2019-07-02T08:11:34Z</time>
      </trkpt>
      <trkpt lat="50.470018275082111" lon="5.230438336730003">
        <ele>186.31</ele>
        <time>2019-07-02T08:11:52Z</time>
      </trkpt>
      <trkpt lat="50.470147440209985" lon="5.23078266531229">
        <ele>187.38</ele>
        <time>2019-07-02T08:12:10Z</time>
      </trkpt>
      <trkpt lat="50.470241736620665" lon="5.231114504858851">
        <ele>187.61000000000001</ele>
        <time>2019-07-02T08:12:26Z</time>
      </trkpt>
      <trkpt lat="50.470311557874084" lon="5.231348192319274">
        <ele>189.66999999999999</ele>
        <time>2019-07-02T08:12:38Z</time>
      </trkpt>
      <trkpt lat="50.470322370529175" lon="5.231365207582712">
        <ele>185.19</ele>
        <time>2019-07-02T08:12:39Z</time>
      </trkpt>
      <trkpt lat="50.470329243689775" lon="5.231384905055165">
        <ele>185.21000000000001</ele>
        <time>2019-07-02T08:12:40Z</time>
      </trkpt>
      <trkpt lat="50.470335027202964" lon="5.231407033279538">
        <ele>189.94</ele>
        <time>2019-07-02T08:12:41Z</time>
      </trkpt>
      <trkpt lat="50.470338966697454" lon="5.231429161503911">
        <ele>189.96000000000001</ele>
        <time>2019-07-02T08:12:42Z</time>
      </trkpt>
      <trkpt lat="50.470359921455383" lon="5.231485655531287">
        <ele>187.72999999999999</ele>
        <time>2019-07-02T08:12:45Z</time>
      </trkpt>
      <trkpt lat="50.470473999157548" lon="5.231775669381023">
        <ele>187.06999999999999</ele>
        <time>2019-07-02T08:13:01Z</time>
      </trkpt>
      <trkpt lat="50.47058648429811" lon="5.232018912211061">
        <ele>185.69999999999999</ele>
        <time>2019-07-02T08:13:15Z</time>
      </trkpt>
      <trkpt lat="50.47062898054719" lon="5.232147071510553">
        <ele>184.81999999999999</ele>
        <time>2019-07-02T08:13:22Z</time>
      </trkpt>
      <trkpt lat="50.47063484787941" lon="5.232168026268482">
        <ele>184.84999999999999</ele>
        <time>2019-07-02T08:13:23Z</time>
      </trkpt>
      <trkpt lat="50.470736939460039" lon="5.232448568567634">
        <ele>184.36000000000001</ele>
        <time>2019-07-02T08:13:39Z</time>
      </trkpt>
      <trkpt lat="50.470825117081404" lon="5.232727099210024">
        <ele>183</ele>
        <time>2019-07-02T08:13:53Z</time>
      </trkpt>
      <trkpt lat="50.470941793173552" lon="5.233034547418356">
        <ele>182.18000000000001</ele>
        <time>2019-07-02T08:14:09Z</time>
      </trkpt>
      <trkpt lat="50.471066515892744" lon="5.233370997011662">
        <ele>181.63</ele>
        <time>2019-07-02T08:14:27Z</time>
      </trkpt>
      <trkpt lat="50.471179839223623" lon="5.233690431341529">
        <ele>181.03999999999999</ele>
        <time>2019-07-02T08:14:43Z</time>
      </trkpt>
      <trkpt lat="50.471316548064351" lon="5.234012631699443">
        <ele>180.34999999999999</ele>
        <time>2019-07-02T08:15:00Z</time>
      </trkpt>
      <trkpt lat="50.47136876732111" lon="5.234129810705781">
        <ele>179.44999999999999</ele>
        <time>2019-07-02T08:15:07Z</time>
      </trkpt>
      <trkpt lat="50.471377400681376" lon="5.234145820140839">
        <ele>179.40000000000001</ele>
        <time>2019-07-02T08:15:08Z</time>
      </trkpt>
      <trkpt lat="50.471384860575199" lon="5.234162667766213">
        <ele>179.41999999999999</ele>
        <time>2019-07-02T08:15:09Z</time>
      </trkpt>
      <trkpt lat="50.471505140885711" lon="5.234455782920122">
        <ele>179.63999999999999</ele>
        <time>2019-07-02T08:15:25Z</time>
      </trkpt>
      <trkpt lat="50.471622068434954" lon="5.234744120389223">
        <ele>178.87</ele>
        <time>2019-07-02T08:15:39Z</time>
      </trkpt>
      <trkpt lat="50.471680238842964" lon="5.234862305223942">
        <ele>178.94999999999999</ele>
        <time>2019-07-02T08:15:45Z</time>
      </trkpt>
      <trkpt lat="50.471690213307738" lon="5.234879404306412">
        <ele>178.16999999999999</ele>
        <time>2019-07-02T08:15:46Z</time>
      </trkpt>
      <trkpt lat="50.471853157505393" lon="5.235179224982858">
        <ele>177.43000000000001</ele>
        <time>2019-07-02T08:16:02Z</time>
      </trkpt>
      <trkpt lat="50.471985004842281" lon="5.235323058441281">
        <ele>177.59999999999999</ele>
        <time>2019-07-02T08:16:13Z</time>
      </trkpt>
      <trkpt lat="50.472018700093031" lon="5.235467981547117">
        <ele>177.66999999999999</ele>
        <time>2019-07-02T08:16:20Z</time>
      </trkpt>
      <trkpt lat="50.472023896872997" lon="5.23548373952508">
        <ele>177.69999999999999</ele>
        <time>2019-07-02T08:16:21Z</time>
      </trkpt>
      <trkpt lat="50.472083492204547" lon="5.235823122784495">
        <ele>177.94</ele>
        <time>2019-07-02T08:16:36Z</time>
      </trkpt>
      <trkpt lat="50.472112577408552" lon="5.23593083024025">
        <ele>180.34999999999999</ele>
        <time>2019-07-02T08:16:41Z</time>
      </trkpt>
      <trkpt lat="50.47217552550137" lon="5.236298209056258">
        <ele>181.28999999999999</ele>
        <time>2019-07-02T08:16:58Z</time>
      </trkpt>
      <trkpt lat="50.472213998436928" lon="5.236647902056575">
        <ele>181.41</ele>
        <time>2019-07-02T08:17:13Z</time>
      </trkpt>
      <trkpt lat="50.472255740314722" lon="5.237003127112985">
        <ele>181.53</ele>
        <time>2019-07-02T08:17:28Z</time>
      </trkpt>
      <trkpt lat="50.472286501899362" lon="5.237395232543349">
        <ele>181.72</ele>
        <time>2019-07-02T08:17:45Z</time>
      </trkpt>
      <trkpt lat="50.472297985106707" lon="5.237771328538656">
        <ele>181.86000000000001</ele>
        <time>2019-07-02T08:18:01Z</time>
      </trkpt>
      <trkpt lat="50.47228591516614" lon="5.238111382350326">
        <ele>182.02000000000001</ele>
        <time>2019-07-02T08:18:16Z</time>
      </trkpt>
      <trkpt lat="50.472261188551784" lon="5.238385554403067">
        <ele>182.13999999999999</ele>
        <time>2019-07-02T08:18:27Z</time>
      </trkpt>
      <trkpt lat="50.472261859104037" lon="5.238409945741296">
        <ele>182.16</ele>
        <time>2019-07-02T08:18:28Z</time>
      </trkpt>
      <trkpt lat="50.472206203266978" lon="5.238840188831091">
        <ele>182.38999999999999</ele>
        <time>2019-07-02T08:18:47Z</time>
      </trkpt>
      <trkpt lat="50.472132442519069" lon="5.239288453012705">
        <ele>183.56</ele>
        <time>2019-07-02T08:19:08Z</time>
      </trkpt>
      <trkpt lat="50.47210562042892" lon="5.239599840715528">
        <ele>184.46000000000001</ele>
        <time>2019-07-02T08:19:22Z</time>
      </trkpt>
      <trkpt lat="50.472086006775498" lon="5.239968644455075">
        <ele>185.44</ele>
        <time>2019-07-02T08:19:32Z</time>
      </trkpt>
      <trkpt lat="50.472091790288687" lon="5.240100156515837">
        <ele>186.38999999999999</ele>
        <time>2019-07-02T08:19:38Z</time>
      </trkpt>
      <trkpt lat="50.472085420042276" lon="5.240244911983609">
        <ele>186.47</ele>
        <time>2019-07-02T08:19:47Z</time>
      </trkpt>
      <trkpt lat="50.472081480547786" lon="5.240267710760236">
        <ele>186.47999999999999</ele>
        <time>2019-07-02T08:19:48Z</time>
      </trkpt>
      <trkpt lat="50.472038313746452" lon="5.240586055442691">
        <ele>187.47</ele>
        <time>2019-07-02T08:19:58Z</time>
      </trkpt>
      <trkpt lat="50.472035212442279" lon="5.240955194458365">
        <ele>188.36000000000001</ele>
        <time>2019-07-02T08:20:13Z</time>
      </trkpt>
      <trkpt lat="50.472023813053966" lon="5.241258451715112">
        <ele>188.46000000000001</ele>
        <time>2019-07-02T08:20:26Z</time>
      </trkpt>
      <trkpt lat="50.472015514969826" lon="5.241577802225947">
        <ele>189.31999999999999</ele>
        <time>2019-07-02T08:20:39Z</time>
      </trkpt>
      <trkpt lat="50.472022974863648" lon="5.241861362010241">
        <ele>189.47</ele>
        <time>2019-07-02T08:20:51Z</time>
      </trkpt>
      <trkpt lat="50.472026662901044" lon="5.242184903472662">
        <ele>190.38999999999999</ele>
        <time>2019-07-02T08:21:05Z</time>
      </trkpt>
      <trkpt lat="50.472026579082012" lon="5.242502158507705">
        <ele>190.49000000000001</ele>
        <time>2019-07-02T08:21:18Z</time>
      </trkpt>
      <trkpt lat="50.472043175250292" lon="5.242794435471296">
        <ele>191.47999999999999</ele>
        <time>2019-07-02T08:21:31Z</time>
      </trkpt>
      <trkpt lat="50.472061950713396" lon="5.243176314979792">
        <ele>191.68000000000001</ele>
        <time>2019-07-02T08:21:48Z</time>
      </trkpt>
      <trkpt lat="50.47206656076014" lon="5.243217637762427">
        <ele>191.69</ele>
        <time>2019-07-02T08:21:50Z</time>
      </trkpt>
      <trkpt lat="50.47206949442625" lon="5.243240939453244">
        <ele>191.69999999999999</ele>
        <time>2019-07-02T08:21:51Z</time>
      </trkpt>
      <trkpt lat="50.472072679549456" lon="5.24326516315341">
        <ele>191.69999999999999</ele>
        <time>2019-07-02T08:21:52Z</time>
      </trkpt>
      <trkpt lat="50.472072931006551" lon="5.243288464844227">
        <ele>191.71000000000001</ele>
        <time>2019-07-02T08:21:53Z</time>
      </trkpt>
      <trkpt lat="50.472072260454297" lon="5.24331109598279">
        <ele>191.72</ele>
        <time>2019-07-02T08:21:54Z</time>
      </trkpt>
      <trkpt lat="50.472072679549456" lon="5.243336828425527">
        <ele>191.72</ele>
        <time>2019-07-02T08:21:55Z</time>
      </trkpt>
      <trkpt lat="50.472072931006551" lon="5.243362057954073">
        <ele>191.74000000000001</ele>
        <time>2019-07-02T08:21:56Z</time>
      </trkpt>
      <trkpt lat="50.472072092816234" lon="5.243387287482619">
        <ele>191.75</ele>
        <time>2019-07-02T08:21:57Z</time>
      </trkpt>
      <trkpt lat="50.47205675393343" lon="5.243761958554387">
        <ele>192.88999999999999</ele>
        <time>2019-07-02T08:22:12Z</time>
      </trkpt>
      <trkpt lat="50.4720479529351" lon="5.244135204702616">
        <ele>193.02000000000001</ele>
        <time>2019-07-02T08:22:28Z</time>
      </trkpt>
      <trkpt lat="50.472037810832262" lon="5.24434894323349">
        <ele>194.09999999999999</ele>
        <time>2019-07-02T08:22:38Z</time>
      </trkpt>
      <trkpt lat="50.471959607675672" lon="5.244555976241827">
        <ele>194.22</ele>
        <time>2019-07-02T08:22:50Z</time>
      </trkpt>
      <trkpt lat="50.471807727590203" lon="5.244825538247824">
        <ele>194.36000000000001</ele>
        <time>2019-07-02T08:23:06Z</time>
      </trkpt>
      <trkpt lat="50.471591139212251" lon="5.245205070823431">
        <ele>194.65000000000001</ele>
        <time>2019-07-02T08:23:28Z</time>
      </trkpt>
      <trkpt lat="50.471483012661338" lon="5.245532970875502">
        <ele>194.84999999999999</ele>
        <time>2019-07-02T08:23:44Z</time>
      </trkpt>
      <trkpt lat="50.471512014046311" lon="5.245848800987005">
        <ele>196.16</ele>
        <time>2019-07-02T08:23:59Z</time>
      </trkpt>
      <trkpt lat="50.471517965197563" lon="5.245892554521561">
        <ele>197.78</ele>
        <time>2019-07-02T08:24:01Z</time>
      </trkpt>
      <trkpt lat="50.471565490588546" lon="5.246221041306853">
        <ele>197.99000000000001</ele>
        <time>2019-07-02T08:24:15Z</time>
      </trkpt>
      <trkpt lat="50.471570016816258" lon="5.246242918074131">
        <ele>198</ele>
        <time>2019-07-02T08:24:16Z</time>
      </trkpt>
      <trkpt lat="50.47157353721559" lon="5.246264962479472">
        <ele>198.02000000000001</ele>
        <time>2019-07-02T08:24:17Z</time>
      </trkpt>
      <trkpt lat="50.47161016613245" lon="5.246497141197324">
        <ele>199.09999999999999</ele>
        <time>2019-07-02T08:24:28Z</time>
      </trkpt>
      <trkpt lat="50.471614189445972" lon="5.246516084298492">
        <ele>199.12</ele>
        <time>2019-07-02T08:24:29Z</time>
      </trkpt>
      <trkpt lat="50.471617039293051" lon="5.24653703905642">
        <ele>199.13</ele>
        <time>2019-07-02T08:24:30Z</time>
      </trkpt>
      <trkpt lat="50.471619386225939" lon="5.246557993814349">
        <ele>199.15000000000001</ele>
        <time>2019-07-02T08:24:31Z</time>
      </trkpt>
      <trkpt lat="50.471622906625271" lon="5.246577691286802">
        <ele>200.11000000000001</ele>
        <time>2019-07-02T08:24:32Z</time>
      </trkpt>
      <trkpt lat="50.471624583005905" lon="5.246598813682795">
        <ele>200.13</ele>
        <time>2019-07-02T08:24:33Z</time>
      </trkpt>
      <trkpt lat="50.471626846119761" lon="5.246621193364263">
        <ele>200.12</ele>
        <time>2019-07-02T08:24:34Z</time>
      </trkpt>
      <trkpt lat="50.471629779785872" lon="5.246642231941223">
        <ele>200.12</ele>
        <time>2019-07-02T08:24:35Z</time>
      </trkpt>
      <trkpt lat="50.47163262963295" lon="5.246664108708501">
        <ele>200.13</ele>
        <time>2019-07-02T08:24:36Z</time>
      </trkpt>
      <trkpt lat="50.471677472814918" lon="5.247005419805646">
        <ele>202.30000000000001</ele>
        <time>2019-07-02T08:24:52Z</time>
      </trkpt>
      <trkpt lat="50.471731871366501" lon="5.247406493872404">
        <ele>204.40000000000001</ele>
        <time>2019-07-02T08:25:09Z</time>
      </trkpt>
      <trkpt lat="50.471789203584194" lon="5.247747469693422">
        <ele>205.38999999999999</ele>
        <time>2019-07-02T08:25:25Z</time>
      </trkpt>
      <trkpt lat="50.471837483346462" lon="5.248123817145824">
        <ele>206.44</ele>
        <time>2019-07-02T08:25:42Z</time>
      </trkpt>
      <trkpt lat="50.471881404519081" lon="5.248446017503738">
        <ele>208.19999999999999</ele>
        <time>2019-07-02T08:25:57Z</time>
      </trkpt>
      <trkpt lat="50.471918620169163" lon="5.248740138486028">
        <ele>209.11000000000001</ele>
        <time>2019-07-02T08:26:12Z</time>
      </trkpt>
      <trkpt lat="50.471951644867659" lon="5.249020848423243">
        <ele>210.16999999999999</ele>
        <time>2019-07-02T08:26:25Z</time>
      </trkpt>
      <trkpt lat="50.471987267956138" lon="5.249286303296685">
        <ele>210.25999999999999</ele>
        <time>2019-07-02T08:26:37Z</time>
      </trkpt>
      <trkpt lat="50.472005708143115" lon="5.249645300209522">
        <ele>212.05000000000001</ele>
        <time>2019-07-02T08:26:54Z</time>
      </trkpt>
      <trkpt lat="50.471989698708057" lon="5.249718138948083">
        <ele>212.90000000000001</ele>
        <time>2019-07-02T08:26:58Z</time>
      </trkpt>
      <trkpt lat="50.471982071176171" lon="5.249730795621872">
        <ele>212.91</ele>
        <time>2019-07-02T08:26:59Z</time>
      </trkpt>
      <trkpt lat="50.471972012892365" lon="5.249741189181805">
        <ele>212.91999999999999</ele>
        <time>2019-07-02T08:27:00Z</time>
      </trkpt>
      <trkpt lat="50.471962289884686" lon="5.249749654904008">
        <ele>212.94999999999999</ele>
        <time>2019-07-02T08:27:01Z</time>
      </trkpt>
      <trkpt lat="50.471951561048627" lon="5.249754600226879">
        <ele>212.94</ele>
        <time>2019-07-02T08:27:02Z</time>
      </trkpt>
      <trkpt lat="50.471940748393536" lon="5.249758120626211">
        <ele>212.96000000000001</ele>
        <time>2019-07-02T08:27:03Z</time>
      </trkpt>
      <trkpt lat="50.471880147233605" lon="5.249740015715361">
        <ele>213.99000000000001</ele>
        <time>2019-07-02T08:27:09Z</time>
      </trkpt>
      <trkpt lat="50.47186765819788" lon="5.249729035422206">
        <ele>214</ele>
        <time>2019-07-02T08:27:10Z</time>
      </trkpt>
      <trkpt lat="50.471846535801888" lon="5.249710343778133">
        <ele>214.90000000000001</ele>
        <time>2019-07-02T08:27:12Z</time>
      </trkpt>
      <trkpt lat="50.471838572993875" lon="5.24970673955977">
        <ele>214.93000000000001</ele>
        <time>2019-07-02T08:27:13Z</time>
      </trkpt>
      <trkpt lat="50.471831364557147" lon="5.249701710417867">
        <ele>214.91999999999999</ele>
        <time>2019-07-02T08:27:14Z</time>
      </trkpt>
      <trkpt lat="50.471823485568166" lon="5.249692071229219">
        <ele>214.94</ele>
        <time>2019-07-02T08:27:15Z</time>
      </trkpt>
      <trkpt lat="50.471815271303058" lon="5.249683270230889">
        <ele>214.94999999999999</ele>
        <time>2019-07-02T08:27:16Z</time>
      </trkpt>
      <trkpt lat="50.471775205805898" lon="5.249607330188155">
        <ele>215.88</ele>
        <time>2019-07-02T08:27:21Z</time>
      </trkpt>
      <trkpt lat="50.471765985712409" lon="5.249595092609525">
        <ele>215.88999999999999</ele>
        <time>2019-07-02T08:27:22Z</time>
      </trkpt>
      <trkpt lat="50.471756346523762" lon="5.249578412622213">
        <ele>216.72</ele>
        <time>2019-07-02T08:27:23Z</time>
      </trkpt>
      <trkpt lat="50.471729189157486" lon="5.249532228335738">
        <ele>216.72999999999999</ele>
        <time>2019-07-02T08:27:26Z</time>
      </trkpt>
      <trkpt lat="50.471719885244966" lon="5.249513955786824">
        <ele>216.74000000000001</ele>
        <time>2019-07-02T08:27:27Z</time>
      </trkpt>
      <trkpt lat="50.471709324046969" lon="5.249491995200515">
        <ele>216.75999999999999</ele>
        <time>2019-07-02T08:27:28Z</time>
      </trkpt>
      <trkpt lat="50.471700606867671" lon="5.249476237222552">
        <ele>217.56999999999999</ele>
        <time>2019-07-02T08:27:29Z</time>
      </trkpt>
      <trkpt lat="50.47169323079288" lon="5.249457964673638">
        <ele>217.58000000000001</ele>
        <time>2019-07-02T08:27:30Z</time>
      </trkpt>
      <trkpt lat="50.471634976565838" lon="5.249332319945097">
        <ele>218.41</ele>
        <time>2019-07-02T08:27:37Z</time>
      </trkpt>
      <trkpt lat="50.471626007929444" lon="5.249316226691008">
        <ele>218.40000000000001</ele>
        <time>2019-07-02T08:27:38Z</time>
      </trkpt>
      <trkpt lat="50.471616368740797" lon="5.249297367408872">
        <ele>218.41</ele>
        <time>2019-07-02T08:27:39Z</time>
      </trkpt>
      <trkpt lat="50.471550403162837" lon="5.249149342998862">
        <ele>219.34</ele>
        <time>2019-07-02T08:27:49Z</time>
      </trkpt>
      <trkpt lat="50.471539590507746" lon="5.249142302200198">
        <ele>219.34</ele>
        <time>2019-07-02T08:27:50Z</time>
      </trkpt>
      <trkpt lat="50.471446802839637" lon="5.248988661915064">
        <ele>220.28</ele>
        <time>2019-07-02T08:28:01Z</time>
      </trkpt>
      <trkpt lat="50.471317889168859" lon="5.248837703838944">
        <ele>221.11000000000001</ele>
        <time>2019-07-02T08:28:14Z</time>
      </trkpt>
      <trkpt lat="50.471197860315442" lon="5.248630000278354">
        <ele>222.88999999999999</ele>
        <time>2019-07-02T08:28:27Z</time>
      </trkpt>
      <trkpt lat="50.471138097345829" lon="5.248528579249978">
        <ele>223.63999999999999</ele>
        <time>2019-07-02T08:28:34Z</time>
      </trkpt>
      <trkpt lat="50.471129463985562" lon="5.248521706089377">
        <ele>223.63999999999999</ele>
        <time>2019-07-02T08:28:35Z</time>
      </trkpt>
      <trkpt lat="50.471101719886065" lon="5.248488513752818">
        <ele>224.40000000000001</ele>
        <time>2019-07-02T08:28:38Z</time>
      </trkpt>
      <trkpt lat="50.471087470650673" lon="5.248480467125773">
        <ele>224.41</ele>
        <time>2019-07-02T08:28:39Z</time>
      </trkpt>
      <trkpt lat="50.471073891967535" lon="5.248469486832619">
        <ele>224.40000000000001</ele>
        <time>2019-07-02T08:28:40Z</time>
      </trkpt>
      <trkpt lat="50.471063582226634" lon="5.248462026938796">
        <ele>224.40000000000001</ele>
        <time>2019-07-02T08:28:41Z</time>
      </trkpt>
      <trkpt lat="50.471052182838321" lon="5.248445430770516">
        <ele>224.41</ele>
        <time>2019-07-02T08:28:42Z</time>
      </trkpt>
      <trkpt lat="50.471040615811944" lon="5.248428918421269">
        <ele>224.41999999999999</ele>
        <time>2019-07-02T08:28:43Z</time>
      </trkpt>
      <trkpt lat="50.470918826758862" lon="5.248230351135135">
        <ele>225.94999999999999</ele>
        <time>2019-07-02T08:28:52Z</time>
      </trkpt>
      <trkpt lat="50.470899548381567" lon="5.248193135485053">
        <ele>225.94</ele>
        <time>2019-07-02T08:28:54Z</time>
      </trkpt>
      <trkpt lat="50.470858560875058" lon="5.248117614537478">
        <ele>225.93000000000001</ele>
        <time>2019-07-02T08:28:59Z</time>
      </trkpt>
      <trkpt lat="50.470746997743845" lon="5.248007057234645">
        <ele>227.75</ele>
        <time>2019-07-02T08:29:10Z</time>
      </trkpt>
      <trkpt lat="50.470738532021642" lon="5.247990963980556">
        <ele>227.74000000000001</ele>
        <time>2019-07-02T08:29:11Z</time>
      </trkpt>
      <trkpt lat="50.470733167603612" lon="5.247963555157185">
        <ele>227.72999999999999</ele>
        <time>2019-07-02T08:29:12Z</time>
      </trkpt>
      <trkpt lat="50.470728138461709" lon="5.24794620461762">
        <ele>227.75</ele>
        <time>2019-07-02T08:29:13Z</time>
      </trkpt>
      <trkpt lat="50.470720930024981" lon="5.247930949553847">
        <ele>227.74000000000001</ele>
        <time>2019-07-02T08:29:14Z</time>
      </trkpt>
      <trkpt lat="50.470601320266724" lon="5.247823996469379">
        <ele>229.5</ele>
        <time>2019-07-02T08:29:25Z</time>
      </trkpt>
      <trkpt lat="50.470394371077418" lon="5.247711930423975">
        <ele>231.25999999999999</ele>
        <time>2019-07-02T08:29:38Z</time>
      </trkpt>
      <trkpt lat="50.470380038022995" lon="5.247703464701772">
        <ele>231.27000000000001</ele>
        <time>2019-07-02T08:29:39Z</time>
      </trkpt>
      <trkpt lat="50.470271995291114" lon="5.247629452496767">
        <ele>232.86000000000001</ele>
        <time>2019-07-02T08:29:51Z</time>
      </trkpt>
      <trkpt lat="50.470099914819002" lon="5.247412528842688">
        <ele>235.22</ele>
        <time>2019-07-02T08:30:06Z</time>
      </trkpt>
      <trkpt lat="50.470039313659072" lon="5.247322842478752">
        <ele>235.21000000000001</ele>
        <time>2019-07-02T08:30:12Z</time>
      </trkpt>
      <trkpt lat="50.47003042884171" lon="5.247309431433678">
        <ele>235.19999999999999</ele>
        <time>2019-07-02T08:30:13Z</time>
      </trkpt>
      <trkpt lat="50.470021460205317" lon="5.24729585275054">
        <ele>235.19999999999999</ele>
        <time>2019-07-02T08:30:14Z</time>
      </trkpt>
      <trkpt lat="50.469964127987623" lon="5.247211782261729">
        <ele>236.02000000000001</ele>
        <time>2019-07-02T08:30:20Z</time>
      </trkpt>
      <trkpt lat="50.469954404979944" lon="5.247199712321162">
        <ele>236.02000000000001</ele>
        <time>2019-07-02T08:30:21Z</time>
      </trkpt>
      <trkpt lat="50.469815600663424" lon="5.247059231624007">
        <ele>236.86000000000001</ele>
        <time>2019-07-02T08:30:34Z</time>
      </trkpt>
      <trkpt lat="50.469646705314517" lon="5.246939370408654">
        <ele>237.94</ele>
        <time>2019-07-02T08:30:46Z</time>
      </trkpt>
      <trkpt lat="50.469505973160267" lon="5.246936269104481">
        <ele>239.72</ele>
        <time>2019-07-02T08:30:58Z</time>
      </trkpt>
      <trkpt lat="50.469308160245419" lon="5.246949093416333">
        <ele>243.43000000000001</ele>
        <time>2019-07-02T08:31:15Z</time>
      </trkpt>
      <trkpt lat="50.469075310975313" lon="5.247013550251722">
        <ele>246.12</ele>
        <time>2019-07-02T08:31:36Z</time>
      </trkpt>
      <trkpt lat="50.468818070366979" lon="5.247138189151883">
        <ele>247.86000000000001</ele>
        <time>2019-07-02T08:31:52Z</time>
      </trkpt>
      <trkpt lat="50.468595949932933" lon="5.247230306267738">
        <ele>248.77000000000001</ele>
        <time>2019-07-02T08:32:09Z</time>
      </trkpt>
      <trkpt lat="50.468335943296552" lon="5.247350838035345">
        <ele>248.90000000000001</ele>
        <time>2019-07-02T08:32:27Z</time>
      </trkpt>
      <trkpt lat="50.468132346868515" lon="5.24744438007474">
        <ele>248.94</ele>
        <time>2019-07-02T08:32:41Z</time>
      </trkpt>
      <trkpt lat="50.467911316081882" lon="5.247564995661378">
        <ele>249.05000000000001</ele>
        <time>2019-07-02T08:32:56Z</time>
      </trkpt>
      <trkpt lat="50.467765387147665" lon="5.247575556859374">
        <ele>249.16</ele>
        <time>2019-07-02T08:33:09Z</time>
      </trkpt>
      <trkpt lat="50.467760525643826" lon="5.247561894357204">
        <ele>249.16999999999999</ele>
        <time>2019-07-02T08:33:10Z</time>
      </trkpt>
      <trkpt lat="50.467567071318626" lon="5.247274478897452">
        <ele>249.34</ele>
        <time>2019-07-02T08:33:29Z</time>
      </trkpt>
      <trkpt lat="50.467498004436493" lon="5.247145565226674">
        <ele>249.40000000000001</ele>
        <time>2019-07-02T08:33:37Z</time>
      </trkpt>
      <trkpt lat="50.46748953871429" lon="5.247129891067743">
        <ele>249.41999999999999</ele>
        <time>2019-07-02T08:33:38Z</time>
      </trkpt>
      <trkpt lat="50.467481156811118" lon="5.247114887461066">
        <ele>249.43000000000001</ele>
        <time>2019-07-02T08:33:39Z</time>
      </trkpt>
      <trkpt lat="50.467362469062209" lon="5.246893437579274">
        <ele>247.21000000000001</ele>
        <time>2019-07-02T08:33:52Z</time>
      </trkpt>
      <trkpt lat="50.467250403016806" lon="5.246652374044061">
        <ele>247.34</ele>
        <time>2019-07-02T08:34:06Z</time>
      </trkpt>
      <trkpt lat="50.46723447740078" lon="5.246617421507835">
        <ele>247.36000000000001</ele>
        <time>2019-07-02T08:34:08Z</time>
      </trkpt>
      <trkpt lat="50.467223497107625" lon="5.246604597195983">
        <ele>247.36000000000001</ele>
        <time>2019-07-02T08:34:09Z</time>
      </trkpt>
      <trkpt lat="50.467209499329329" lon="5.246591521427035">
        <ele>247.37</ele>
        <time>2019-07-02T08:34:10Z</time>
      </trkpt>
      <trkpt lat="50.467199524864554" lon="5.246576266363263">
        <ele>247.38</ele>
        <time>2019-07-02T08:34:11Z</time>
      </trkpt>
      <trkpt lat="50.467190304771066" lon="5.246559334918857">
        <ele>247.38999999999999</ele>
        <time>2019-07-02T08:34:12Z</time>
      </trkpt>
      <trkpt lat="50.467183012515306" lon="5.24653946980834">
        <ele>247.40000000000001</ele>
        <time>2019-07-02T08:34:13Z</time>
      </trkpt>
      <trkpt lat="50.467175804078579" lon="5.246523963287473">
        <ele>247.41</ele>
        <time>2019-07-02T08:34:14Z</time>
      </trkpt>
      <trkpt lat="50.467164907604456" lon="5.246509043499827">
        <ele>247.41999999999999</ele>
        <time>2019-07-02T08:34:15Z</time>
      </trkpt>
      <trkpt lat="50.467155268415809" lon="5.24649403989315">
        <ele>247.41999999999999</ele>
        <time>2019-07-02T08:34:16Z</time>
      </trkpt>
      <trkpt lat="50.467023001983762" lon="5.246204528957605">
        <ele>246.77000000000001</ele>
        <time>2019-07-02T08:34:31Z</time>
      </trkpt>
      <trkpt lat="50.466963993385434" lon="5.246072597801685">
        <ele>246.80000000000001</ele>
        <time>2019-07-02T08:34:38Z</time>
      </trkpt>
      <trkpt lat="50.466956282034516" lon="5.246055414900184">
        <ele>246.81</ele>
        <time>2019-07-02T08:34:39Z</time>
      </trkpt>
      <trkpt lat="50.466948067769408" lon="5.246037896722555">
        <ele>246.83000000000001</ele>
        <time>2019-07-02T08:34:40Z</time>
      </trkpt>
      <trkpt lat="50.466942116618156" lon="5.246020127087832">
        <ele>246.84999999999999</ele>
        <time>2019-07-02T08:34:41Z</time>
      </trkpt>
      <trkpt lat="50.466934656724334" lon="5.246002692729235">
        <ele>246.86000000000001</ele>
        <time>2019-07-02T08:34:42Z</time>
      </trkpt>
      <trkpt lat="50.466924430802464" lon="5.245985677465797">
        <ele>246.84999999999999</ele>
        <time>2019-07-02T08:34:43Z</time>
      </trkpt>
      <trkpt lat="50.466914623975754" lon="5.245971512049437">
        <ele>246.11000000000001</ele>
        <time>2019-07-02T08:34:44Z</time>
      </trkpt>
      <trkpt lat="50.466896183788776" lon="5.24592624977231">
        <ele>246.13</ele>
        <time>2019-07-02T08:34:47Z</time>
      </trkpt>
      <trkpt lat="50.4668846167624" lon="5.245914431288838">
        <ele>246.15000000000001</ele>
        <time>2019-07-02T08:34:48Z</time>
      </trkpt>
      <trkpt lat="50.466872211545706" lon="5.245906552299857">
        <ele>246.15000000000001</ele>
        <time>2019-07-02T08:34:49Z</time>
      </trkpt>
      <trkpt lat="50.466771544888616" lon="5.245962208136916">
        <ele>245.36000000000001</ele>
        <time>2019-07-02T08:35:01Z</time>
      </trkpt>
      <trkpt lat="50.466716978698969" lon="5.24607477709651">
        <ele>244.46000000000001</ele>
        <time>2019-07-02T08:35:09Z</time>
      </trkpt>
      <trkpt lat="50.466679008677602" lon="5.246190363541246">
        <ele>243.66999999999999</ele>
        <time>2019-07-02T08:35:15Z</time>
      </trkpt>
      <trkpt lat="50.466675655916333" lon="5.246207881718874">
        <ele>243.68000000000001</ele>
        <time>2019-07-02T08:35:16Z</time>
      </trkpt>
      <trkpt lat="50.466566942632198" lon="5.246536955237389">
        <ele>240.40000000000001</ele>
        <time>2019-07-02T08:35:33Z</time>
      </trkpt>
      <trkpt lat="50.466513717547059" lon="5.246785813942552">
        <ele>238.93000000000001</ele>
        <time>2019-07-02T08:35:47Z</time>
      </trkpt>
      <trkpt lat="50.466511957347393" lon="5.24680333212018">
        <ele>238.94</ele>
        <time>2019-07-02T08:35:48Z</time>
      </trkpt>
      <trkpt lat="50.466466946527362" lon="5.247108936309815">
        <ele>236.63</ele>
        <time>2019-07-02T08:36:03Z</time>
      </trkpt>
      <trkpt lat="50.466471305117011" lon="5.247223349288106">
        <ele>235.84</ele>
        <time>2019-07-02T08:36:09Z</time>
      </trkpt>
      <trkpt lat="50.466468539088964" lon="5.247271880507469">
        <ele>235.84999999999999</ele>
        <time>2019-07-02T08:36:12Z</time>
      </trkpt>
      <trkpt lat="50.466476585716009" lon="5.247561056166887">
        <ele>234.06</ele>
        <time>2019-07-02T08:36:25Z</time>
      </trkpt>
      <trkpt lat="50.466448841616511" lon="5.247872695326805">
        <ele>231.49000000000001</ele>
        <time>2019-07-02T08:36:40Z</time>
      </trkpt>
      <trkpt lat="50.466444147750735" lon="5.247893566265702">
        <ele>231.5</ele>
        <time>2019-07-02T08:36:41Z</time>
      </trkpt>
      <trkpt lat="50.46644389629364" lon="5.247911503538489">
        <ele>231.47999999999999</ele>
        <time>2019-07-02T08:36:42Z</time>
      </trkpt>
      <trkpt lat="50.46645219437778" lon="5.248153656721115">
        <ele>229</ele>
        <time>2019-07-02T08:36:57Z</time>
      </trkpt>
      <trkpt lat="50.466460827738047" lon="5.248206965625286">
        <ele>229.03</ele>
        <time>2019-07-02T08:37:00Z</time>
      </trkpt>
      <trkpt lat="50.466464934870601" lon="5.248222555965185">
        <ele>229.03</ele>
        <time>2019-07-02T08:37:01Z</time>
      </trkpt>
      <trkpt lat="50.466473652049899" lon="5.248237224295735">
        <ele>229.05000000000001</ele>
        <time>2019-07-02T08:37:02Z</time>
      </trkpt>
      <trkpt lat="50.466456804424524" lon="5.248276954516769">
        <ele>228.13</ele>
        <time>2019-07-02T08:37:04Z</time>
      </trkpt>
      <trkpt lat="50.466411039233208" lon="5.248452723026276">
        <ele>227.28</ele>
        <time>2019-07-02T08:37:13Z</time>
      </trkpt>
      <trkpt lat="50.466406010091305" lon="5.248471079394221">
        <ele>227.28999999999999</ele>
        <time>2019-07-02T08:37:14Z</time>
      </trkpt>
      <trkpt lat="50.46640383079648" lon="5.248489687219262">
        <ele>226.49000000000001</ele>
        <time>2019-07-02T08:37:15Z</time>
      </trkpt>
      <trkpt lat="50.466401316225529" lon="5.248508714139462">
        <ele>226.50999999999999</ele>
        <time>2019-07-02T08:37:16Z</time>
      </trkpt>
      <trkpt lat="50.466399053111672" lon="5.24852866306901">
        <ele>226.50999999999999</ele>
        <time>2019-07-02T08:37:17Z</time>
      </trkpt>
      <trkpt lat="50.466397376731038" lon="5.24854919873178">
        <ele>226.52000000000001</ele>
        <time>2019-07-02T08:37:18Z</time>
      </trkpt>
      <trkpt lat="50.466396622359753" lon="5.248569315299392">
        <ele>226.50999999999999</ele>
        <time>2019-07-02T08:37:19Z</time>
      </trkpt>
      <trkpt lat="50.466367956250906" lon="5.248847091570497">
        <ele>224.19</ele>
        <time>2019-07-02T08:37:34Z</time>
      </trkpt>
      <trkpt lat="50.466358903795481" lon="5.249017830938101">
        <ele>223.38999999999999</ele>
        <time>2019-07-02T08:37:43Z</time>
      </trkpt>
      <trkpt lat="50.466357059776783" lon="5.249035349115729">
        <ele>223.41</ele>
        <time>2019-07-02T08:37:44Z</time>
      </trkpt>
      <trkpt lat="50.466354377567768" lon="5.249053873121738">
        <ele>222.55000000000001</ele>
        <time>2019-07-02T08:37:45Z</time>
      </trkpt>
      <trkpt lat="50.466349935159087" lon="5.249072313308716">
        <ele>222.58000000000001</ele>
        <time>2019-07-02T08:37:46Z</time>
      </trkpt>
      <trkpt lat="50.466345995664597" lon="5.249088909476996">
        <ele>222.58000000000001</ele>
        <time>2019-07-02T08:37:47Z</time>
      </trkpt>
      <trkpt lat="50.466345073655248" lon="5.249104835093021">
        <ele>222.58000000000001</ele>
        <time>2019-07-02T08:37:48Z</time>
      </trkpt>
      <trkpt lat="50.466344738379121" lon="5.249120593070984">
        <ele>222.56999999999999</ele>
        <time>2019-07-02T08:37:49Z</time>
      </trkpt>
      <trkpt lat="50.466338032856584" lon="5.249429466202855">
        <ele>219.99000000000001</ele>
        <time>2019-07-02T08:38:06Z</time>
      </trkpt>
      <trkpt lat="50.4663319978863" lon="5.249510100111365">
        <ele>219.22</ele>
        <time>2019-07-02T08:38:10Z</time>
      </trkpt>
      <trkpt lat="50.466270726174116" lon="5.249814698472619">
        <ele>216.86000000000001</ele>
        <time>2019-07-02T08:38:26Z</time>
      </trkpt>
      <trkpt lat="50.46624356880784" lon="5.249849064275622">
        <ele>216.06</ele>
        <time>2019-07-02T08:38:29Z</time>
      </trkpt>
      <trkpt lat="50.466146003454924" lon="5.250058025121689">
        <ele>213.53</ele>
        <time>2019-07-02T08:38:44Z</time>
      </trkpt>
      <trkpt lat="50.466051120311022" lon="5.250317025929689">
        <ele>210.18000000000001</ele>
        <time>2019-07-02T08:39:00Z</time>
      </trkpt>
      <trkpt lat="50.465948777273297" lon="5.250575607642531">
        <ele>207.56</ele>
        <time>2019-07-02T08:39:16Z</time>
      </trkpt>
      <trkpt lat="50.465906029567122" lon="5.250743916258216">
        <ele>206.00999999999999</ele>
        <time>2019-07-02T08:39:27Z</time>
      </trkpt>
      <trkpt lat="50.465902341529727" lon="5.250763949006796">
        <ele>206.00999999999999</ele>
        <time>2019-07-02T08:39:28Z</time>
      </trkpt>
      <trkpt lat="50.465889684855938" lon="5.250936448574066">
        <ele>203.88999999999999</ele>
        <time>2019-07-02T08:39:37Z</time>
      </trkpt>
      <trkpt lat="50.46589370816946" lon="5.251267282292247">
        <ele>202.27000000000001</ele>
        <time>2019-07-02T08:39:54Z</time>
      </trkpt>
      <trkpt lat="50.465935366228223" lon="5.251675900071859">
        <ele>199.19999999999999</ele>
        <time>2019-07-02T08:39:22Z</time>
      </trkpt>
      <trkpt lat="50.465931175276637" lon="5.252062138170004">
        <ele>196.91</ele>
        <time>2019-07-02T08:39:46Z</time>
      </trkpt>
      <trkpt lat="50.465991105884314" lon="5.25242012925446">
        <ele>194.63</ele>
        <time>2019-07-02T08:40:08Z</time>
      </trkpt>
      <trkpt lat="50.466035613790154" lon="5.252736546099186">
        <ele>192.06</ele>
        <time>2019-07-02T08:40:27Z</time>
      </trkpt>
      <trkpt lat="50.466059083119035" lon="5.252965958788991">
        <ele>188.81999999999999</ele>
        <time>2019-07-02T08:40:45Z</time>
      </trkpt>
      <trkpt lat="50.466073332354426" lon="5.253245998173952">
        <ele>185.38</ele>
        <time>2019-07-02T08:41:02Z</time>
      </trkpt>
      <trkpt lat="50.46606863848865" lon="5.253685628995299">
        <ele>182</ele>
        <time>2019-07-02T08:41:24Z</time>
      </trkpt>
      <trkpt lat="50.466072158887982" lon="5.253923675045371">
        <ele>178.46000000000001</ele>
        <time>2019-07-02T08:41:44Z</time>
      </trkpt>
      <trkpt lat="50.46606469899416" lon="5.254100365564227">
        <ele>176.81</ele>
        <time>2019-07-02T08:41:58Z</time>
      </trkpt>
      <trkpt lat="50.466058412566781" lon="5.254127103835344">
        <ele>175.88</ele>
        <time>2019-07-02T08:42:00Z</time>
      </trkpt>
      <trkpt lat="50.466048521921039" lon="5.254172952845693">
        <ele>175.88</ele>
        <time>2019-07-02T08:42:03Z</time>
      </trkpt>
      <trkpt lat="50.466072410345078" lon="5.254619959741831">
        <ele>170.66999999999999</ele>
        <time>2019-07-02T08:42:38Z</time>
      </trkpt>
      <trkpt lat="50.46606469899416" lon="5.254794470965862">
        <ele>168.00999999999999</ele>
        <time>2019-07-02T08:42:50Z</time>
      </trkpt>
      <trkpt lat="50.466126054525375" lon="5.255163358524442">
        <ele>165.52000000000001</ele>
        <time>2019-07-02T08:43:07Z</time>
      </trkpt>
      <trkpt lat="50.466167712584138" lon="5.255469046533108">
        <ele>162.94</ele>
        <time>2019-07-02T08:43:26Z</time>
      </trkpt>
      <trkpt lat="50.466213645413518" lon="5.255707511678338">
        <ele>159.46000000000001</ele>
        <time>2019-07-02T08:43:41Z</time>
      </trkpt>
      <trkpt lat="50.466246670112014" lon="5.255796108394861">
        <ele>159.5</ele>
        <time>2019-07-02T08:43:45Z</time>
      </trkpt>
      <trkpt lat="50.466259745880961" lon="5.255835838615894">
        <ele>155.84999999999999</ele>
        <time>2019-07-02T08:43:47Z</time>
      </trkpt>
      <trkpt lat="50.466322861611843" lon="5.256155524402857">
        <ele>158.38</ele>
        <time>2019-07-02T08:44:00Z</time>
      </trkpt>
      <trkpt lat="50.466335685923696" lon="5.256221238523722">
        <ele>158.38</ele>
        <time>2019-07-02T08:44:03Z</time>
      </trkpt>
      <trkpt lat="50.466339038684964" lon="5.256246468052268">
        <ele>158.37</ele>
        <time>2019-07-02T08:44:04Z</time>
      </trkpt>
      <trkpt lat="50.466341804713011" lon="5.256266836076975">
        <ele>158.36000000000001</ele>
        <time>2019-07-02T08:44:05Z</time>
      </trkpt>
      <trkpt lat="50.466345325112343" lon="5.256292819976807">
        <ele>158.36000000000001</ele>
        <time>2019-07-02T08:44:06Z</time>
      </trkpt>
      <trkpt lat="50.466348677873611" lon="5.256321234628558">
        <ele>158.37</ele>
        <time>2019-07-02T08:44:07Z</time>
      </trkpt>
      <trkpt lat="50.466352701187134" lon="5.256352666765451">
        <ele>158.36000000000001</ele>
        <time>2019-07-02T08:44:08Z</time>
      </trkpt>
      <trkpt lat="50.466351695358753" lon="5.256376471370459">
        <ele>158.37</ele>
        <time>2019-07-02T08:44:09Z</time>
      </trkpt>
      <trkpt lat="50.466351611539721" lon="5.2564019523561">
        <ele>158.37</ele>
        <time>2019-07-02T08:44:10Z</time>
      </trkpt>
      <trkpt lat="50.466348091140389" lon="5.256429193541408">
        <ele>158.36000000000001</ele>
        <time>2019-07-02T08:44:11Z</time>
      </trkpt>
      <trkpt lat="50.466346750035882" lon="5.256454003974795">
        <ele>158.34999999999999</ele>
        <time>2019-07-02T08:44:12Z</time>
      </trkpt>
      <trkpt lat="50.466345744207501" lon="5.256477640941739">
        <ele>158.36000000000001</ele>
        <time>2019-07-02T08:44:13Z</time>
      </trkpt>
      <trkpt lat="50.466345576569438" lon="5.256502535194159">
        <ele>158.37</ele>
        <time>2019-07-02T08:44:14Z</time>
      </trkpt>
      <trkpt lat="50.466337278485298" lon="5.256583252921701">
        <ele>156.05000000000001</ele>
        <time>2019-07-02T08:44:17Z</time>
      </trkpt>
      <trkpt lat="50.466225044801831" lon="5.257008215412498">
        <ele>155.28</ele>
        <time>2019-07-02T08:44:37Z</time>
      </trkpt>
      <trkpt lat="50.466137370094657" lon="5.257248440757394">
        <ele>155.28999999999999</ele>
        <time>2019-07-02T08:44:50Z</time>
      </trkpt>
      <trkpt lat="50.466108955442905" lon="5.257324716076255">
        <ele>155.30000000000001</ele>
        <time>2019-07-02T08:44:55Z</time>
      </trkpt>
      <trkpt lat="50.466098561882973" lon="5.257344581186771">
        <ele>155.28999999999999</ele>
        <time>2019-07-02T08:44:56Z</time>
      </trkpt>
      <trkpt lat="50.466090515255928" lon="5.257357154041529">
        <ele>155.30000000000001</ele>
        <time>2019-07-02T08:44:57Z</time>
      </trkpt>
      <trkpt lat="50.466053802520037" lon="5.257435189560056">
        <ele>155.30000000000001</ele>
        <time>2019-07-02T08:45:05Z</time>
      </trkpt>
      <trkpt lat="50.46606176532805" lon="5.257533928379417">
        <ele>155.30000000000001</ele>
        <time>2019-07-02T08:45:11Z</time>
      </trkpt>
      <trkpt lat="50.466065956279635" lon="5.257580112665892">
        <ele>155.30000000000001</ele>
        <time>2019-07-02T08:45:14Z</time>
      </trkpt>
      <trkpt lat="50.466094119474292" lon="5.257655214518309">
        <ele>155.28999999999999</ele>
        <time>2019-07-02T08:45:25Z</time>
      </trkpt>
      <trkpt lat="50.466214986518025" lon="5.257981857284904">
        <ele>155.31</ele>
        <time>2019-07-02T08:46:03Z</time>
      </trkpt>
      <trkpt lat="50.466243820264935" lon="5.258077830076218">
        <ele>155.31</ele>
        <time>2019-07-02T08:46:09Z</time>
      </trkpt>
      <trkpt lat="50.466301487758756" lon="5.258236415684223">
        <ele>155.33000000000001</ele>
        <time>2019-07-02T08:46:18Z</time>
      </trkpt>
      <trkpt lat="50.46633250080049" lon="5.2582997828722">
        <ele>155.34</ele>
        <time>2019-07-02T08:46:22Z</time>
      </trkpt>
      <trkpt lat="50.466408776119351" lon="5.258383685722947">
        <ele>154.5</ele>
        <time>2019-07-02T08:46:27Z</time>
      </trkpt>
      <trkpt lat="50.466415481641889" lon="5.258396677672863">
        <ele>154.49000000000001</ele>
        <time>2019-07-02T08:46:28Z</time>
      </trkpt>
      <trkpt lat="50.466428222134709" lon="5.258402628824115">
        <ele>154.5</ele>
        <time>2019-07-02T08:46:29Z</time>
      </trkpt>
      <trkpt lat="50.466437693685293" lon="5.25841168127954">
        <ele>154.49000000000001</ele>
        <time>2019-07-02T08:46:30Z</time>
      </trkpt>
      <trkpt lat="50.466480273753405" lon="5.258507318794727">
        <ele>154.53999999999999</ele>
        <time>2019-07-02T08:46:40Z</time>
      </trkpt>
      <trkpt lat="50.466502066701651" lon="5.258530955761671">
        <ele>154.55000000000001</ele>
        <time>2019-07-02T08:46:42Z</time>
      </trkpt>
      <trkpt lat="50.466517740860581" lon="5.258546462282538">
        <ele>154.55000000000001</ele>
        <time>2019-07-02T08:46:43Z</time>
      </trkpt>
      <trkpt lat="50.466559231281281" lon="5.258591305464506">
        <ele>154.56999999999999</ele>
        <time>2019-07-02T08:46:46Z</time>
      </trkpt>
      <trkpt lat="50.466574067249894" lon="5.258624413982034">
        <ele>154.58000000000001</ele>
        <time>2019-07-02T08:46:48Z</time>
      </trkpt>
      <trkpt lat="50.46659049578011" lon="5.258640423417091">
        <ele>154.59</ele>
        <time>2019-07-02T08:46:49Z</time>
      </trkpt>
      <trkpt lat="50.466599883511662" lon="5.258653583005071">
        <ele>154.59</ele>
        <time>2019-07-02T08:46:50Z</time>
      </trkpt>
      <trkpt lat="50.466659730300307" lon="5.258722733706236">
        <ele>154.63</ele>
        <time>2019-07-02T08:46:57Z</time>
      </trkpt>
      <trkpt lat="50.466774227097631" lon="5.25887000374496">
        <ele>153.94999999999999</ele>
        <time>2019-07-02T08:47:07Z</time>
      </trkpt>
      <trkpt lat="50.46676785685122" lon="5.258889282122254">
        <ele>153.96000000000001</ele>
        <time>2019-07-02T08:47:08Z</time>
      </trkpt>
      <trkpt lat="50.466711195185781" lon="5.258959522470832">
        <ele>154.00999999999999</ele>
        <time>2019-07-02T08:47:13Z</time>
      </trkpt>
      <trkpt lat="50.466698538511992" lon="5.258975280448794">
        <ele>154.03</ele>
        <time>2019-07-02T08:47:14Z</time>
      </trkpt>
      <trkpt lat="50.466615054756403" lon="5.259052058681846">
        <ele>154.09</ele>
        <time>2019-07-02T08:47:21Z</time>
      </trkpt>
      <trkpt lat="50.466476501896977" lon="5.259211733937264">
        <ele>156.50999999999999</ele>
        <time>2019-07-02T08:47:34Z</time>
      </trkpt>
      <trkpt lat="50.4664805252105" lon="5.259223887696862">
        <ele>156.52000000000001</ele>
        <time>2019-07-02T08:47:35Z</time>
      </trkpt>
      <trkpt lat="50.466404082253575" lon="5.259355735033751">
        <ele>159.56</ele>
        <time>2019-07-02T08:47:48Z</time>
      </trkpt>
      <trkpt lat="50.466407854110003" lon="5.259368810802698">
        <ele>159.56999999999999</ele>
        <time>2019-07-02T08:47:49Z</time>
      </trkpt>
      <trkpt lat="50.466052629053593" lon="5.259725712239742">
        <ele>163.13</ele>
        <time>2019-07-02T08:48:17Z</time>
      </trkpt>
      <trkpt lat="50.465819695964456" lon="5.259890416637063">
        <ele>164.97</ele>
        <time>2019-07-02T08:48:31Z</time>
      </trkpt>
      <trkpt lat="50.465751634910703" lon="5.259940456598997">
        <ele>165.80000000000001</ele>
        <time>2019-07-02T08:48:42Z</time>
      </trkpt>
      <trkpt lat="50.465685836970806" lon="5.259960070252419">
        <ele>166.66</ele>
        <time>2019-07-02T08:48:53Z</time>
      </trkpt>
      <trkpt lat="50.465676533058286" lon="5.259954957291484">
        <ele>166.68000000000001</ele>
        <time>2019-07-02T08:48:54Z</time>
      </trkpt>
      <trkpt lat="50.465631941333413" lon="5.259963423013687">
        <ele>166.71000000000001</ele>
        <time>2019-07-02T08:48:57Z</time>
      </trkpt>
      <trkpt lat="50.465540578588843" lon="5.259966105222702">
        <ele>167.53999999999999</ele>
        <time>2019-07-02T08:49:03Z</time>
      </trkpt>
      <trkpt lat="50.46542901545763" lon="5.259938109666109">
        <ele>168.56</ele>
        <time>2019-07-02T08:49:15Z</time>
      </trkpt>
      <trkpt lat="50.465370006859303" lon="5.259926207363606">
        <ele>168.59999999999999</ele>
        <time>2019-07-02T08:49:20Z</time>
      </trkpt>
      <trkpt lat="50.465345615521073" lon="5.259917993098497">
        <ele>168.62</ele>
        <time>2019-07-02T08:49:22Z</time>
      </trkpt>
      <trkpt lat="50.465224832296371" lon="5.259853452444077">
        <ele>169.46000000000001</ele>
        <time>2019-07-02T08:49:31Z</time>
      </trkpt>
      <trkpt lat="50.465100528672338" lon="5.259774578735232">
        <ele>170.31</ele>
        <time>2019-07-02T08:49:42Z</time>
      </trkpt>
      <trkpt lat="50.465049901977181" lon="5.259696543216705">
        <ele>171.15000000000001</ele>
        <time>2019-07-02T08:49:47Z</time>
      </trkpt>
      <trkpt lat="50.4647864587605" lon="5.259535359218717">
        <ele>174.75</ele>
        <time>2019-07-02T08:50:06Z</time>
      </trkpt>
      <trkpt lat="50.46476692892611" lon="5.25953016243875">
        <ele>174.77000000000001</ele>
        <time>2019-07-02T08:50:07Z</time>
      </trkpt>
      <trkpt lat="50.464680260047317" lon="5.259533766657114">
        <ele>174.81999999999999</ele>
        <time>2019-07-02T08:50:16Z</time>
      </trkpt>
      <trkpt lat="50.464670704677701" lon="5.259538711979985">
        <ele>174.84999999999999</ele>
        <time>2019-07-02T08:50:19Z</time>
      </trkpt>
      <trkpt lat="50.46456509269774" lon="5.25958389043808">
        <ele>177.16999999999999</ele>
        <time>2019-07-02T08:50:24Z</time>
      </trkpt>
      <trkpt lat="50.464432323351502" lon="5.259608952328563">
        <ele>180.38999999999999</ele>
        <time>2019-07-02T08:50:30Z</time>
      </trkpt>
      <trkpt lat="50.464313887059689" lon="5.259668547660112">
        <ele>182.31999999999999</ele>
        <time>2019-07-02T08:50:35Z</time>
      </trkpt>
      <trkpt lat="50.464206682518125" lon="5.25971682742238">
        <ele>184.08000000000001</ele>
        <time>2019-07-02T08:50:39Z</time>
      </trkpt>
      <trkpt lat="50.464165192097425" lon="5.259733339771628">
        <ele>184.12</ele>
        <time>2019-07-02T08:50:40Z</time>
      </trkpt>
      <trkpt lat="50.463886996731162" lon="5.259900391101837">
        <ele>186.06</ele>
        <time>2019-07-02T08:50:51Z</time>
      </trkpt>
      <trkpt lat="50.46386587433517" lon="5.259912712499499">
        <ele>186.84</ele>
        <time>2019-07-02T08:50:52Z</time>
      </trkpt>
      <trkpt lat="50.463840812444687" lon="5.259932577610016">
        <ele>186.84</ele>
        <time>2019-07-02T08:50:53Z</time>
      </trkpt>
      <trkpt lat="50.463813319802284" lon="5.25995085015893">
        <ele>186.86000000000001</ele>
        <time>2019-07-02T08:50:54Z</time>
      </trkpt>
      <trkpt lat="50.463795214891434" lon="5.259967362508178">
        <ele>186.84</ele>
        <time>2019-07-02T08:50:55Z</time>
      </trkpt>
      <trkpt lat="50.463771913200617" lon="5.259987898170948">
        <ele>186.83000000000001</ele>
        <time>2019-07-02T08:50:56Z</time>
      </trkpt>
      <trkpt lat="50.463702762499452" lon="5.260029137134552">
        <ele>187.88</ele>
        <time>2019-07-02T08:50:58Z</time>
      </trkpt>
      <trkpt lat="50.463638808578253" lon="5.260085295885801">
        <ele>188.68000000000001</ele>
        <time>2019-07-02T08:51:01Z</time>
      </trkpt>
      <trkpt lat="50.463506374508142" lon="5.260160313919187">
        <ele>189.84</ele>
        <time>2019-07-02T08:51:07Z</time>
      </trkpt>
      <trkpt lat="50.463474187999964" lon="5.260175401344895">
        <ele>189.84999999999999</ele>
        <time>2019-07-02T08:51:08Z</time>
      </trkpt>
      <trkpt lat="50.463430853560567" lon="5.260218568146229">
        <ele>190.71000000000001</ele>
        <time>2019-07-02T08:51:10Z</time>
      </trkpt>
      <trkpt lat="50.463412161916494" lon="5.260239690542221">
        <ele>190.72999999999999</ele>
        <time>2019-07-02T08:51:11Z</time>
      </trkpt>
      <trkpt lat="50.463390620425344" lon="5.260261818766594">
        <ele>190.75</ele>
        <time>2019-07-02T08:51:12Z</time>
      </trkpt>
      <trkpt lat="50.463375030085444" lon="5.260288305580616">
        <ele>190.72</ele>
        <time>2019-07-02T08:51:13Z</time>
      </trkpt>
      <trkpt lat="50.463363798335195" lon="5.260311691090465">
        <ele>190.72</ele>
        <time>2019-07-02T08:51:14Z</time>
      </trkpt>
      <trkpt lat="50.463003879413009" lon="5.26075609959662">
        <ele>193.46000000000001</ele>
        <time>2019-07-02T08:51:25Z</time>
      </trkpt>
      <trkpt lat="50.462758205831051" lon="5.260937567800283">
        <ele>194.78</ele>
        <time>2019-07-02T08:51:36Z</time>
      </trkpt>
      <trkpt lat="50.462720319628716" lon="5.260950224474073">
        <ele>194.75</ele>
        <time>2019-07-02T08:51:37Z</time>
      </trkpt>
      <trkpt lat="50.462700789794326" lon="5.260958606377244">
        <ele>194.75</ele>
        <time>2019-07-02T08:51:38Z</time>
      </trkpt>
      <trkpt lat="50.462680589407682" lon="5.260966569185257">
        <ele>188.08000000000001</ele>
        <time>2019-07-02T08:51:39Z</time>
      </trkpt>
      <trkpt lat="50.462623424828053" lon="5.260981069877744">
        <ele>196.75</ele>
        <time>2019-07-02T08:51:40Z</time>
      </trkpt>
      <trkpt lat="50.462609510868788" lon="5.261015351861715">
        <ele>195.72999999999999</ele>
        <time>2019-07-02T08:52:55Z</time>
      </trkpt>
      <trkpt lat="50.462709171697497" lon="5.261309053748846">
        <ele>196.53</ele>
        <time>2019-07-02T08:53:12Z</time>
      </trkpt>
      <trkpt lat="50.462710428982973" lon="5.26132975704968">
        <ele>196.50999999999999</ele>
        <time>2019-07-02T08:53:13Z</time>
      </trkpt>
      <trkpt lat="50.462717050686479" lon="5.261350376531482">
        <ele>196.52000000000001</ele>
        <time>2019-07-02T08:53:14Z</time>
      </trkpt>
      <trkpt lat="50.46289985999465" lon="5.261695627123117">
        <ele>198.88</ele>
        <time>2019-07-02T08:53:33Z</time>
      </trkpt>
      <trkpt lat="50.463005974888802" lon="5.261866617947817">
        <ele>198.88</ele>
        <time>2019-07-02T08:53:44Z</time>
      </trkpt>
      <trkpt lat="50.463186018168926" lon="5.262140706181526">
        <ele>199.66</ele>
        <time>2019-07-02T08:54:02Z</time>
      </trkpt>
      <trkpt lat="50.46329515054822" lon="5.262373303994536">
        <ele>200.44999999999999</ele>
        <time>2019-07-02T08:54:16Z</time>
      </trkpt>
      <trkpt lat="50.46331811696291" lon="5.262446058914065">
        <ele>200.44999999999999</ele>
        <time>2019-07-02T08:54:20Z</time>
      </trkpt>
      <trkpt lat="50.463322140276432" lon="5.262466762214899">
        <ele>200.46000000000001</ele>
        <time>2019-07-02T08:54:21Z</time>
      </trkpt>
      <trkpt lat="50.463339323177934" lon="5.2625029720366">
        <ele>200.47</ele>
        <time>2019-07-02T08:54:23Z</time>
      </trkpt>
      <trkpt lat="50.463349465280771" lon="5.26252057403326">
        <ele>200.47</ele>
        <time>2019-07-02T08:54:24Z</time>
      </trkpt>
      <trkpt lat="50.463356506079435" lon="5.262538427487016">
        <ele>200.46000000000001</ele>
        <time>2019-07-02T08:54:25Z</time>
      </trkpt>
      <trkpt lat="50.463468572124839" lon="5.262840008363128">
        <ele>200.50999999999999</ele>
        <time>2019-07-02T08:54:41Z</time>
      </trkpt>
      <trkpt lat="50.463475110009313" lon="5.262854006141424">
        <ele>200.53</ele>
        <time>2019-07-02T08:54:42Z</time>
      </trkpt>
      <trkpt lat="50.463480558246374" lon="5.26287236250937">
        <ele>200.52000000000001</ele>
        <time>2019-07-02T08:54:43Z</time>
      </trkpt>
      <trkpt lat="50.463482737541199" lon="5.26289239525795">
        <ele>200.53</ele>
        <time>2019-07-02T08:54:44Z</time>
      </trkpt>
      <trkpt lat="50.463485000655055" lon="5.262909829616547">
        <ele>200.53</ele>
        <time>2019-07-02T08:54:45Z</time>
      </trkpt>
      <trkpt lat="50.46348818577826" lon="5.26292659342289">
        <ele>200.53999999999999</ele>
        <time>2019-07-02T08:54:46Z</time>
      </trkpt>
      <trkpt lat="50.463487347587943" lon="5.262945787981153">
        <ele>200.53999999999999</ele>
        <time>2019-07-02T08:54:47Z</time>
      </trkpt>
      <trkpt lat="50.463482988998294" lon="5.262967916205525">
        <ele>200.55000000000001</ele>
        <time>2019-07-02T08:54:48Z</time>
      </trkpt>
      <trkpt lat="50.463324654847383" lon="5.263233706355095">
        <ele>200.61000000000001</ele>
        <time>2019-07-02T08:55:06Z</time>
      </trkpt>
      <trkpt lat="50.463192639872432" lon="5.263384580612183">
        <ele>200.72</ele>
        <time>2019-07-02T08:55:21Z</time>
      </trkpt>
      <trkpt lat="50.463019637390971" lon="5.263579962775111">
        <ele>200.78999999999999</ele>
        <time>2019-07-02T08:55:38Z</time>
      </trkpt>
      <trkpt lat="50.462985942140222" lon="5.263617429882288">
        <ele>203.21000000000001</ele>
        <time>2019-07-02T08:55:43Z</time>
      </trkpt>
      <trkpt lat="50.462769521400332" lon="5.263857739046216">
        <ele>203.81</ele>
        <time>2019-07-02T08:57:44Z</time>
      </trkpt>
      <trkpt lat="50.462500294670463" lon="5.264189997687936">
        <ele>203.86000000000001</ele>
        <time>2019-07-02T08:57:53Z</time>
      </trkpt>
      <trkpt lat="50.462188487872481" lon="5.26457623578608">
        <ele>206.36000000000001</ele>
        <time>2019-07-02T08:58:03Z</time>
      </trkpt>
      <trkpt lat="50.462090922519565" lon="5.264701461419463">
        <ele>207.13999999999999</ele>
        <time>2019-07-02T08:58:06Z</time>
      </trkpt>
      <trkpt lat="50.461709378287196" lon="5.265181576833129">
        <ele>210.43000000000001</ele>
        <time>2019-07-02T08:58:17Z</time>
      </trkpt>
      <trkpt lat="50.461406540125608" lon="5.265512829646468">
        <ele>212.40000000000001</ele>
        <time>2019-07-02T08:58:27Z</time>
      </trkpt>
      <trkpt lat="50.460956264287233" lon="5.266041224822402">
        <ele>216.00999999999999</ele>
        <time>2019-07-02T08:58:39Z</time>
      </trkpt>
      <trkpt lat="50.460915947332978" lon="5.266083888709545">
        <ele>216.02000000000001</ele>
        <time>2019-07-02T08:58:40Z</time>
      </trkpt>
      <trkpt lat="50.460556363686919" lon="5.266528883948922">
        <ele>219.84</ele>
        <time>2019-07-02T08:58:50Z</time>
      </trkpt>
      <trkpt lat="50.460393838584423" lon="5.26675402186811">
        <ele>221.22999999999999</ele>
        <time>2019-07-02T08:58:56Z</time>
      </trkpt>
      <trkpt lat="50.46022854745388" lon="5.266987457871437">
        <ele>222.21000000000001</ele>
        <time>2019-07-02T08:59:08Z</time>
      </trkpt>
      <trkpt lat="50.460125030949712" lon="5.267172027379274">
        <ele>223.88999999999999</ele>
        <time>2019-07-02T08:59:21Z</time>
      </trkpt>
      <trkpt lat="50.460011456161737" lon="5.267270263284445">
        <ele>223.90000000000001</ele>
        <time>2019-07-02T08:59:32Z</time>
      </trkpt>
      <trkpt lat="50.459856558591127" lon="5.267386855557561">
        <ele>224.72</ele>
        <time>2019-07-02T08:59:44Z</time>
      </trkpt>
      <trkpt lat="50.459616249427199" lon="5.267544770613313">
        <ele>226.53</ele>
        <time>2019-07-02T09:01:14Z</time>
      </trkpt>
      <trkpt lat="50.459600826725364" lon="5.267551559954882">
        <ele>226.55000000000001</ele>
        <time>2019-07-02T09:01:15Z</time>
      </trkpt>
      <trkpt lat="50.459586577489972" lon="5.26755784638226">
        <ele>226.53999999999999</ele>
        <time>2019-07-02T09:01:16Z</time>
      </trkpt>
      <trkpt lat="50.459569646045566" lon="5.267565976828337">
        <ele>226.53999999999999</ele>
        <time>2019-07-02T09:01:17Z</time>
      </trkpt>
      <trkpt lat="50.459556151181459" lon="5.267572514712811">
        <ele>227.47999999999999</ele>
        <time>2019-07-02T09:01:18Z</time>
      </trkpt>
      <trkpt lat="50.45954248867929" lon="5.267578382045031">
        <ele>227.5</ele>
        <time>2019-07-02T09:01:19Z</time>
      </trkpt>
      <trkpt lat="50.459529161453247" lon="5.267584919929504">
        <ele>227.49000000000001</ele>
        <time>2019-07-02T09:01:20Z</time>
      </trkpt>
      <trkpt lat="50.459059020504355" lon="5.267880130559206">
        <ele>231.41</ele>
        <time>2019-07-02T09:01:57Z</time>
      </trkpt>
      <trkpt lat="50.458786524832249" lon="5.26788767427206">
        <ele>233.15000000000001</ele>
        <time>2019-07-02T09:02:16Z</time>
      </trkpt>
      <trkpt lat="50.458679907023907" lon="5.267957244068384">
        <ele>234.74000000000001</ele>
        <time>2019-07-02T09:02:25Z</time>
      </trkpt>
      <trkpt lat="50.458403304219246" lon="5.268057743087411">
        <ele>238.56999999999999</ele>
        <time>2019-07-02T09:02:49Z</time>
      </trkpt>
      <trkpt lat="50.458249915391207" lon="5.268098562955856">
        <ele>240.28999999999999</ele>
        <time>2019-07-02T09:03:00Z</time>
      </trkpt>
      <trkpt lat="50.458040367811918" lon="5.268199732527137">
        <ele>242</ele>
        <time>2019-07-02T09:03:14Z</time>
      </trkpt>
      <trkpt lat="50.458036763593554" lon="5.268223537132144">
        <ele>242.80000000000001</ele>
        <time>2019-07-02T09:03:15Z</time>
      </trkpt>
      <trkpt lat="50.458042128011584" lon="5.268255053088069">
        <ele>242.78</ele>
        <time>2019-07-02T09:03:17Z</time>
      </trkpt>
      <trkpt lat="50.45808982104063" lon="5.268351444974542">
        <ele>244.25999999999999</ele>
        <time>2019-07-02T09:03:24Z</time>
      </trkpt>
      <trkpt lat="50.458127204328775" lon="5.268481783568859">
        <ele>244.19999999999999</ele>
        <time>2019-07-02T09:03:31Z</time>
      </trkpt>
      <trkpt lat="50.458140866830945" lon="5.268518328666687">
        <ele>241.02000000000001</ele>
        <time>2019-07-02T09:03:33Z</time>
      </trkpt>
      <trkpt lat="50.458259638398886" lon="5.268718572333455">
        <ele>243.49000000000001</ele>
        <time>2019-07-02T09:03:46Z</time>
      </trkpt>
      <trkpt lat="50.45836441218853" lon="5.268830806016922">
        <ele>243.50999999999999</ele>
        <time>2019-07-02T09:03:57Z</time>
      </trkpt>
      <trkpt lat="50.458660125732422" lon="5.269165243953466">
        <ele>240.38999999999999</ele>
        <time>2019-07-02T09:04:29Z</time>
      </trkpt>
      <trkpt lat="50.458875121548772" lon="5.269452324137092">
        <ele>238.71000000000001</ele>
        <time>2019-07-02T09:04:50Z</time>
      </trkpt>
      <trkpt lat="50.458916276693344" lon="5.269473027437925">
        <ele>238.71000000000001</ele>
        <time>2019-07-02T09:04:51Z</time>
      </trkpt>
      <trkpt lat="50.458932956680655" lon="5.269499514251947">
        <ele>238.69999999999999</ele>
        <time>2019-07-02T09:04:52Z</time>
      </trkpt>
      <trkpt lat="50.458948547020555" lon="5.269528347998858">
        <ele>238.69999999999999</ele>
        <time>2019-07-02T09:04:53Z</time>
      </trkpt>
      <trkpt lat="50.458961958065629" lon="5.26955190114677">
        <ele>238.69</ele>
        <time>2019-07-02T09:04:54Z</time>
      </trkpt>
      <trkpt lat="50.458986684679985" lon="5.269618034362793">
        <ele>239.28</ele>
        <time>2019-07-02T09:04:57Z</time>
      </trkpt>
      <trkpt lat="50.458991294726729" lon="5.269639743492007">
        <ele>239.27000000000001</ele>
        <time>2019-07-02T09:04:58Z</time>
      </trkpt>
      <trkpt lat="50.458993474021554" lon="5.269660446792841">
        <ele>239.25999999999999</ele>
        <time>2019-07-02T09:04:59Z</time>
      </trkpt>
      <trkpt lat="50.459022056311369" lon="5.26970386505127">
        <ele>236.16</ele>
        <time>2019-07-02T09:05:01Z</time>
      </trkpt>
      <trkpt lat="50.459191538393497" lon="5.27006302960217">
        <ele>238.46000000000001</ele>
        <time>2019-07-02T09:05:17Z</time>
      </trkpt>
      <trkpt lat="50.45924543403089" lon="5.270157409831882">
        <ele>236.16</ele>
        <time>2019-07-02T09:05:21Z</time>
      </trkpt>
      <trkpt lat="50.459321457892656" lon="5.270374165847898">
        <ele>235.28</ele>
        <time>2019-07-02T09:05:32Z</time>
      </trkpt>
      <trkpt lat="50.459389016032219" lon="5.270555885508657">
        <ele>233.52000000000001</ele>
        <time>2019-07-02T09:05:44Z</time>
      </trkpt>
      <trkpt lat="50.459460513666272" lon="5.270729893818498">
        <ele>231.87</ele>
        <time>2019-07-02T09:05:57Z</time>
      </trkpt>
      <trkpt lat="50.459529329091311" lon="5.271176733076572">
        <ele>229.49000000000001</ele>
        <time>2019-07-02T09:06:17Z</time>
      </trkpt>
      <trkpt lat="50.459553385153413" lon="5.271269688382745">
        <ele>228.68000000000001</ele>
        <time>2019-07-02T09:06:21Z</time>
      </trkpt>
      <trkpt lat="50.459750276058912" lon="5.271503292024136">
        <ele>225.25</ele>
        <time>2019-07-02T09:06:41Z</time>
      </trkpt>
      <trkpt lat="50.459848344326019" lon="5.271749971434474">
        <ele>222.75</ele>
        <time>2019-07-02T09:06:57Z</time>
      </trkpt>
      <trkpt lat="50.459911962971091" lon="5.271937306970358">
        <ele>220.28</ele>
        <time>2019-07-02T09:07:09Z</time>
      </trkpt>
      <trkpt lat="50.460051521658897" lon="5.272291023284197">
        <ele>217.25</ele>
        <time>2019-07-02T09:07:32Z</time>
      </trkpt>
      <trkpt lat="50.460057137534022" lon="5.272383810952306">
        <ele>215.08000000000001</ele>
        <time>2019-07-02T09:07:36Z</time>
      </trkpt>
      <trkpt lat="50.460101058706641" lon="5.272662760689855">
        <ele>212.21000000000001</ele>
        <time>2019-07-02T09:07:51Z</time>
      </trkpt>
      <trkpt lat="50.460166437551379" lon="5.272913631051779">
        <ele>209.27000000000001</ele>
        <time>2019-07-02T09:08:07Z</time>
      </trkpt>
      <trkpt lat="50.460215136408806" lon="5.273070205003023">
        <ele>206.84</ele>
        <time>2019-07-02T09:08:20Z</time>
      </trkpt>
      <trkpt lat="50.460299123078585" lon="5.273147569969297">
        <ele>204.99000000000001</ele>
        <time>2019-07-02T09:08:28Z</time>
      </trkpt>
      <trkpt lat="50.460490733385086" lon="5.273930355906487">
        <ele>196.06</ele>
        <time>2019-07-02T09:09:18Z</time>
      </trkpt>
      <trkpt lat="50.460508167743683" lon="5.27398131787777">
        <ele>194.19999999999999</ele>
        <time>2019-07-02T09:09:22Z</time>
      </trkpt>
      <trkpt lat="50.460580000653863" lon="5.274224728345871">
        <ele>192.68000000000001</ele>
        <time>2019-07-02T09:09:37Z</time>
      </trkpt>
      <trkpt lat="50.460653677582741" lon="5.274551874026656">
        <ele>189.38999999999999</ele>
        <time>2019-07-02T09:09:55Z</time>
      </trkpt>
      <trkpt lat="50.46070103533566" lon="5.274846078827977">
        <ele>185.97999999999999</ele>
        <time>2019-07-02T09:10:12Z</time>
      </trkpt>
      <trkpt lat="50.46069860458374" lon="5.275041041895747">
        <ele>182.88</ele>
        <time>2019-07-02T09:10:27Z</time>
      </trkpt>
      <trkpt lat="50.460740681737661" lon="5.275290319696069">
        <ele>179.34</ele>
        <time>2019-07-02T09:10:43Z</time>
      </trkpt>
      <trkpt lat="50.46084470115602" lon="5.275770854204893">
        <ele>177.11000000000001</ele>
        <time>2019-07-02T09:11:09Z</time>
      </trkpt>
      <trkpt lat="50.460827769711614" lon="5.276008229702711">
        <ele>174.69999999999999</ele>
        <time>2019-07-02T09:11:20Z</time>
      </trkpt>
      <trkpt lat="50.460843862965703" lon="5.276309894397855">
        <ele>172.97</ele>
        <time>2019-07-02T09:11:37Z</time>
      </trkpt>
      <trkpt lat="50.460888454690576" lon="5.276563530787826">
        <ele>170.53</ele>
        <time>2019-07-02T09:11:51Z</time>
      </trkpt>
      <trkpt lat="50.460955258458853" lon="5.276812305673957">
        <ele>169.65000000000001</ele>
        <time>2019-07-02T09:12:02Z</time>
      </trkpt>
      <trkpt lat="50.460991468280554" lon="5.277251517400146">
        <ele>168.87</ele>
        <time>2019-07-02T09:12:21Z</time>
      </trkpt>
      <trkpt lat="50.461063971742988" lon="5.277542201802135">
        <ele>167.03</ele>
        <time>2019-07-02T09:12:34Z</time>
      </trkpt>
      <trkpt lat="50.461236387491226" lon="5.277934055775404">
        <ele>165.47999999999999</ele>
        <time>2019-07-02T09:12:55Z</time>
      </trkpt>
      <trkpt lat="50.461357170715928" lon="5.278190709650517">
        <ele>165.5</ele>
        <time>2019-07-02T09:13:14Z</time>
      </trkpt>
      <trkpt lat="50.461270669475198" lon="5.278589688241482">
        <ele>165.41999999999999</ele>
        <time>2019-07-02T09:13:34Z</time>
      </trkpt>
      <trkpt lat="50.461180564016104" lon="5.278997551649809">
        <ele>164.37</ele>
        <time>2019-07-02T09:13:53Z</time>
      </trkpt>
      <trkpt lat="50.461152065545321" lon="5.279154879972339">
        <ele>163.56</ele>
        <time>2019-07-02T09:13:59Z</time>
      </trkpt>
      <trkpt lat="50.461075119674206" lon="5.279548242688179">
        <ele>161.68000000000001</ele>
        <time>2019-07-02T09:14:18Z</time>
      </trkpt>
      <trkpt lat="50.461094230413437" lon="5.279708672314882">
        <ele>161.63</ele>
        <time>2019-07-02T09:14:26Z</time>
      </trkpt>
      <trkpt lat="50.461102863773704" lon="5.279717054218054">
        <ele>161.63</ele>
        <time>2019-07-02T09:14:27Z</time>
      </trkpt>
      <trkpt lat="50.461041675880551" lon="5.280054677277803">
        <ele>160.74000000000001</ele>
        <time>2019-07-02T09:14:46Z</time>
      </trkpt>
      <trkpt lat="50.46096540056169" lon="5.280318623408675">
        <ele>158.31</ele>
        <time>2019-07-02T09:15:01Z</time>
      </trkpt>
      <trkpt lat="50.460785189643502" lon="5.280561782419682">
        <ele>156.61000000000001</ele>
        <time>2019-07-02T09:15:18Z</time>
      </trkpt>
      <trkpt lat="50.460652085021138" lon="5.280787758529186">
        <ele>155.78</ele>
        <time>2019-07-02T09:15:30Z</time>
      </trkpt>
      <trkpt lat="50.460509927943349" lon="5.281002670526505">
        <ele>156.44999999999999</ele>
        <time>2019-07-02T09:15:47Z</time>
      </trkpt>
      <trkpt lat="50.460495259612799" lon="5.281022284179926">
        <ele>156.44</ele>
        <time>2019-07-02T09:15:48Z</time>
      </trkpt>
      <trkpt lat="50.460456032305956" lon="5.281096464022994">
        <ele>153.96000000000001</ele>
        <time>2019-07-02T09:15:52Z</time>
      </trkpt>
      <trkpt lat="50.460357628762722" lon="5.281304838135839">
        <ele>153.80000000000001</ele>
        <time>2019-07-02T09:16:04Z</time>
      </trkpt>
      <trkpt lat="50.460194516927004" lon="5.281549254432321">
        <ele>152.94999999999999</ele>
        <time>2019-07-02T09:16:17Z</time>
      </trkpt>
      <trkpt lat="50.460065267980099" lon="5.28177154250443">
        <ele>152.97</ele>
        <time>2019-07-02T09:16:30Z</time>
      </trkpt>
      <trkpt lat="50.459921350702643" lon="5.282000536099076">
        <ele>152.91999999999999</ele>
        <time>2019-07-02T09:16:47Z</time>
      </trkpt>
      <trkpt lat="50.459828143939376" lon="5.282163396477699">
        <ele>152.88</ele>
        <time>2019-07-02T09:16:56Z</time>
      </trkpt>
      <trkpt lat="50.459771817550063" lon="5.282278982922435">
        <ele>152.81999999999999</ele>
        <time>2019-07-02T09:17:04Z</time>
      </trkpt>
      <trkpt lat="50.459635611623526" lon="5.282452320680022">
        <ele>152.72999999999999</ele>
        <time>2019-07-02T09:17:17Z</time>
      </trkpt>
      <trkpt lat="50.459546763449907" lon="5.282552987337112">
        <ele>152.69999999999999</ele>
        <time>2019-07-02T09:17:22Z</time>
      </trkpt>
      <trkpt lat="50.459377449005842" lon="5.282498672604561">
        <ele>152.69</ele>
        <time>2019-07-02T09:17:32Z</time>
      </trkpt>
      <trkpt lat="50.459328247234225" lon="5.282501941546798">
        <ele>152.68000000000001</ele>
        <time>2019-07-02T09:17:35Z</time>
      </trkpt>
      <trkpt lat="50.459301676601171" lon="5.282496744766831">
        <ele>155.03</ele>
        <time>2019-07-02T09:17:37Z</time>
      </trkpt>
      <trkpt lat="50.459134541451931" lon="5.282595232129097">
        <ele>154.91999999999999</ele>
        <time>2019-07-02T09:17:47Z</time>
      </trkpt>
      <trkpt lat="50.459082322195172" lon="5.282634124159813">
        <ele>154.84</ele>
        <time>2019-07-02T09:17:51Z</time>
      </trkpt>
      <trkpt lat="50.458944942802191" lon="5.282729845494032">
        <ele>154.78999999999999</ele>
        <time>2019-07-02T09:17:58Z</time>
      </trkpt>
      <trkpt lat="50.458733886480331" lon="5.282911648973823">
        <ele>154.78</ele>
        <time>2019-07-02T09:18:11Z</time>
      </trkpt>
      <trkpt lat="50.458695581182837" lon="5.282953642308712">
        <ele>154.74000000000001</ele>
        <time>2019-07-02T09:18:22Z</time>
      </trkpt>
      <trkpt lat="50.45855987817049" lon="5.283111557364464">
        <ele>154.69999999999999</ele>
        <time>2019-07-02T09:18:40Z</time>
      </trkpt>
      <trkpt lat="50.458419313654304" lon="5.283265616744757">
        <ele>152.40000000000001</ele>
        <time>2019-07-02T09:18:54Z</time>
      </trkpt>
      <trkpt lat="50.458410261198878" lon="5.283287493512034">
        <ele>152.41</ele>
        <time>2019-07-02T09:18:55Z</time>
      </trkpt>
      <trkpt lat="50.458400202915072" lon="5.283300317823887">
        <ele>152.41999999999999</ele>
        <time>2019-07-02T09:18:56Z</time>
      </trkpt>
      <trkpt lat="50.458391485735774" lon="5.283310376107693">
        <ele>152.41</ele>
        <time>2019-07-02T09:18:57Z</time>
      </trkpt>
      <trkpt lat="50.458384528756142" lon="5.283321440219879">
        <ele>152.41</ele>
        <time>2019-07-02T09:18:58Z</time>
      </trkpt>
      <trkpt lat="50.45837564393878" lon="5.283330911770463">
        <ele>152.41999999999999</ele>
        <time>2019-07-02T09:18:59Z</time>
      </trkpt>
      <trkpt lat="50.458284197375178" lon="5.283423783257604">
        <ele>152.40000000000001</ele>
        <time>2019-07-02T09:19:10Z</time>
      </trkpt>
      <trkpt lat="50.458122929558158" lon="5.28357801027596">
        <ele>152.41</ele>
        <time>2019-07-02T09:19:22Z</time>
      </trkpt>
      <trkpt lat="50.458081103861332" lon="5.283639533445239">
        <ele>152.36000000000001</ele>
        <time>2019-07-02T09:20:02Z</time>
      </trkpt>
      <trkpt lat="50.457998709753156" lon="5.283719580620527">
        <ele>152.34</ele>
        <time>2019-07-02T09:20:25Z</time>
      </trkpt>
      <trkpt lat="50.457932827994227" lon="5.283730225637555">
        <ele>152.33000000000001</ele>
        <time>2019-07-02T09:20:45Z</time>
      </trkpt>
      <trkpt lat="50.457812966778874" lon="5.283812787383795">
        <ele>152.30000000000001</ele>
        <time>2019-07-02T09:21:00Z</time>
      </trkpt>
      <trkpt lat="50.457706432789564" lon="5.283844470977783">
        <ele>152.27000000000001</ele>
        <time>2019-07-02T09:21:12Z</time>
      </trkpt>
      <trkpt lat="50.457485318183899" lon="5.283752856776118">
        <ele>152.25</ele>
        <time>2019-07-02T09:21:29Z</time>
      </trkpt>
      <trkpt lat="50.457382723689079" lon="5.283701978623867">
        <ele>152.21000000000001</ele>
        <time>2019-07-02T09:21:38Z</time>
      </trkpt>
      <trkpt lat="50.457345843315125" lon="5.283695692196488">
        <ele>152.19999999999999</ele>
        <time>2019-07-02T09:21:41Z</time>
      </trkpt>
      <trkpt lat="50.457230675965548" lon="5.28366887010634">
        <ele>152.16</ele>
        <time>2019-07-02T09:21:49Z</time>
      </trkpt>
      <trkpt lat="50.457195220515132" lon="5.283654117956758">
        <ele>152.16</ele>
        <time>2019-07-02T09:21:51Z</time>
      </trkpt>
      <trkpt lat="50.457117687910795" lon="5.283620422706008">
        <ele>152.13</ele>
        <time>2019-07-02T09:21:57Z</time>
      </trkpt>
      <trkpt lat="50.456975698471069" lon="5.283534592017531">
        <ele>152.06999999999999</ele>
        <time>2019-07-02T09:22:08Z</time>
      </trkpt>
      <trkpt lat="50.456723822280765" lon="5.283440379425883">
        <ele>151.97999999999999</ele>
        <time>2019-07-02T09:22:24Z</time>
      </trkpt>
      <trkpt lat="50.45670798048377" lon="5.283421017229557">
        <ele>151.97999999999999</ele>
        <time>2019-07-02T09:22:25Z</time>
      </trkpt>
      <trkpt lat="50.456695575267076" lon="5.283407690003514">
        <ele>151.97</ele>
        <time>2019-07-02T09:22:26Z</time>
      </trkpt>
      <trkpt lat="50.456684427335858" lon="5.283397799357772">
        <ele>151.97</ele>
        <time>2019-07-02T09:22:27Z</time>
      </trkpt>
      <trkpt lat="50.456593818962574" lon="5.283329067751765">
        <ele>151.91</ele>
        <time>2019-07-02T09:22:35Z</time>
      </trkpt>
      <trkpt lat="50.456453086808324" lon="5.283175678923726">
        <ele>151.81999999999999</ele>
        <time>2019-07-02T09:22:48Z</time>
      </trkpt>
      <trkpt lat="50.456065256148577" lon="5.282789105549455">
        <ele>151.62</ele>
        <time>2019-07-02T09:23:19Z</time>
      </trkpt>
      <trkpt lat="50.456045307219028" lon="5.282770916819572">
        <ele>151.61000000000001</ele>
        <time>2019-07-02T09:23:20Z</time>
      </trkpt>
      <trkpt lat="50.455853780731559" lon="5.282435305416584">
        <ele>151.52000000000001</ele>
        <time>2019-07-02T09:23:37Z</time>
      </trkpt>
      <trkpt lat="50.455811452120543" lon="5.282370010390878">
        <ele>151.49000000000001</ele>
        <time>2019-07-02T09:23:42Z</time>
      </trkpt>
      <trkpt lat="50.455759819597006" lon="5.282268254086375">
        <ele>151.46000000000001</ele>
        <time>2019-07-02T09:23:47Z</time>
      </trkpt>
      <trkpt lat="50.455656219273806" lon="5.282141352072358">
        <ele>151.38</ele>
        <time>2019-07-02T09:24:02Z</time>
      </trkpt>
      <trkpt lat="50.455527221783996" lon="5.281893163919449">
        <ele>151.31999999999999</ele>
        <time>2019-07-02T09:24:14Z</time>
      </trkpt>
      <trkpt lat="50.455444073304534" lon="5.281663918867707">
        <ele>151.27000000000001</ele>
        <time>2019-07-02T09:24:27Z</time>
      </trkpt>
      <trkpt lat="50.455338880419731" lon="5.281434757634997">
        <ele>153.62</ele>
        <time>2019-07-02T09:24:38Z</time>
      </trkpt>
      <trkpt lat="50.455319685861468" lon="5.281389160081744">
        <ele>153.59999999999999</ele>
        <time>2019-07-02T09:24:40Z</time>
      </trkpt>
      <trkpt lat="50.45530267059803" lon="5.281375665217638">
        <ele>153.59999999999999</ele>
        <time>2019-07-02T09:24:41Z</time>
      </trkpt>
      <trkpt lat="50.455279452726245" lon="5.281341215595603">
        <ele>151.28999999999999</ele>
        <time>2019-07-02T09:24:43Z</time>
      </trkpt>
      <trkpt lat="50.455160932615399" lon="5.281047094613314">
        <ele>151.31</ele>
        <time>2019-07-02T09:24:59Z</time>
      </trkpt>
      <trkpt lat="50.455152718350291" lon="5.281025134027004">
        <ele>151.31999999999999</ele>
        <time>2019-07-02T09:25:00Z</time>
      </trkpt>
      <trkpt lat="50.455046100541949" lon="5.280710896477103">
        <ele>151.37</ele>
        <time>2019-07-02T09:25:17Z</time>
      </trkpt>
      <trkpt lat="50.455042077228427" lon="5.280683571472764">
        <ele>151.38</ele>
        <time>2019-07-02T09:25:18Z</time>
      </trkpt>
      <trkpt lat="50.454934118315578" lon="5.280277887359262">
        <ele>151.41999999999999</ele>
        <time>2019-07-02T09:25:36Z</time>
      </trkpt>
      <trkpt lat="50.454924898222089" lon="5.280258106067777">
        <ele>151.41999999999999</ele>
        <time>2019-07-02T09:25:37Z</time>
      </trkpt>
      <trkpt lat="50.454917270690203" lon="5.280235894024372">
        <ele>151.43000000000001</ele>
        <time>2019-07-02T09:25:38Z</time>
      </trkpt>
      <trkpt lat="50.454907966777682" lon="5.280211418867111">
        <ele>151.43000000000001</ele>
        <time>2019-07-02T09:25:39Z</time>
      </trkpt>
      <trkpt lat="50.454902518540621" lon="5.280186692252755">
        <ele>151.43000000000001</ele>
        <time>2019-07-02T09:25:40Z</time>
      </trkpt>
      <trkpt lat="50.454898159950972" lon="5.280168168246746">
        <ele>151.43000000000001</ele>
        <time>2019-07-02T09:25:41Z</time>
      </trkpt>
      <trkpt lat="50.454887179657817" lon="5.280093820765615">
        <ele>151.44999999999999</ele>
        <time>2019-07-02T09:25:50Z</time>
      </trkpt>
      <trkpt lat="50.454885754734278" lon="5.280075967311859">
        <ele>151.44999999999999</ele>
        <time>2019-07-02T09:25:51Z</time>
      </trkpt>
      <trkpt lat="50.454871924594045" lon="5.280003463849425">
        <ele>151.47</ele>
        <time>2019-07-02T09:25:55Z</time>
      </trkpt>
      <trkpt lat="50.454862453043461" lon="5.279978318139911">
        <ele>155.50999999999999</ele>
        <time>2019-07-02T09:25:57Z</time>
      </trkpt>
      <trkpt lat="50.454857675358653" lon="5.279967505484819">
        <ele>155.50999999999999</ele>
        <time>2019-07-02T09:25:58Z</time>
      </trkpt>
      <trkpt lat="50.454846862703562" lon="5.279935570433736">
        <ele>152.75999999999999</ele>
        <time>2019-07-02T09:26:00Z</time>
      </trkpt>
      <trkpt lat="50.454790787771344" lon="5.279805231839418">
        <ele>152.81</ele>
        <time>2019-07-02T09:26:11Z</time>
      </trkpt>
      <trkpt lat="50.454676877707243" lon="5.279663158580661">
        <ele>152.84</ele>
        <time>2019-07-02T09:26:21Z</time>
      </trkpt>
      <trkpt lat="50.454665226861835" lon="5.27964505366981">
        <ele>152.84</ele>
        <time>2019-07-02T09:26:22Z</time>
      </trkpt>
      <trkpt lat="50.454431874677539" lon="5.279267197474837">
        <ele>152.90000000000001</ele>
        <time>2019-07-02T09:26:52Z</time>
      </trkpt>
      <trkpt lat="50.454308660700917" lon="5.279113221913576">
        <ele>152.90000000000001</ele>
        <time>2019-07-02T09:27:06Z</time>
      </trkpt>
      <trkpt lat="50.454215034842491" lon="5.279007107019424">
        <ele>152.90000000000001</ele>
        <time>2019-07-02T09:27:14Z</time>
      </trkpt>
      <trkpt lat="50.453995931893587" lon="5.278694210574031">
        <ele>150</ele>
        <time>2019-07-02T09:27:34Z</time>
      </trkpt>
      <trkpt lat="50.45398578979075" lon="5.278679458424449">
        <ele>155.52000000000001</ele>
        <time>2019-07-02T09:27:35Z</time>
      </trkpt>
      <trkpt lat="50.453967433422804" lon="5.278666047379375">
        <ele>155.50999999999999</ele>
        <time>2019-07-02T09:27:36Z</time>
      </trkpt>
      <trkpt lat="50.453942371532321" lon="5.27863796800375">
        <ele>152.78999999999999</ele>
        <time>2019-07-02T09:27:38Z</time>
      </trkpt>
      <trkpt lat="50.453841956332326" lon="5.278473682701588">
        <ele>152.74000000000001</ele>
        <time>2019-07-02T09:27:48Z</time>
      </trkpt>
      <trkpt lat="50.453826701268554" lon="5.278460355475545">
        <ele>152.72</ele>
        <time>2019-07-02T09:27:49Z</time>
      </trkpt>
      <trkpt lat="50.453626960515976" lon="5.278198169544339">
        <ele>152.59999999999999</ele>
        <time>2019-07-02T09:28:07Z</time>
      </trkpt>
      <trkpt lat="50.453471811488271" lon="5.278116194531322">
        <ele>152.47</ele>
        <time>2019-07-02T09:28:20Z</time>
      </trkpt>
      <trkpt lat="50.453295707702637" lon="5.278051905333996">
        <ele>152.36000000000001</ele>
        <time>2019-07-02T09:28:30Z</time>
      </trkpt>
      <trkpt lat="50.453278692439198" lon="5.278042936697602">
        <ele>152.34999999999999</ele>
        <time>2019-07-02T09:28:31Z</time>
      </trkpt>
      <trkpt lat="50.45324650593102" lon="5.278031872585416">
        <ele>152.33000000000001</ele>
        <time>2019-07-02T09:28:33Z</time>
      </trkpt>
      <trkpt lat="50.453179366886616" lon="5.278029190376401">
        <ele>152.27000000000001</ele>
        <time>2019-07-02T09:28:38Z</time>
      </trkpt>
      <trkpt lat="50.452845767140388" lon="5.278000691905618">
        <ele>152.06999999999999</ele>
        <time>2019-07-02T09:28:58Z</time>
      </trkpt>
      <trkpt lat="50.452812993898988" lon="5.278003960847855">
        <ele>152.05000000000001</ele>
        <time>2019-07-02T09:29:00Z</time>
      </trkpt>
      <trkpt lat="50.452679302543402" lon="5.27799884788692">
        <ele>151.96000000000001</ele>
        <time>2019-07-02T09:29:10Z</time>
      </trkpt>
      <trkpt lat="50.452636303380132" lon="5.278008487075567">
        <ele>151.94</ele>
        <time>2019-07-02T09:29:13Z</time>
      </trkpt>
      <trkpt lat="50.452549299225211" lon="5.27802768163383">
        <ele>151.86000000000001</ele>
        <time>2019-07-02T09:29:22Z</time>
      </trkpt>
      <trkpt lat="50.452565643936396" lon="5.278040505945683">
        <ele>151.61000000000001</ele>
        <time>2019-07-02T09:29:51Z</time>
      </trkpt>
      <trkpt lat="50.452451147139072" lon="5.278144525364041">
        <ele>151.03999999999999</ele>
        <time>2019-07-02T09:32:44Z</time>
      </trkpt>
      <trkpt lat="50.452438993379474" lon="5.278117284178734">
        <ele>152.83000000000001</ele>
        <time>2019-07-02T09:32:47Z</time>
      </trkpt>
      <trkpt lat="50.45236456207931" lon="5.278141004964709">
        <ele>153.06</ele>
        <time>2019-07-02T09:33:11Z</time>
      </trkpt>
      <trkpt lat="50.452255010604858" lon="5.278169251978397">
        <ele>153.19999999999999</ele>
        <time>2019-07-02T09:33:27Z</time>
      </trkpt>
      <trkpt lat="50.45214805752039" lon="5.278189787641168">
        <ele>154.06999999999999</ele>
        <time>2019-07-02T09:33:38Z</time>
      </trkpt>
      <trkpt lat="50.452096005901694" lon="5.278195822611451">
        <ele>154.09999999999999</ele>
        <time>2019-07-02T09:33:43Z</time>
      </trkpt>
      <trkpt lat="50.452085696160793" lon="5.278198253363371">
        <ele>154.11000000000001</ele>
        <time>2019-07-02T09:33:44Z</time>
      </trkpt>
      <trkpt lat="50.451922500506043" lon="5.278272265568376">
        <ele>154.96000000000001</ele>
        <time>2019-07-02T09:33:56Z</time>
      </trkpt>
      <trkpt lat="50.451913448050618" lon="5.278279474005103">
        <ele>154.97</ele>
        <time>2019-07-02T09:33:57Z</time>
      </trkpt>
      <trkpt lat="50.451816217973828" lon="5.278390366584063">
        <ele>155.78999999999999</ele>
        <time>2019-07-02T09:34:08Z</time>
      </trkpt>
      <trkpt lat="50.451658889651299" lon="5.278432024642825">
        <ele>157.56</ele>
        <time>2019-07-02T09:34:19Z</time>
      </trkpt>
      <trkpt lat="50.451533496379852" lon="5.278465552255511">
        <ele>157.59</ele>
        <time>2019-07-02T09:34:27Z</time>
      </trkpt>
      <trkpt lat="50.451466022059321" lon="5.278405705466867">
        <ele>157.62</ele>
        <time>2019-07-02T09:34:34Z</time>
      </trkpt>
      <trkpt lat="50.451463088393211" lon="5.278386510908604">
        <ele>157.63</ele>
        <time>2019-07-02T09:34:35Z</time>
      </trkpt>
      <trkpt lat="50.451406594365835" lon="5.278310403227806">
        <ele>157.66</ele>
        <time>2019-07-02T09:34:50Z</time>
      </trkpt>
      <trkpt lat="50.451171230524778" lon="5.277915950864554">
        <ele>157.44999999999999</ele>
        <time>2019-07-02T09:35:16Z</time>
      </trkpt>
      <trkpt lat="50.451167123392224" lon="5.277900276705623">
        <ele>157.46000000000001</ele>
        <time>2019-07-02T09:35:17Z</time>
      </trkpt>
      <trkpt lat="50.45112295076251" lon="5.277787959203124">
        <ele>157.5</ele>
        <time>2019-07-02T09:35:24Z</time>
      </trkpt>
      <trkpt lat="50.451105432584882" lon="5.277716210111976">
        <ele>157.52000000000001</ele>
        <time>2019-07-02T09:35:28Z</time>
      </trkpt>
      <trkpt lat="50.450978530570865" lon="5.277628032490611">
        <ele>157.69999999999999</ele>
        <time>2019-07-02T09:35:51Z</time>
      </trkpt>
      <trkpt lat="50.450854981318116" lon="5.277574388310313">
        <ele>159.78</ele>
        <time>2019-07-02T09:36:01Z</time>
      </trkpt>
      <trkpt lat="50.450802175328135" lon="5.277532478794456">
        <ele>161.56</ele>
        <time>2019-07-02T09:36:07Z</time>
      </trkpt>
      <trkpt lat="50.450795637443662" lon="5.277515379711986">
        <ele>162.36000000000001</ele>
        <time>2019-07-02T09:36:08Z</time>
      </trkpt>
      <trkpt lat="50.450785998255014" lon="5.277503142133355">
        <ele>162.36000000000001</ele>
        <time>2019-07-02T09:36:09Z</time>
      </trkpt>
      <trkpt lat="50.450766803696752" lon="5.277493000030518">
        <ele>163.27000000000001</ele>
        <time>2019-07-02T09:36:10Z</time>
      </trkpt>
      <trkpt lat="50.450746016576886" lon="5.277503728866577">
        <ele>164.52000000000001</ele>
        <time>2019-07-02T09:36:13Z</time>
      </trkpt>
      <trkpt lat="50.450630765408278" lon="5.277464669197798">
        <ele>173.40000000000001</ele>
        <time>2019-07-02T09:36:59Z</time>
      </trkpt>
      <trkpt lat="50.450607296079397" lon="5.277434326708317">
        <ele>169.69999999999999</ele>
        <time>2019-07-02T09:37:11Z</time>
      </trkpt>
      <trkpt lat="50.450605032965541" lon="5.277431476861239">
        <ele>174.46000000000001</ele>
        <time>2019-07-02T09:37:13Z</time>
      </trkpt>
      <trkpt lat="50.450605368241668" lon="5.277430973947048">
        <ele>174.46000000000001</ele>
        <time>2019-07-02T09:37:14Z</time>
      </trkpt>
      <trkpt lat="50.45056102797389" lon="5.277479840442538">
        <ele>173.86000000000001</ele>
        <time>2019-07-02T09:37:46Z</time>
      </trkpt>
      <trkpt lat="50.450535798445344" lon="5.27744865976274">
        <ele>174.03999999999999</ele>
        <time>2019-07-02T09:38:14Z</time>
      </trkpt>
      <trkpt lat="50.45050973072648" lon="5.277438266202807">
        <ele>174.19</ele>
        <time>2019-07-02T09:38:39Z</time>
      </trkpt>
      <trkpt lat="50.450462624430656" lon="5.277430722489953">
        <ele>175.31999999999999</ele>
        <time>2019-07-02T09:38:43Z</time>
      </trkpt>
      <trkpt lat="50.450452482327819" lon="5.277427202090621">
        <ele>175.47</ele>
        <time>2019-07-02T09:38:44Z</time>
      </trkpt>
      <trkpt lat="50.45043982565403" lon="5.277424938976765">
        <ele>175.33000000000001</ele>
        <time>2019-07-02T09:38:45Z</time>
      </trkpt>
      <trkpt lat="50.450333710759878" lon="5.277363583445549">
        <ele>178.87</ele>
        <time>2019-07-02T09:38:55Z</time>
      </trkpt>
      <trkpt lat="50.450269002467394" lon="5.277380766347051">
        <ele>182.59</ele>
        <time>2019-07-02T09:39:03Z</time>
      </trkpt>
      <trkpt lat="50.450253579765558" lon="5.277394931763411">
        <ele>182.88</ele>
        <time>2019-07-02T09:39:04Z</time>
      </trkpt>
      <trkpt lat="50.450194738805294" lon="5.277447151020169">
        <ele>186.13999999999999</ele>
        <time>2019-07-02T09:39:10Z</time>
      </trkpt>
      <trkpt lat="50.450150733813643" lon="5.277473973110318">
        <ele>187.63999999999999</ele>
        <time>2019-07-02T09:39:13Z</time>
      </trkpt>
      <trkpt lat="50.450136819854379" lon="5.277485707774758">
        <ele>188.00999999999999</ele>
        <time>2019-07-02T09:39:14Z</time>
      </trkpt>
      <trkpt lat="50.450032129883766" lon="5.277528204023838">
        <ele>190.13999999999999</ele>
        <time>2019-07-02T09:39:18Z</time>
      </trkpt>
      <trkpt lat="50.449873292818666" lon="5.27758008800447">
        <ele>193.24000000000001</ele>
        <time>2019-07-02T09:39:26Z</time>
      </trkpt>
      <trkpt lat="50.449779583141208" lon="5.277613867074251">
        <ele>193.74000000000001</ele>
        <time>2019-07-02T09:39:40Z</time>
      </trkpt>
      <trkpt lat="50.449778409674764" lon="5.277636079117656">
        <ele>194.5</ele>
        <time>2019-07-02T09:39:41Z</time>
      </trkpt>
      <trkpt lat="50.449780253693461" lon="5.277653513476253">
        <ele>194.47</ele>
        <time>2019-07-02T09:39:42Z</time>
      </trkpt>
      <trkpt lat="50.449779247865081" lon="5.277675474062562">
        <ele>194.33000000000001</ele>
        <time>2019-07-02T09:39:43Z</time>
      </trkpt>
      <trkpt lat="50.449779415503144" lon="5.277696596458554">
        <ele>194.38</ele>
        <time>2019-07-02T09:39:44Z</time>
      </trkpt>
      <trkpt lat="50.449781510978937" lon="5.277718892320991">
        <ele>194.33000000000001</ele>
        <time>2019-07-02T09:39:45Z</time>
      </trkpt>
      <trkpt lat="50.449836077168584" lon="5.278086019679904">
        <ele>194.22</ele>
        <time>2019-07-02T09:40:02Z</time>
      </trkpt>
      <trkpt lat="50.449876729398966" lon="5.278442921116948">
        <ele>194.30000000000001</ele>
        <time>2019-07-02T09:40:21Z</time>
      </trkpt>
      <trkpt lat="50.449890978634357" lon="5.278743077069521">
        <ele>192.06</ele>
        <time>2019-07-02T09:40:37Z</time>
      </trkpt>
      <trkpt lat="50.449904473498464" lon="5.278905853629112">
        <ele>191.09</ele>
        <time>2019-07-02T09:40:46Z</time>
      </trkpt>
      <trkpt lat="50.449899360537529" lon="5.27921698987484">
        <ele>189.56</ele>
        <time>2019-07-02T09:41:01Z</time>
      </trkpt>
      <trkpt lat="50.449891733005643" lon="5.279312459751964">
        <ele>188.68000000000001</ele>
        <time>2019-07-02T09:41:06Z</time>
      </trkpt>
      <trkpt lat="50.449888296425343" lon="5.279335007071495">
        <ele>188.78</ele>
        <time>2019-07-02T09:41:07Z</time>
      </trkpt>
      <trkpt lat="50.449880752712488" lon="5.279363673180342">
        <ele>188.69</ele>
        <time>2019-07-02T09:41:08Z</time>
      </trkpt>
      <trkpt lat="50.44988133944571" lon="5.27947842143476">
        <ele>186.16</ele>
        <time>2019-07-02T09:41:14Z</time>
      </trkpt>
      <trkpt lat="50.449881087988615" lon="5.279769022017717">
        <ele>186.19999999999999</ele>
        <time>2019-07-02T09:41:28Z</time>
      </trkpt>
      <trkpt lat="50.449866587296128" lon="5.280029615387321">
        <ele>186.19999999999999</ele>
        <time>2019-07-02T09:41:42Z</time>
      </trkpt>
      <trkpt lat="50.449806824326515" lon="5.280277971178293">
        <ele>185.46000000000001</ele>
        <time>2019-07-02T09:41:55Z</time>
      </trkpt>
      <trkpt lat="50.449806656688452" lon="5.280341925099492">
        <ele>185.41999999999999</ele>
        <time>2019-07-02T09:41:59Z</time>
      </trkpt>
      <trkpt lat="50.449802046641707" lon="5.280390288680792">
        <ele>185.41999999999999</ele>
        <time>2019-07-02T09:42:01Z</time>
      </trkpt>
      <trkpt lat="50.449794000014663" lon="5.280415685847402">
        <ele>185.44</ele>
        <time>2019-07-02T09:42:02Z</time>
      </trkpt>
      <trkpt lat="50.449790395796299" lon="5.280437562614679">
        <ele>185.43000000000001</ele>
        <time>2019-07-02T09:42:03Z</time>
      </trkpt>
      <trkpt lat="50.449750833213329" lon="5.280617857351899">
        <ele>184.63999999999999</ele>
        <time>2019-07-02T09:42:13Z</time>
      </trkpt>
      <trkpt lat="50.449678413569927" lon="5.281083304435015">
        <ele>180.84999999999999</ele>
        <time>2019-07-02T09:42:33Z</time>
      </trkpt>
      <trkpt lat="50.449673971161246" lon="5.281105181202292">
        <ele>180.78</ele>
        <time>2019-07-02T09:42:34Z</time>
      </trkpt>
      <trkpt lat="50.449576573446393" lon="5.281448252499104">
        <ele>178.25</ele>
        <time>2019-07-02T09:42:58Z</time>
      </trkpt>
      <trkpt lat="50.449461406096816" lon="5.281622093170881">
        <ele>175.59999999999999</ele>
        <time>2019-07-02T09:43:10Z</time>
      </trkpt>
      <trkpt lat="50.449237190186977" lon="5.281820660457015">
        <ele>173</ele>
        <time>2019-07-02T09:43:28Z</time>
      </trkpt>
      <trkpt lat="50.449030408635736" lon="5.281971031799913">
        <ele>170.83000000000001</ele>
        <time>2019-07-02T09:43:46Z</time>
      </trkpt>
      <trkpt lat="50.448794290423393" lon="5.282184267416596">
        <ele>170.19999999999999</ele>
        <time>2019-07-02T09:44:05Z</time>
      </trkpt>
      <trkpt lat="50.448526069521904" lon="5.28243413195014">
        <ele>169.38999999999999</ele>
        <time>2019-07-02T09:44:23Z</time>
      </trkpt>
      <trkpt lat="50.448377961292863" lon="5.282547120004892">
        <ele>169.43000000000001</ele>
        <time>2019-07-02T09:44:37Z</time>
      </trkpt>
      <trkpt lat="50.44820730574429" lon="5.282699083909392">
        <ele>169.44</ele>
        <time>2019-07-02T09:44:54Z</time>
      </trkpt>
      <trkpt lat="50.448166904971004" lon="5.282730516046286">
        <ele>169.43000000000001</ele>
        <time>2019-07-02T09:44:57Z</time>
      </trkpt>
      <trkpt lat="50.448112254962325" lon="5.282778711989522">
        <ele>169.41999999999999</ele>
        <time>2019-07-02T09:45:00Z</time>
      </trkpt>
      <trkpt lat="50.448089707642794" lon="5.282803187146783">
        <ele>169.41</ele>
        <time>2019-07-02T09:45:01Z</time>
      </trkpt>
      <trkpt lat="50.447912514209747" lon="5.282992031425238">
        <ele>169.41</ele>
        <time>2019-07-02T09:45:15Z</time>
      </trkpt>
      <trkpt lat="50.447886446490884" lon="5.283037796616554">
        <ele>168.47</ele>
        <time>2019-07-02T09:45:18Z</time>
      </trkpt>
      <trkpt lat="50.44782274402678" lon="5.283136200159788">
        <ele>168.46000000000001</ele>
        <time>2019-07-02T09:45:23Z</time>
      </trkpt>
      <trkpt lat="50.447756862267852" lon="5.283245500177145">
        <ele>167.69999999999999</ele>
        <time>2019-07-02T09:45:28Z</time>
      </trkpt>
      <trkpt lat="50.44773037545383" lon="5.283286739140749">
        <ele>166.72999999999999</ele>
        <time>2019-07-02T09:45:31Z</time>
      </trkpt>
      <trkpt lat="50.447703301906586" lon="5.283321943134069">
        <ele>166.84</ele>
        <time>2019-07-02T09:45:34Z</time>
      </trkpt>
      <trkpt lat="50.447696764022112" lon="5.283333929255605">
        <ele>166.75</ele>
        <time>2019-07-02T09:45:35Z</time>
      </trkpt>
      <trkpt lat="50.447684107348323" lon="5.283366953954101">
        <ele>165.96000000000001</ele>
        <time>2019-07-02T09:45:36Z</time>
      </trkpt>
      <trkpt lat="50.447658877819777" lon="5.283416407182813">
        <ele>166.05000000000001</ele>
        <time>2019-07-02T09:45:39Z</time>
      </trkpt>
      <trkpt lat="50.447651669383049" lon="5.283430069684982">
        <ele>165.94</ele>
        <time>2019-07-02T09:45:40Z</time>
      </trkpt>
      <trkpt lat="50.447566090151668" lon="5.28366887010634">
        <ele>165.22999999999999</ele>
        <time>2019-07-02T09:45:57Z</time>
      </trkpt>
      <trkpt lat="50.447537507861853" lon="5.283721927553415">
        <ele>165.24000000000001</ele>
        <time>2019-07-02T09:46:04Z</time>
      </trkpt>
      <trkpt lat="50.447535496205091" lon="5.283760903403163">
        <ele>165.21000000000001</ele>
        <time>2019-07-02T09:46:12Z</time>
      </trkpt>
      <trkpt lat="50.447526527568698" lon="5.283795772120357">
        <ele>165.22999999999999</ele>
        <time>2019-07-02T09:46:13Z</time>
      </trkpt>
      <trkpt lat="50.44752225279808" lon="5.283826114609838">
        <ele>165.22999999999999</ele>
        <time>2019-07-02T09:46:14Z</time>
      </trkpt>
      <trkpt lat="50.447522085160017" lon="5.283897528424859">
        <ele>165.19999999999999</ele>
        <time>2019-07-02T09:46:16Z</time>
      </trkpt>
      <trkpt lat="50.447528371587396" lon="5.283922674134374">
        <ele>165.19999999999999</ele>
        <time>2019-07-02T09:46:17Z</time>
      </trkpt>
      <trkpt lat="50.447534490376711" lon="5.283954022452235">
        <ele>165.22</ele>
        <time>2019-07-02T09:46:18Z</time>
      </trkpt>
      <trkpt lat="50.447569442912936" lon="5.284030297771096">
        <ele>165.19</ele>
        <time>2019-07-02T09:46:22Z</time>
      </trkpt>
      <trkpt lat="50.447601797059178" lon="5.284120487049222">
        <ele>164.52000000000001</ele>
        <time>2019-07-02T09:48:00Z</time>
      </trkpt>
      <trkpt lat="50.447594337165356" lon="5.284151332452893">
        <ele>164.50999999999999</ele>
        <time>2019-07-02T09:48:02Z</time>
      </trkpt>
      <trkpt lat="50.447592157870531" lon="5.284164827316999">
        <ele>164.50999999999999</ele>
        <time>2019-07-02T09:48:03Z</time>
      </trkpt>
      <trkpt lat="50.447577321901917" lon="5.284365322440863">
        <ele>164.46000000000001</ele>
        <time>2019-07-02T09:48:17Z</time>
      </trkpt>
      <trkpt lat="50.447575645521283" lon="5.284656761214137">
        <ele>164.41999999999999</ele>
        <time>2019-07-02T09:48:37Z</time>
      </trkpt>
      <trkpt lat="50.447512278333306" lon="5.284906793385744">
        <ele>164.31</ele>
        <time>2019-07-02T09:48:49Z</time>
      </trkpt>
      <trkpt lat="50.447490150108933" lon="5.285200076177716">
        <ele>164.25999999999999</ele>
        <time>2019-07-02T09:49:00Z</time>
      </trkpt>
      <trkpt lat="50.447470955550671" lon="5.285304514691234">
        <ele>164.25999999999999</ele>
        <time>2019-07-02T09:49:03Z</time>
      </trkpt>
      <trkpt lat="50.447462154552341" lon="5.28533611446619">
        <ele>164.25</ele>
        <time>2019-07-02T09:49:04Z</time>
      </trkpt>
      <trkpt lat="50.447462238371372" lon="5.285354219377041">
        <ele>164.25</ele>
        <time>2019-07-02T09:49:05Z</time>
      </trkpt>
      <trkpt lat="50.447454107925296" lon="5.285517750307918">
        <ele>164.21000000000001</ele>
        <time>2019-07-02T09:49:13Z</time>
      </trkpt>
      <trkpt lat="50.447404067963362" lon="5.286240186542273">
        <ele>163.71000000000001</ele>
        <time>2019-07-02T09:49:42Z</time>
      </trkpt>
      <trkpt lat="50.447407839819789" lon="5.286266589537263">
        <ele>163.72</ele>
        <time>2019-07-02T09:49:43Z</time>
      </trkpt>
      <trkpt lat="50.447408678010106" lon="5.286289807409048">
        <ele>163.71000000000001</ele>
        <time>2019-07-02T09:49:44Z</time>
      </trkpt>
      <trkpt lat="50.447416389361024" lon="5.286420732736588">
        <ele>163.69</ele>
        <time>2019-07-02T09:49:49Z</time>
      </trkpt>
      <trkpt lat="50.447415634989738" lon="5.286448057740927">
        <ele>163.68000000000001</ele>
        <time>2019-07-02T09:49:50Z</time>
      </trkpt>
      <trkpt lat="50.447416305541992" lon="5.286470856517553">
        <ele>163.68000000000001</ele>
        <time>2019-07-02T09:49:51Z</time>
      </trkpt>
      <trkpt lat="50.447426363825798" lon="5.286658024415374">
        <ele>163.62</ele>
        <time>2019-07-02T09:50:00Z</time>
      </trkpt>
      <trkpt lat="50.447416892275214" lon="5.286736143752933">
        <ele>163.59</ele>
        <time>2019-07-02T09:50:03Z</time>
      </trkpt>
      <trkpt lat="50.44740348123014" lon="5.286783250048757">
        <ele>163.59999999999999</ele>
        <time>2019-07-02T09:50:04Z</time>
      </trkpt>
      <trkpt lat="50.447404319420457" lon="5.286803031340241">
        <ele>163.59</ele>
        <time>2019-07-02T09:50:05Z</time>
      </trkpt>
      <trkpt lat="50.447410689666867" lon="5.28681761585176">
        <ele>163.58000000000001</ele>
        <time>2019-07-02T09:50:06Z</time>
      </trkpt>
      <trkpt lat="50.447420161217451" lon="5.286852484568954">
        <ele>163.58000000000001</ele>
        <time>2019-07-02T09:50:07Z</time>
      </trkpt>
      <trkpt lat="50.447409097105265" lon="5.287014925852418">
        <ele>163.53999999999999</ele>
        <time>2019-07-02T09:50:14Z</time>
      </trkpt>
      <trkpt lat="50.447390405461192" lon="5.287061780691147">
        <ele>163.53</ele>
        <time>2019-07-02T09:50:18Z</time>
      </trkpt>
      <trkpt lat="50.447385795414448" lon="5.287082316353917">
        <ele>163.53</ele>
        <time>2019-07-02T09:50:19Z</time>
      </trkpt>
      <trkpt lat="50.447375820949674" lon="5.287102600559592">
        <ele>163.52000000000001</ele>
        <time>2019-07-02T09:50:20Z</time>
      </trkpt>
      <trkpt lat="50.447371965274215" lon="5.287126824259758">
        <ele>163.52000000000001</ele>
        <time>2019-07-02T09:50:21Z</time>
      </trkpt>
      <trkpt lat="50.447336090728641" lon="5.287304520606995">
        <ele>163.5</ele>
        <time>2019-07-02T09:50:29Z</time>
      </trkpt>
      <trkpt lat="50.447300551459193" lon="5.287441648542881">
        <ele>163.47999999999999</ele>
        <time>2019-07-02T09:50:41Z</time>
      </trkpt>
      <trkpt lat="50.447156298905611" lon="5.287700816988945">
        <ele>161.59</ele>
        <time>2019-07-02T09:51:02Z</time>
      </trkpt>
      <trkpt lat="50.447084801271558" lon="5.287758149206638">
        <ele>161.53</ele>
        <time>2019-07-02T09:51:07Z</time>
      </trkpt>
      <trkpt lat="50.447066780179739" lon="5.287764267995954">
        <ele>161.53</ele>
        <time>2019-07-02T09:51:08Z</time>
      </trkpt>
      <trkpt lat="50.44704046100378" lon="5.287779439240694">
        <ele>161.50999999999999</ele>
        <time>2019-07-02T09:51:09Z</time>
      </trkpt>
      <trkpt lat="50.447005927562714" lon="5.287804584950209">
        <ele>161.5</ele>
        <time>2019-07-02T09:51:10Z</time>
      </trkpt>
      <trkpt lat="50.446984469890594" lon="5.287812799215317">
        <ele>161.5</ele>
        <time>2019-07-02T09:51:11Z</time>
      </trkpt>
      <trkpt lat="50.446966113522649" lon="5.287815229967237">
        <ele>161.49000000000001</ele>
        <time>2019-07-02T09:51:12Z</time>
      </trkpt>
      <trkpt lat="50.446951277554035" lon="5.287807686254382">
        <ele>161.47999999999999</ele>
        <time>2019-07-02T09:51:13Z</time>
      </trkpt>
      <trkpt lat="50.446934010833502" lon="5.287801148369908">
        <ele>161.5</ele>
        <time>2019-07-02T09:51:14Z</time>
      </trkpt>
      <trkpt lat="50.446771318092942" lon="5.287580201402307">
        <ele>161.55000000000001</ele>
        <time>2019-07-02T09:51:30Z</time>
      </trkpt>
      <trkpt lat="50.446766959503293" lon="5.287557989358902">
        <ele>161.56</ele>
        <time>2019-07-02T09:51:31Z</time>
      </trkpt>
      <trkpt lat="50.446759667247534" lon="5.287538794800639">
        <ele>161.56</ele>
        <time>2019-07-02T09:51:32Z</time>
      </trkpt>
      <trkpt lat="50.446752794086933" lon="5.287517923861742">
        <ele>161.56</ele>
        <time>2019-07-02T09:51:33Z</time>
      </trkpt>
      <trkpt lat="50.446739885956049" lon="5.287455227226019">
        <ele>167.24000000000001</ele>
        <time>2019-07-02T09:51:36Z</time>
      </trkpt>
      <trkpt lat="50.446734270080924" lon="5.287429410964251">
        <ele>164.56999999999999</ele>
        <time>2019-07-02T09:51:37Z</time>
      </trkpt>
      <trkpt lat="50.4467165004462" lon="5.287407366558909">
        <ele>162.16999999999999</ele>
        <time>2019-07-02T09:51:40Z</time>
      </trkpt>
      <trkpt lat="50.446622455492616" lon="5.287291612476111">
        <ele>164.28999999999999</ele>
        <time>2019-07-02T09:51:50Z</time>
      </trkpt>
      <trkpt lat="50.446597477421165" lon="5.287305945530534">
        <ele>164.25</ele>
        <time>2019-07-02T09:51:51Z</time>
      </trkpt>
      <trkpt lat="50.446582389995456" lon="5.287310387939215">
        <ele>164.25999999999999</ele>
        <time>2019-07-02T09:51:52Z</time>
      </trkpt>
      <trkpt lat="50.446559507399797" lon="5.287319691851735">
        <ele>164.28</ele>
        <time>2019-07-02T09:51:53Z</time>
      </trkpt>
      <trkpt lat="50.446540648117661" lon="5.28732187114656">
        <ele>164.33000000000001</ele>
        <time>2019-07-02T09:51:54Z</time>
      </trkpt>
      <trkpt lat="50.446524890139699" lon="5.287318183109164">
        <ele>164.30000000000001</ele>
        <time>2019-07-02T09:51:55Z</time>
      </trkpt>
      <trkpt lat="50.446423469111323" lon="5.287356488406658">
        <ele>164.30000000000001</ele>
        <time>2019-07-02T09:52:02Z</time>
      </trkpt>
      <trkpt lat="50.446412656456232" lon="5.287368558347225">
        <ele>164.30000000000001</ele>
        <time>2019-07-02T09:52:03Z</time>
      </trkpt>
      <trkpt lat="50.446404777467251" lon="5.287378700450063">
        <ele>164.30000000000001</ele>
        <time>2019-07-02T09:52:04Z</time>
      </trkpt>
      <trkpt lat="50.446294974535704" lon="5.287557570263743">
        <ele>164.36000000000001</ele>
        <time>2019-07-02T09:52:20Z</time>
      </trkpt>
      <trkpt lat="50.4462088085711" lon="5.287598893046379">
        <ele>164.38</ele>
        <time>2019-07-02T09:52:33Z</time>
      </trkpt>
      <trkpt lat="50.446217358112335" lon="5.287565533071756">
        <ele>162.77000000000001</ele>
        <time>2019-07-02T09:54:00Z</time>
      </trkpt>
      <trkpt lat="50.446191877126694" lon="5.287604676559568">
        <ele>168.12</ele>
        <time>2019-07-02T09:57:40Z</time>
      </trkpt>
      <trkpt lat="50.446123899891973" lon="5.28761456720531">
        <ele>166.06</ele>
        <time>2019-07-02T09:58:01Z</time>
      </trkpt>
      <trkpt lat="50.446124905720353" lon="5.287605095654726">
        <ele>166.09</ele>
        <time>2019-07-02T09:58:02Z</time>
      </trkpt>
      <trkpt lat="50.446090707555413" lon="5.287570646032691">
        <ele>166.78999999999999</ele>
        <time>2019-07-02T09:58:47Z</time>
      </trkpt>
      <trkpt lat="50.446006553247571" lon="5.287497388198972">
        <ele>167.02000000000001</ele>
        <time>2019-07-02T09:59:01Z</time>
      </trkpt>
      <trkpt lat="50.445760628208518" lon="5.287108384072781">
        <ele>169.74000000000001</ele>
        <time>2019-07-02T09:59:24Z</time>
      </trkpt>
      <trkpt lat="50.445712516084313" lon="5.287001598626375">
        <ele>169.83000000000001</ele>
        <time>2019-07-02T09:59:29Z</time>
      </trkpt>
      <trkpt lat="50.445619644597173" lon="5.286857262253761">
        <ele>171.37</ele>
        <time>2019-07-02T10:00:10Z</time>
      </trkpt>
      <trkpt lat="50.445450497791171" lon="5.286753913387656">
        <ele>171.69999999999999</ele>
        <time>2019-07-02T10:00:27Z</time>
      </trkpt>
      <trkpt lat="50.445413114503026" lon="5.28672038577497">
        <ele>171.72</ele>
        <time>2019-07-02T10:00:29Z</time>
      </trkpt>
      <trkpt lat="50.44539961963892" lon="5.286708902567625">
        <ele>172.52000000000001</ele>
        <time>2019-07-02T10:00:30Z</time>
      </trkpt>
      <trkpt lat="50.445286715403199" lon="5.286539839580655">
        <ele>172.66999999999999</ele>
        <time>2019-07-02T10:00:38Z</time>
      </trkpt>
      <trkpt lat="50.445272549986839" lon="5.286530368030071">
        <ele>172.69</ele>
        <time>2019-07-02T10:00:39Z</time>
      </trkpt>
      <trkpt lat="50.445260982960463" lon="5.286522405222058">
        <ele>172.69999999999999</ele>
        <time>2019-07-02T10:00:40Z</time>
      </trkpt>
      <trkpt lat="50.445247404277325" lon="5.286511173471808">
        <ele>172.72999999999999</ele>
        <time>2019-07-02T10:00:41Z</time>
      </trkpt>
      <trkpt lat="50.445228293538094" lon="5.286498768255115">
        <ele>172.74000000000001</ele>
        <time>2019-07-02T10:00:42Z</time>
      </trkpt>
      <trkpt lat="50.445205913856626" lon="5.286493236199021">
        <ele>172.75999999999999</ele>
        <time>2019-07-02T10:00:43Z</time>
      </trkpt>
      <trkpt lat="50.445186467841268" lon="5.28648435138166">
        <ele>173.81</ele>
        <time>2019-07-02T10:00:44Z</time>
      </trkpt>
      <trkpt lat="50.445152521133423" lon="5.286461217328906">
        <ele>173.81999999999999</ele>
        <time>2019-07-02T10:00:46Z</time>
      </trkpt>
      <trkpt lat="50.445129303261638" lon="5.286437664180994">
        <ele>173.86000000000001</ele>
        <time>2019-07-02T10:00:47Z</time>
      </trkpt>
      <trkpt lat="50.445102984085679" lon="5.286418553441763">
        <ele>173.88</ele>
        <time>2019-07-02T10:00:48Z</time>
      </trkpt>
      <trkpt lat="50.444734934717417" lon="5.286208083853126">
        <ele>177.53</ele>
        <time>2019-07-02T10:01:01Z</time>
      </trkpt>
      <trkpt lat="50.444612307474017" lon="5.286169778555632">
        <ele>178.56</ele>
        <time>2019-07-02T10:01:07Z</time>
      </trkpt>
      <trkpt lat="50.44459730386734" lon="5.286162234842777">
        <ele>178.56</ele>
        <time>2019-07-02T10:01:08Z</time>
      </trkpt>
      <trkpt lat="50.444527482613921" lon="5.286101382225752">
        <ele>180.15000000000001</ele>
        <time>2019-07-02T10:01:14Z</time>
      </trkpt>
      <trkpt lat="50.444476939737797" lon="5.286079840734601">
        <ele>181.34</ele>
        <time>2019-07-02T10:01:19Z</time>
      </trkpt>
      <trkpt lat="50.444460762664676" lon="5.286080846562982">
        <ele>181.31999999999999</ele>
        <time>2019-07-02T10:01:20Z</time>
      </trkpt>
      <trkpt lat="50.444309134036303" lon="5.286027956753969">
        <ele>184.84</ele>
        <time>2019-07-02T10:01:36Z</time>
      </trkpt>
      <trkpt lat="50.44410620816052" lon="5.286129042506218">
        <ele>187.63</ele>
        <time>2019-07-02T10:01:52Z</time>
      </trkpt>
      <trkpt lat="50.443921471014619" lon="5.286190649494529">
        <ele>191.12</ele>
        <time>2019-07-02T10:02:06Z</time>
      </trkpt>
      <trkpt lat="50.443750731647015" lon="5.286274552345276">
        <ele>193.91</ele>
        <time>2019-07-02T10:02:19Z</time>
      </trkpt>
      <trkpt lat="50.443708235397935" lon="5.286355102434754">
        <ele>195.62</ele>
        <time>2019-07-02T10:02:26Z</time>
      </trkpt>
      <trkpt lat="50.443795658648014" lon="5.286463480442762">
        <ele>198.22</ele>
        <time>2019-07-02T10:02:43Z</time>
      </trkpt>
      <trkpt lat="50.443851565942168" lon="5.286463145166636">
        <ele>199.09999999999999</ele>
        <time>2019-07-02T10:02:48Z</time>
      </trkpt>
      <trkpt lat="50.443862797692418" lon="5.286467671394348">
        <ele>199.16999999999999</ele>
        <time>2019-07-02T10:02:49Z</time>
      </trkpt>
      <trkpt lat="50.44398408383131" lon="5.286489045247436">
        <ele>200.09999999999999</ele>
        <time>2019-07-02T10:02:59Z</time>
      </trkpt>
      <trkpt lat="50.444016354158521" lon="5.286483345553279">
        <ele>200.12</ele>
        <time>2019-07-02T10:03:01Z</time>
      </trkpt>
      <trkpt lat="50.444225566461682" lon="5.286627933382988">
        <ele>201.69</ele>
        <time>2019-07-02T10:03:17Z</time>
      </trkpt>
      <trkpt lat="50.444483980536461" lon="5.28679272159934">
        <ele>203.49000000000001</ele>
        <time>2019-07-02T10:03:37Z</time>
      </trkpt>
      <trkpt lat="50.444518178701401" lon="5.286835553124547">
        <ele>204.34</ele>
        <time>2019-07-02T10:03:40Z</time>
      </trkpt>
      <trkpt lat="50.44463787227869" lon="5.28694418258965">
        <ele>206.13999999999999</ele>
        <time>2019-07-02T10:03:50Z</time>
      </trkpt>
      <trkpt lat="50.444647679105401" lon="5.286977794021368">
        <ele>206.16</ele>
        <time>2019-07-02T10:03:52Z</time>
      </trkpt>
      <trkpt lat="50.444701155647635" lon="5.287131099030376">
        <ele>207.96000000000001</ele>
        <time>2019-07-02T10:04:01Z</time>
      </trkpt>
      <trkpt lat="50.44470576569438" lon="5.287148449569941">
        <ele>207.91999999999999</ele>
        <time>2019-07-02T10:04:02Z</time>
      </trkpt>
      <trkpt lat="50.444721272215247" lon="5.287207709625363">
        <ele>207.91</ele>
        <time>2019-07-02T10:04:05Z</time>
      </trkpt>
      <trkpt lat="50.444729821756482" lon="5.287225311622024">
        <ele>207.91</ele>
        <time>2019-07-02T10:04:06Z</time>
      </trkpt>
      <trkpt lat="50.444734347984195" lon="5.287376856431365">
        <ele>208.72</ele>
        <time>2019-07-02T10:04:15Z</time>
      </trkpt>
      <trkpt lat="50.444634603336453" lon="5.287417424842715">
        <ele>212.15000000000001</ele>
        <time>2019-07-02T10:04:29Z</time>
      </trkpt>
      <trkpt lat="50.444608787074685" lon="5.287421112880111">
        <ele>214.16</ele>
        <time>2019-07-02T10:04:31Z</time>
      </trkpt>
      <trkpt lat="50.444608787074685" lon="5.287421112880111">
        <ele>214.21000000000001</ele>
        <time>2019-07-02T10:04:32Z</time>
      </trkpt>
      <trkpt lat="50.44450493529439" lon="5.287320530042052">
        <ele>214.22999999999999</ele>
        <time>2019-07-02T10:04:43Z</time>
      </trkpt>
      <trkpt lat="50.444353390485048" lon="5.287159597501159">
        <ele>215.00999999999999</ele>
        <time>2019-07-02T10:04:56Z</time>
      </trkpt>
      <trkpt lat="50.4441521409899" lon="5.287001095712185">
        <ele>215.72999999999999</ele>
        <time>2019-07-02T10:05:13Z</time>
      </trkpt>
      <trkpt lat="50.443936474621296" lon="5.28692708350718">
        <ele>215.72</ele>
        <time>2019-07-02T10:05:29Z</time>
      </trkpt>
      <trkpt lat="50.443677389994264" lon="5.286796074360609">
        <ele>216.65000000000001</ele>
        <time>2019-07-02T10:05:49Z</time>
      </trkpt>
      <trkpt lat="50.443584518507123" lon="5.286785513162613">
        <ele>216.63999999999999</ele>
        <time>2019-07-02T10:05:55Z</time>
      </trkpt>
      <trkpt lat="50.443570520728827" lon="5.286784339696169">
        <ele>216.63</ele>
        <time>2019-07-02T10:05:56Z</time>
      </trkpt>
      <trkpt lat="50.443391902372241" lon="5.286789452657104">
        <ele>217.41999999999999</ele>
        <time>2019-07-02T10:06:06Z</time>
      </trkpt>
      <trkpt lat="50.443268269300461" lon="5.286771515384316">
        <ele>218.24000000000001</ele>
        <time>2019-07-02T10:06:14Z</time>
      </trkpt>
      <trkpt lat="50.443251924589276" lon="5.286767324432731">
        <ele>218.24000000000001</ele>
        <time>2019-07-02T10:06:15Z</time>
      </trkpt>
      <trkpt lat="50.443237004801631" lon="5.286766486242414">
        <ele>218.24000000000001</ele>
        <time>2019-07-02T10:06:16Z</time>
      </trkpt>
      <trkpt lat="50.443069282919168" lon="5.286786099895835">
        <ele>218.99000000000001</ele>
        <time>2019-07-02T10:06:31Z</time>
      </trkpt>
      <trkpt lat="50.442863842472434" lon="5.286799259483814">
        <ele>218.97</ele>
        <time>2019-07-02T10:06:46Z</time>
      </trkpt>
      <trkpt lat="50.442726882174611" lon="5.286924401298165">
        <ele>219.81999999999999</ele>
        <time>2019-07-02T10:06:59Z</time>
      </trkpt>
      <trkpt lat="50.442728055641055" lon="5.286946194246411">
        <ele>219.81999999999999</ele>
        <time>2019-07-02T10:07:00Z</time>
      </trkpt>
      <trkpt lat="50.442730821669102" lon="5.286967819556594">
        <ele>219.83000000000001</ele>
        <time>2019-07-02T10:07:01Z</time>
      </trkpt>
      <trkpt lat="50.442735766991973" lon="5.286987014114857">
        <ele>219.81</ele>
        <time>2019-07-02T10:07:02Z</time>
      </trkpt>
      <trkpt lat="50.442742053419352" lon="5.287004197016358">
        <ele>219.81</ele>
        <time>2019-07-02T10:07:03Z</time>
      </trkpt>
      <trkpt lat="50.442578522488475" lon="5.28731893748045">
        <ele>221.34999999999999</ele>
        <time>2019-07-02T10:07:27Z</time>
      </trkpt>
      <trkpt lat="50.442449105903506" lon="5.287383478134871">
        <ele>221.25999999999999</ele>
        <time>2019-07-02T10:07:42Z</time>
      </trkpt>
      <trkpt lat="50.442280797287822" lon="5.287484731525183">
        <ele>221.22</ele>
        <time>2019-07-02T10:07:55Z</time>
      </trkpt>
      <trkpt lat="50.442093964666128" lon="5.287594953551889">
        <ele>221.91999999999999</ele>
        <time>2019-07-02T10:08:09Z</time>
      </trkpt>
      <trkpt lat="50.441915094852448" lon="5.287713389843702">
        <ele>223.44999999999999</ele>
        <time>2019-07-02T10:08:22Z</time>
      </trkpt>
      <trkpt lat="50.441777464002371" lon="5.287861246615648">
        <ele>223.34999999999999</ele>
        <time>2019-07-02T10:08:36Z</time>
      </trkpt>
      <trkpt lat="50.441601946949959" lon="5.288011785596609">
        <ele>223.27000000000001</ele>
        <time>2019-07-02T10:08:51Z</time>
      </trkpt>
      <trkpt lat="50.441329032182693" lon="5.288189733400941">
        <ele>218.77000000000001</ele>
        <time>2019-07-02T11:13:56Z</time>
      </trkpt>
      <trkpt lat="50.441339677199721" lon="5.288244299590588">
        <ele>221.12</ele>
        <time>2019-07-02T11:13:59Z</time>
      </trkpt>
      <trkpt lat="50.441378150135279" lon="5.288464408367872">
        <ele>221.86000000000001</ele>
        <time>2019-07-02T11:14:11Z</time>
      </trkpt>
      <trkpt lat="50.441379323601723" lon="5.288487207144499">
        <ele>221.86000000000001</ele>
        <time>2019-07-02T11:14:12Z</time>
      </trkpt>
      <trkpt lat="50.441382173448801" lon="5.28859524987638">
        <ele>221.83000000000001</ele>
        <time>2019-07-02T11:14:18Z</time>
      </trkpt>
      <trkpt lat="50.441390387713909" lon="5.288692563772202">
        <ele>222.62</ele>
        <time>2019-07-02T11:14:38Z</time>
      </trkpt>
      <trkpt lat="50.441420311108232" lon="5.288830948993564">
        <ele>222.56999999999999</ele>
        <time>2019-07-02T11:15:03Z</time>
      </trkpt>
      <trkpt lat="50.441447971388698" lon="5.289169074967504">
        <ele>223.40000000000001</ele>
        <time>2019-07-02T11:15:22Z</time>
      </trkpt>
      <trkpt lat="50.44145249761641" lon="5.289242835715413">
        <ele>223.38</ele>
        <time>2019-07-02T11:15:26Z</time>
      </trkpt>
      <trkpt lat="50.442099999636412" lon="5.298253297805786">
        <ele>223.38999999999999</ele>
        <time>2019-07-02T11:15:27Z</time>
      </trkpt>
      <trkpt lat="50.441352920606732" lon="5.298920497298241">
        <ele>223.38999999999999</ele>
        <time>2019-07-02T11:15:28Z</time>
      </trkpt>
      <trkpt lat="50.441708145663142" lon="5.299795316532254">
        <ele>224.28999999999999</ele>
        <time>2019-07-02T11:15:33Z</time>
      </trkpt>
      <trkpt lat="50.441310424357653" lon="5.298893004655838">
        <ele>224.27000000000001</ele>
        <time>2019-07-02T11:15:34Z</time>
      </trkpt>
      <trkpt lat="50.442081056535244" lon="5.29821733944118">
        <ele>224.25999999999999</ele>
        <time>2019-07-02T11:15:35Z</time>
      </trkpt>
      <trkpt lat="50.442060101777315" lon="5.298090185970068">
        <ele>224.25</ele>
        <time>2019-07-02T11:15:36Z</time>
      </trkpt>
      <trkpt lat="50.441368343308568" lon="5.289321038872004">
        <ele>224.25</ele>
        <time>2019-07-02T11:15:37Z</time>
      </trkpt>
      <trkpt lat="50.44134009629488" lon="5.289654722437263">
        <ele>224.19999999999999</ele>
        <time>2019-07-02T11:15:49Z</time>
      </trkpt>
      <trkpt lat="50.441232053562999" lon="5.289871478453279">
        <ele>224.19</ele>
        <time>2019-07-02T11:16:01Z</time>
      </trkpt>
      <trkpt lat="50.441043544560671" lon="5.290112877264619">
        <ele>225.06</ele>
        <time>2019-07-02T11:16:19Z</time>
      </trkpt>
      <trkpt lat="50.440990151837468" lon="5.290167946368456">
        <ele>225.06</ele>
        <time>2019-07-02T11:16:25Z</time>
      </trkpt>
      <trkpt lat="50.440944135189056" lon="5.290176663547754">
        <ele>225.06</ele>
        <time>2019-07-02T11:16:29Z</time>
      </trkpt>
      <trkpt lat="50.44093307107687" lon="5.290182698518038">
        <ele>225.06</ele>
        <time>2019-07-02T11:16:30Z</time>
      </trkpt>
      <trkpt lat="50.440921168774366" lon="5.290184961631894">
        <ele>225.06</ele>
        <time>2019-07-02T11:16:31Z</time>
      </trkpt>
      <trkpt lat="50.440900130197406" lon="5.290195439010859">
        <ele>225.05000000000001</ele>
        <time>2019-07-02T11:16:33Z</time>
      </trkpt>
      <trkpt lat="50.44079627841711" lon="5.290268445387483">
        <ele>225.06999999999999</ele>
        <time>2019-07-02T11:16:43Z</time>
      </trkpt>
      <trkpt lat="50.440702652558684" lon="5.290301218628883">
        <ele>225.81</ele>
        <time>2019-07-02T11:16:52Z</time>
      </trkpt>
      <trkpt lat="50.440583042800426" lon="5.290347067639232">
        <ele>225.78</ele>
        <time>2019-07-02T11:17:01Z</time>
      </trkpt>
      <trkpt lat="50.440460499376059" lon="5.290380343794823">
        <ele>225.78999999999999</ele>
        <time>2019-07-02T11:17:15Z</time>
      </trkpt>
      <trkpt lat="50.440311217680573" lon="5.290504731237888">
        <ele>225.78</ele>
        <time>2019-07-02T11:17:27Z</time>
      </trkpt>
      <trkpt lat="50.440298980101943" lon="5.290515208616853">
        <ele>225.78</ele>
        <time>2019-07-02T11:17:28Z</time>
      </trkpt>
      <trkpt lat="50.440283976495266" lon="5.290527949109674">
        <ele>225.77000000000001</ele>
        <time>2019-07-02T11:17:29Z</time>
      </trkpt>
      <trkpt lat="50.44015028513968" lon="5.290603134781122">
        <ele>225.78</ele>
        <time>2019-07-02T11:17:37Z</time>
      </trkpt>
      <trkpt lat="50.440041404217482" lon="5.290661556646228">
        <ele>225.77000000000001</ele>
        <time>2019-07-02T11:17:45Z</time>
      </trkpt>
      <trkpt lat="50.440023383125663" lon="5.290668932721019">
        <ele>225.77000000000001</ele>
        <time>2019-07-02T11:17:46Z</time>
      </trkpt>
      <trkpt lat="50.439886841922998" lon="5.290731629356742">
        <ele>225.77000000000001</ele>
        <time>2019-07-02T11:17:54Z</time>
      </trkpt>
      <trkpt lat="50.439875442534685" lon="5.290737664327025">
        <ele>225.75999999999999</ele>
        <time>2019-07-02T11:17:55Z</time>
      </trkpt>
      <trkpt lat="50.439765639603138" lon="5.290787620469928">
        <ele>225.75999999999999</ele>
        <time>2019-07-02T11:18:03Z</time>
      </trkpt>
      <trkpt lat="50.439587775617838" lon="5.290850568562746">
        <ele>225.78</ele>
        <time>2019-07-02T11:18:21Z</time>
      </trkpt>
      <trkpt lat="50.439524995163083" lon="5.29080924578011">
        <ele>225.78</ele>
        <time>2019-07-02T11:18:24Z</time>
      </trkpt>
      <trkpt lat="50.439518038183451" lon="5.290796924382448">
        <ele>225.75</ele>
        <time>2019-07-02T11:18:25Z</time>
      </trkpt>
      <trkpt lat="50.439506052061915" lon="5.290764234960079">
        <ele>225.78</ele>
        <time>2019-07-02T11:18:27Z</time>
      </trkpt>
      <trkpt lat="50.439502615481615" lon="5.290748393163085">
        <ele>225.75</ele>
        <time>2019-07-02T11:18:28Z</time>
      </trkpt>
      <trkpt lat="50.439458442851901" lon="5.290644373744726">
        <ele>225.78999999999999</ele>
        <time>2019-07-02T11:18:34Z</time>
      </trkpt>
      <trkpt lat="50.43944176286459" lon="5.290611600503326">
        <ele>225.78999999999999</ele>
        <time>2019-07-02T11:18:36Z</time>
      </trkpt>
      <trkpt lat="50.439435644075274" lon="5.290596010163426">
        <ele>225.75</ele>
        <time>2019-07-02T11:18:37Z</time>
      </trkpt>
      <trkpt lat="50.439397003501654" lon="5.290393000468612">
        <ele>225.78999999999999</ele>
        <time>2019-07-02T11:18:48Z</time>
      </trkpt>
      <trkpt lat="50.439393315464258" lon="5.290375147014856">
        <ele>225.75999999999999</ele>
        <time>2019-07-02T11:18:49Z</time>
      </trkpt>
      <trkpt lat="50.439332295209169" lon="5.290048085153103">
        <ele>225.78</ele>
        <time>2019-07-02T11:19:06Z</time>
      </trkpt>
      <trkpt lat="50.43923556804657" lon="5.289955297484994">
        <ele>225.77000000000001</ele>
        <time>2019-07-02T11:19:13Z</time>
      </trkpt>
      <trkpt lat="50.439210338518023" lon="5.289935180917382">
        <ele>225.75999999999999</ele>
        <time>2019-07-02T11:19:15Z</time>
      </trkpt>
      <trkpt lat="50.43919064104557" lon="5.289905676618218">
        <ele>225.75999999999999</ele>
        <time>2019-07-02T11:19:16Z</time>
      </trkpt>
      <trkpt lat="50.43917496688664" lon="5.289885140955448">
        <ele>225.75</ele>
        <time>2019-07-02T11:19:17Z</time>
      </trkpt>
      <trkpt lat="50.439162142574787" lon="5.28987935744226">
        <ele>225.75999999999999</ele>
        <time>2019-07-02T11:19:18Z</time>
      </trkpt>
      <trkpt lat="50.439024344086647" lon="5.289785983040929">
        <ele>225.72</ele>
        <time>2019-07-02T11:19:33Z</time>
      </trkpt>
      <trkpt lat="50.438965503126383" lon="5.289795957505703">
        <ele>225.69999999999999</ele>
        <time>2019-07-02T11:19:37Z</time>
      </trkpt>
      <trkpt lat="50.438949996605515" lon="5.289807105436921">
        <ele>225.69</ele>
        <time>2019-07-02T11:19:38Z</time>
      </trkpt>
      <trkpt lat="50.438710525631905" lon="5.289907772094011">
        <ele>225.58000000000001</ele>
        <time>2019-07-02T11:19:54Z</time>
      </trkpt>
      <trkpt lat="50.438488237559795" lon="5.290045905858278">
        <ele>225.41</ele>
        <time>2019-07-02T11:20:16Z</time>
      </trkpt>
      <trkpt lat="50.438353288918734" lon="5.290070967748761">
        <ele>225.34</ele>
        <time>2019-07-02T11:20:26Z</time>
      </trkpt>
      <trkpt lat="50.438255555927753" lon="5.290082031860948">
        <ele>225.27000000000001</ele>
        <time>2019-07-02T11:20:34Z</time>
      </trkpt>
      <trkpt lat="50.437942575663328" lon="5.290197115391493">
        <ele>224.99000000000001</ele>
        <time>2019-07-02T11:21:03Z</time>
      </trkpt>
      <trkpt lat="50.437449300661683" lon="5.290479753166437">
        <ele>224.71000000000001</ele>
        <time>2019-07-02T11:21:32Z</time>
      </trkpt>
      <trkpt lat="50.437299096956849" lon="5.290612941607833">
        <ele>224.63999999999999</ele>
        <time>2019-07-02T11:21:40Z</time>
      </trkpt>
      <trkpt lat="50.437172194942832" lon="5.290700113400817">
        <ele>222.19999999999999</ele>
        <time>2019-07-02T11:21:48Z</time>
      </trkpt>
      <trkpt lat="50.436871033161879" lon="5.290841348469257">
        <ele>222.09999999999999</ele>
        <time>2019-07-02T11:21:57Z</time>
      </trkpt>
      <trkpt lat="50.436510192230344" lon="5.291039999574423">
        <ele>219.80000000000001</ele>
        <time>2019-07-02T11:22:09Z</time>
      </trkpt>
      <trkpt lat="50.436483956873417" lon="5.291060786694288">
        <ele>219.83000000000001</ele>
        <time>2019-07-02T11:22:10Z</time>
      </trkpt>
      <trkpt lat="50.436355629935861" lon="5.291309896856546">
        <ele>219.78999999999999</ele>
        <time>2019-07-02T11:22:20Z</time>
      </trkpt>
      <trkpt lat="50.436337860301137" lon="5.291340323165059">
        <ele>219.77000000000001</ele>
        <time>2019-07-02T11:22:23Z</time>
      </trkpt>
      <trkpt lat="50.436288574710488" lon="5.291432943195105">
        <ele>219.72999999999999</ele>
        <time>2019-07-02T11:22:32Z</time>
      </trkpt>
      <trkpt lat="50.436273152008653" lon="5.291694374755025">
        <ele>219.66</ele>
        <time>2019-07-02T11:22:51Z</time>
      </trkpt>
      <trkpt lat="50.436284886673093" lon="5.291747096925974">
        <ele>219.66</ele>
        <time>2019-07-02T11:22:54Z</time>
      </trkpt>
      <trkpt lat="50.436312714591622" lon="5.291910460218787">
        <ele>219.63999999999999</ele>
        <time>2019-07-02T11:23:05Z</time>
      </trkpt>
      <trkpt lat="50.436375327408314" lon="5.292229978367686">
        <ele>218.77000000000001</ele>
        <time>2019-07-02T11:23:33Z</time>
      </trkpt>
      <trkpt lat="50.436401730403304" lon="5.292430389672518">
        <ele>216.55000000000001</ele>
        <time>2019-07-02T11:23:44Z</time>
      </trkpt>
      <trkpt lat="50.436394438147545" lon="5.292608672752976">
        <ele>215.59999999999999</ele>
        <time>2019-07-02T11:23:55Z</time>
      </trkpt>
      <trkpt lat="50.436345404013991" lon="5.292747560888529">
        <ele>212.63</ele>
        <time>2019-07-02T11:24:08Z</time>
      </trkpt>
      <trkpt lat="50.436338195577264" lon="5.292760049924254">
        <ele>212.63999999999999</ele>
        <time>2019-07-02T11:24:09Z</time>
      </trkpt>
      <trkpt lat="50.436189668253064" lon="5.292908661067486">
        <ele>208.83000000000001</ele>
        <time>2019-07-02T11:24:24Z</time>
      </trkpt>
      <trkpt lat="50.436054551973939" lon="5.292981918901205">
        <ele>207.34</ele>
        <time>2019-07-02T11:24:35Z</time>
      </trkpt>
      <trkpt lat="50.436037536710501" lon="5.292986528947949">
        <ele>207.44</ele>
        <time>2019-07-02T11:24:36Z</time>
      </trkpt>
      <trkpt lat="50.435927985236049" lon="5.293017961084843">
        <ele>205.5</ele>
        <time>2019-07-02T11:24:45Z</time>
      </trkpt>
      <trkpt lat="50.43580686673522" lon="5.293090464547277">
        <ele>203.83000000000001</ele>
        <time>2019-07-02T11:24:55Z</time>
      </trkpt>
      <trkpt lat="50.43563730083406" lon="5.292959371581674">
        <ele>201.5</ele>
        <time>2019-07-02T11:25:13Z</time>
      </trkpt>
      <trkpt lat="50.435565216466784" lon="5.292706405743957">
        <ele>201.62</ele>
        <time>2019-07-02T11:25:25Z</time>
      </trkpt>
      <trkpt lat="50.435552056878805" lon="5.292638009414077">
        <ele>201.59999999999999</ele>
        <time>2019-07-02T11:25:28Z</time>
      </trkpt>
      <trkpt lat="50.435535376891494" lon="5.292569529265165">
        <ele>200.75999999999999</ele>
        <time>2019-07-02T11:25:31Z</time>
      </trkpt>
      <trkpt lat="50.435493048280478" lon="5.292261075228453">
        <ele>199.99000000000001</ele>
        <time>2019-07-02T11:25:48Z</time>
      </trkpt>
      <trkpt lat="50.43548290617764" lon="5.292170131579042">
        <ele>199.15000000000001</ele>
        <time>2019-07-02T11:25:52Z</time>
      </trkpt>
      <trkpt lat="50.435481816530228" lon="5.292150685563684">
        <ele>199.15000000000001</ele>
        <time>2019-07-02T11:25:53Z</time>
      </trkpt>
      <trkpt lat="50.435479301959276" lon="5.292127383872867">
        <ele>199.13</ele>
        <time>2019-07-02T11:25:54Z</time>
      </trkpt>
      <trkpt lat="50.435477709397674" lon="5.292105171829462">
        <ele>198.31</ele>
        <time>2019-07-02T11:25:55Z</time>
      </trkpt>
      <trkpt lat="50.435477457940578" lon="5.292082792147994">
        <ele>198.33000000000001</ele>
        <time>2019-07-02T11:25:56Z</time>
      </trkpt>
      <trkpt lat="50.435475781559944" lon="5.292059825733304">
        <ele>198.31</ele>
        <time>2019-07-02T11:25:57Z</time>
      </trkpt>
      <trkpt lat="50.435472764074802" lon="5.292038200423122">
        <ele>198.31</ele>
        <time>2019-07-02T11:25:58Z</time>
      </trkpt>
      <trkpt lat="50.435464298352599" lon="5.291954716667533">
        <ele>197.46000000000001</ele>
        <time>2019-07-02T11:26:02Z</time>
      </trkpt>
      <trkpt lat="50.435463963076472" lon="5.291933175176382">
        <ele>197.46000000000001</ele>
        <time>2019-07-02T11:26:03Z</time>
      </trkpt>
      <trkpt lat="50.435465974733233" lon="5.291910795494914">
        <ele>197.46000000000001</ele>
        <time>2019-07-02T11:26:04Z</time>
      </trkpt>
      <trkpt lat="50.435466561466455" lon="5.291890678927302">
        <ele>196.69</ele>
        <time>2019-07-02T11:26:05Z</time>
      </trkpt>
      <trkpt lat="50.435467902570963" lon="5.291870897635818">
        <ele>196.69</ele>
        <time>2019-07-02T11:26:06Z</time>
      </trkpt>
      <trkpt lat="50.435466896742582" lon="5.291848685592413">
        <ele>196.66999999999999</ele>
        <time>2019-07-02T11:26:07Z</time>
      </trkpt>
      <trkpt lat="50.435467148199677" lon="5.291825300082564">
        <ele>196.69</ele>
        <time>2019-07-02T11:26:08Z</time>
      </trkpt>
      <trkpt lat="50.43547167442739" lon="5.291804010048509">
        <ele>196.69</ele>
        <time>2019-07-02T11:26:09Z</time>
      </trkpt>
      <trkpt lat="50.435531185939908" lon="5.291478959843516">
        <ele>194.28</ele>
        <time>2019-07-02T11:26:26Z</time>
      </trkpt>
      <trkpt lat="50.435566892847419" lon="5.29136136174202">
        <ele>193.46000000000001</ele>
        <time>2019-07-02T11:26:33Z</time>
      </trkpt>
      <trkpt lat="50.435573430731893" lon="5.291346190497279">
        <ele>193.38999999999999</ele>
        <time>2019-07-02T11:26:34Z</time>
      </trkpt>
      <trkpt lat="50.435609724372625" lon="5.291238985955715">
        <ele>192.47999999999999</ele>
        <time>2019-07-02T11:26:41Z</time>
      </trkpt>
      <trkpt lat="50.435616848990321" lon="5.291212499141693">
        <ele>192.47</ele>
        <time>2019-07-02T11:26:42Z</time>
      </trkpt>
      <trkpt lat="50.435702009126544" lon="5.290882587432861">
        <ele>190.88999999999999</ele>
        <time>2019-07-02T11:26:57Z</time>
      </trkpt>
      <trkpt lat="50.43570720590651" lon="5.290854591876268">
        <ele>190.84</ele>
        <time>2019-07-02T11:26:58Z</time>
      </trkpt>
      <trkpt lat="50.435708044096828" lon="5.290828440338373">
        <ele>190.84999999999999</ele>
        <time>2019-07-02T11:26:59Z</time>
      </trkpt>
      <trkpt lat="50.435711061581969" lon="5.290801953524351">
        <ele>190.84</ele>
        <time>2019-07-02T11:27:00Z</time>
      </trkpt>
      <trkpt lat="50.435712402686477" lon="5.290774125605822">
        <ele>190.83000000000001</ele>
        <time>2019-07-02T11:27:01Z</time>
      </trkpt>
      <trkpt lat="50.435719946399331" lon="5.290592657402158">
        <ele>189.96000000000001</ele>
        <time>2019-07-02T11:27:10Z</time>
      </trkpt>
      <trkpt lat="50.435713492333889" lon="5.290400795638561">
        <ele>189.96000000000001</ele>
        <time>2019-07-02T11:27:18Z</time>
      </trkpt>
      <trkpt lat="50.435705445706844" lon="5.290325526148081">
        <ele>188.18000000000001</ele>
        <time>2019-07-02T11:27:21Z</time>
      </trkpt>
      <trkpt lat="50.435656998306513" lon="5.290135256946087">
        <ele>188.13</ele>
        <time>2019-07-02T11:27:30Z</time>
      </trkpt>
      <trkpt lat="50.435581058263779" lon="5.289872819557786">
        <ele>187.34999999999999</ele>
        <time>2019-07-02T11:27:41Z</time>
      </trkpt>
      <trkpt lat="50.43556840158999" lon="5.289817834272981">
        <ele>187.28999999999999</ele>
        <time>2019-07-02T11:27:42Z</time>
      </trkpt>
      <trkpt lat="50.435568485409021" lon="5.289791598916054">
        <ele>187.28</ele>
        <time>2019-07-02T11:27:43Z</time>
      </trkpt>
      <trkpt lat="50.435564294457436" lon="5.289748851209879">
        <ele>187.33000000000001</ele>
        <time>2019-07-02T11:27:45Z</time>
      </trkpt>
      <trkpt lat="50.43556253425777" lon="5.289725884795189">
        <ele>186.38</ele>
        <time>2019-07-02T11:27:46Z</time>
      </trkpt>
      <trkpt lat="50.435559684410691" lon="5.289704510942102">
        <ele>186.38999999999999</ele>
        <time>2019-07-02T11:27:47Z</time>
      </trkpt>
      <trkpt lat="50.435535293072462" lon="5.289572412148118">
        <ele>186.37</ele>
        <time>2019-07-02T11:27:56Z</time>
      </trkpt>
      <trkpt lat="50.435459855943918" lon="5.289428578689694">
        <ele>184.59999999999999</ele>
        <time>2019-07-02T11:28:07Z</time>
      </trkpt>
      <trkpt lat="50.435384502634406" lon="5.289190448820591">
        <ele>183.71000000000001</ele>
        <time>2019-07-02T11:28:18Z</time>
      </trkpt>
      <trkpt lat="50.435370672494173" lon="5.289167985320091">
        <ele>183.68000000000001</ele>
        <time>2019-07-02T11:28:19Z</time>
      </trkpt>
      <trkpt lat="50.435231532901525" lon="5.288882916793227">
        <ele>181</ele>
        <time>2019-07-02T11:28:32Z</time>
      </trkpt>
      <trkpt lat="50.435222815722227" lon="5.288870679214597">
        <ele>180.99000000000001</ele>
        <time>2019-07-02T11:28:33Z</time>
      </trkpt>
      <trkpt lat="50.435177553445101" lon="5.288777053356171">
        <ele>180.97</ele>
        <time>2019-07-02T11:28:39Z</time>
      </trkpt>
      <trkpt lat="50.435169339179993" lon="5.288763223215938">
        <ele>180.91999999999999</ele>
        <time>2019-07-02T11:28:40Z</time>
      </trkpt>
      <trkpt lat="50.435141762718558" lon="5.288693988695741">
        <ele>180.94999999999999</ele>
        <time>2019-07-02T11:28:43Z</time>
      </trkpt>
      <trkpt lat="50.435121646150947" lon="5.28865191154182">
        <ele>180.94</ele>
        <time>2019-07-02T11:28:45Z</time>
      </trkpt>
      <trkpt lat="50.435012513771653" lon="5.288404980674386">
        <ele>180.03</ele>
        <time>2019-07-02T11:28:59Z</time>
      </trkpt>
      <trkpt lat="50.434987032786012" lon="5.288335075601935">
        <ele>180.02000000000001</ele>
        <time>2019-07-02T11:29:01Z</time>
      </trkpt>
      <trkpt lat="50.43498208746314" lon="5.288314372301102">
        <ele>180.02000000000001</ele>
        <time>2019-07-02T11:29:02Z</time>
      </trkpt>
      <trkpt lat="50.434976639226079" lon="5.288295261561871">
        <ele>180.00999999999999</ele>
        <time>2019-07-02T11:29:03Z</time>
      </trkpt>
      <trkpt lat="50.434968760237098" lon="5.28826835565269">
        <ele>180.00999999999999</ele>
        <time>2019-07-02T11:29:04Z</time>
      </trkpt>
      <trkpt lat="50.434958869591355" lon="5.28823952190578">
        <ele>180.00999999999999</ele>
        <time>2019-07-02T11:29:05Z</time>
      </trkpt>
      <trkpt lat="50.434930957853794" lon="5.288171712309122">
        <ele>179.99000000000001</ele>
        <time>2019-07-02T11:29:08Z</time>
      </trkpt>
      <trkpt lat="50.43492148630321" lon="5.288156038150191">
        <ele>179.99000000000001</ele>
        <time>2019-07-02T11:29:09Z</time>
      </trkpt>
      <trkpt lat="50.434837667271495" lon="5.28794732876122">
        <ele>179.94</ele>
        <time>2019-07-02T11:29:19Z</time>
      </trkpt>
      <trkpt lat="50.434806067496538" lon="5.287851104512811">
        <ele>179.13</ele>
        <time>2019-07-02T11:29:24Z</time>
      </trkpt>
      <trkpt lat="50.434798439964652" lon="5.287831658497453">
        <ele>179.11000000000001</ele>
        <time>2019-07-02T11:29:25Z</time>
      </trkpt>
      <trkpt lat="50.43479735031724" lon="5.287813134491444">
        <ele>179.11000000000001</ele>
        <time>2019-07-02T11:29:26Z</time>
      </trkpt>
      <trkpt lat="50.434794500470161" lon="5.287794023752213">
        <ele>179.09999999999999</ele>
        <time>2019-07-02T11:29:27Z</time>
      </trkpt>
      <trkpt lat="50.434767762199044" lon="5.287708695977926">
        <ele>179.09999999999999</ele>
        <time>2019-07-02T11:29:31Z</time>
      </trkpt>
      <trkpt lat="50.434752339497209" lon="5.287644825875759">
        <ele>179.06999999999999</ele>
        <time>2019-07-02T11:29:34Z</time>
      </trkpt>
      <trkpt lat="50.434692157432437" lon="5.287452042102814">
        <ele>178.25999999999999</ele>
        <time>2019-07-02T11:29:43Z</time>
      </trkpt>
      <trkpt lat="50.434673046693206" lon="5.287357661873102">
        <ele>178.25999999999999</ele>
        <time>2019-07-02T11:29:47Z</time>
      </trkpt>
      <trkpt lat="50.434668269008398" lon="5.287333941087127">
        <ele>178.25999999999999</ele>
        <time>2019-07-02T11:29:48Z</time>
      </trkpt>
      <trkpt lat="50.434636669233441" lon="5.287169488146901">
        <ele>177.41999999999999</ele>
        <time>2019-07-02T11:29:57Z</time>
      </trkpt>
      <trkpt lat="50.434627113863826" lon="5.287154233083129">
        <ele>177.41999999999999</ele>
        <time>2019-07-02T11:29:58Z</time>
      </trkpt>
      <trkpt lat="50.434615798294544" lon="5.287141157314181">
        <ele>176.66</ele>
        <time>2019-07-02T11:29:59Z</time>
      </trkpt>
      <trkpt lat="50.434605153277516" lon="5.287133110687137">
        <ele>176.66</ele>
        <time>2019-07-02T11:30:00Z</time>
      </trkpt>
      <trkpt lat="50.434591909870505" lon="5.287125315517187">
        <ele>176.65000000000001</ele>
        <time>2019-07-02T11:30:01Z</time>
      </trkpt>
      <trkpt lat="50.434499206021428" lon="5.287125650793314">
        <ele>176.75</ele>
        <time>2019-07-02T11:31:51Z</time>
      </trkpt>
      <trkpt lat="50.434426367282867" lon="5.287198573350906">
        <ele>176.77000000000001</ele>
        <time>2019-07-02T11:32:09Z</time>
      </trkpt>
      <trkpt lat="50.434415219351649" lon="5.287205697968602">
        <ele>176.77000000000001</ele>
        <time>2019-07-02T11:32:10Z</time>
      </trkpt>
      <trkpt lat="50.434404071420431" lon="5.287210056558251">
        <ele>176.77000000000001</ele>
        <time>2019-07-02T11:32:11Z</time>
      </trkpt>
      <trkpt lat="50.434230817481875" lon="5.287293707951903">
        <ele>176.81999999999999</ele>
        <time>2019-07-02T11:32:24Z</time>
      </trkpt>
      <trkpt lat="50.434070052579045" lon="5.287407534196973">
        <ele>176.83000000000001</ele>
        <time>2019-07-02T11:32:38Z</time>
      </trkpt>
      <trkpt lat="50.433974163606763" lon="5.287492694333196">
        <ele>179.28</ele>
        <time>2019-07-02T11:32:46Z</time>
      </trkpt>
      <trkpt lat="50.43390023522079" lon="5.287549942731857">
        <ele>179.28</ele>
        <time>2019-07-02T11:32:53Z</time>
      </trkpt>
      <trkpt lat="50.433694375678897" lon="5.287697464227676">
        <ele>179.33000000000001</ele>
        <time>2019-07-02T11:33:09Z</time>
      </trkpt>
      <trkpt lat="50.4336251411587" lon="5.287635689601302">
        <ele>178.40000000000001</ele>
        <time>2019-07-02T11:35:34Z</time>
      </trkpt>
      <trkpt lat="50.433596139773726" lon="5.287567628547549">
        <ele>180.81</ele>
        <time>2019-07-02T11:35:39Z</time>
      </trkpt>
      <trkpt lat="50.433522798120975" lon="5.287418430671096">
        <ele>182.36000000000001</ele>
        <time>2019-07-02T11:35:48Z</time>
      </trkpt>
      <trkpt lat="50.433398075401783" lon="5.287188263610005">
        <ele>183.18000000000001</ele>
        <time>2019-07-02T11:36:10Z</time>
      </trkpt>
      <trkpt lat="50.433356920257211" lon="5.287039987742901">
        <ele>185.34</ele>
        <time>2019-07-02T11:36:23Z</time>
      </trkpt>
      <trkpt lat="50.433313753455877" lon="5.286960192024708">
        <ele>185.34</ele>
        <time>2019-07-02T11:36:30Z</time>
      </trkpt>
      <trkpt lat="50.433313166722655" lon="5.28686111792922">
        <ele>185.34999999999999</ele>
        <time>2019-07-02T11:36:36Z</time>
      </trkpt>
      <trkpt lat="50.43326647952199" lon="5.286742178723216">
        <ele>187.91</ele>
        <time>2019-07-02T11:36:43Z</time>
      </trkpt>
      <trkpt lat="50.433255918323994" lon="5.286731030791998">
        <ele>187.94</ele>
        <time>2019-07-02T11:36:44Z</time>
      </trkpt>
      <trkpt lat="50.433223312720656" lon="5.286566661670804">
        <ele>188.80000000000001</ele>
        <time>2019-07-02T11:36:55Z</time>
      </trkpt>
      <trkpt lat="50.433225575834513" lon="5.286530116572976">
        <ele>189.61000000000001</ele>
        <time>2019-07-02T11:36:57Z</time>
      </trkpt>
      <trkpt lat="50.433202441781759" lon="5.286373794078827">
        <ele>192.40000000000001</ele>
        <time>2019-07-02T11:37:06Z</time>
      </trkpt>
      <trkpt lat="50.433207219466567" lon="5.286156786605716">
        <ele>194.16999999999999</ele>
        <time>2019-07-02T11:37:18Z</time>
      </trkpt>
      <trkpt lat="50.433200178667903" lon="5.285953022539616">
        <ele>198.02000000000001</ele>
        <time>2019-07-02T11:37:33Z</time>
      </trkpt>
      <trkpt lat="50.433183833956718" lon="5.285889571532607">
        <ele>199.49000000000001</ele>
        <time>2019-07-02T11:37:37Z</time>
      </trkpt>
      <trkpt lat="50.433210572227836" lon="5.285739786922932">
        <ele>199.43000000000001</ele>
        <time>2019-07-02T11:37:44Z</time>
      </trkpt>
      <trkpt lat="50.433242507278919" lon="5.285539124161005">
        <ele>202.28999999999999</ele>
        <time>2019-07-02T11:37:55Z</time>
      </trkpt>
      <trkpt lat="50.433277459815145" lon="5.285349022597075">
        <ele>202.22999999999999</ele>
        <time>2019-07-02T11:38:03Z</time>
      </trkpt>
      <trkpt lat="50.433288021013141" lon="5.285144168883562">
        <ele>203.83000000000001</ele>
        <time>2019-07-02T11:38:12Z</time>
      </trkpt>
      <trkpt lat="50.433324398472905" lon="5.285022631287575">
        <ele>205.19999999999999</ele>
        <time>2019-07-02T11:38:17Z</time>
      </trkpt>
      <trkpt lat="50.433339402079582" lon="5.284828674048185">
        <ele>205.97</ele>
        <time>2019-07-02T11:38:26Z</time>
      </trkpt>
      <trkpt lat="50.433345101773739" lon="5.284568415954709">
        <ele>207.69</ele>
        <time>2019-07-02T11:38:35Z</time>
      </trkpt>
      <trkpt lat="50.433371253311634" lon="5.284390887245536">
        <ele>209.28999999999999</ele>
        <time>2019-07-02T11:38:43Z</time>
      </trkpt>
      <trkpt lat="50.433375108987093" lon="5.284198857843876">
        <ele>210.94</ele>
        <time>2019-07-02T11:38:52Z</time>
      </trkpt>
      <trkpt lat="50.43340184725821" lon="5.28399333357811">
        <ele>210.87</ele>
        <time>2019-07-02T11:39:01Z</time>
      </trkpt>
      <trkpt lat="50.433461861684918" lon="5.283804992213845">
        <ele>211.59</ele>
        <time>2019-07-02T11:39:11Z</time>
      </trkpt>
      <trkpt lat="50.433496898040175" lon="5.283560492098332">
        <ele>212.25999999999999</ele>
        <time>2019-07-02T11:39:21Z</time>
      </trkpt>
      <trkpt lat="50.433558337390423" lon="5.28321934863925">
        <ele>214.72</ele>
        <time>2019-07-02T11:39:37Z</time>
      </trkpt>
      <trkpt lat="50.433616256341338" lon="5.283004436641932">
        <ele>215.53999999999999</ele>
        <time>2019-07-02T11:39:46Z</time>
      </trkpt>
      <trkpt lat="50.433692950755358" lon="5.282822381705046">
        <ele>217.38999999999999</ele>
        <time>2019-07-02T11:39:56Z</time>
      </trkpt>
      <trkpt lat="50.433759000152349" lon="5.28268676251173">
        <ele>218.16999999999999</ele>
        <time>2019-07-02T11:40:04Z</time>
      </trkpt>
      <trkpt lat="50.433840304613113" lon="5.282571762800217">
        <ele>218.91</ele>
        <time>2019-07-02T11:40:12Z</time>
      </trkpt>
      <trkpt lat="50.433946419507265" lon="5.282484507188201">
        <ele>218.83000000000001</ele>
        <time>2019-07-02T11:40:22Z</time>
      </trkpt>
      <trkpt lat="50.433995956555009" lon="5.282418709248304">
        <ele>220.66999999999999</ele>
        <time>2019-07-02T11:40:28Z</time>
      </trkpt>
      <trkpt lat="50.434048343449831" lon="5.282273702323437">
        <ele>220.59999999999999</ele>
        <time>2019-07-02T11:40:36Z</time>
      </trkpt>
      <trkpt lat="50.43409813195467" lon="5.282154595479369">
        <ele>220.53999999999999</ele>
        <time>2019-07-02T11:40:44Z</time>
      </trkpt>
      <trkpt lat="50.434110620990396" lon="5.282091647386551">
        <ele>220.52000000000001</ele>
        <time>2019-07-02T11:40:47Z</time>
      </trkpt>
      <trkpt lat="50.434116572141647" lon="5.282055689021945">
        <ele>220.5</ele>
        <time>2019-07-02T11:40:49Z</time>
      </trkpt>
      <trkpt lat="50.434301728382707" lon="5.28176860883832">
        <ele>220.34</ele>
        <time>2019-07-02T11:41:06Z</time>
      </trkpt>
      <trkpt lat="50.434497948735952" lon="5.281589319929481">
        <ele>220.28</ele>
        <time>2019-07-02T11:41:13Z</time>
      </trkpt>
      <trkpt lat="50.434631053358316" lon="5.281354039907455">
        <ele>220.22999999999999</ele>
        <time>2019-07-02T11:41:19Z</time>
      </trkpt>
      <trkpt lat="50.434662317857146" lon="5.281319925561547">
        <ele>220.21000000000001</ele>
        <time>2019-07-02T11:41:20Z</time>
      </trkpt>
      <trkpt lat="50.435191551223397" lon="5.280345529317856">
        <ele>220.00999999999999</ele>
        <time>2019-07-02T11:41:44Z</time>
      </trkpt>
      <trkpt lat="50.435346784070134" lon="5.280178477987647">
        <ele>221.05000000000001</ele>
        <time>2019-07-02T11:41:49Z</time>
      </trkpt>
      <trkpt lat="50.435391962528229" lon="5.280144615098834">
        <ele>221.03</ele>
        <time>2019-07-02T11:41:50Z</time>
      </trkpt>
      <trkpt lat="50.435415767133236" lon="5.280120559036732">
        <ele>221.02000000000001</ele>
        <time>2019-07-02T11:41:51Z</time>
      </trkpt>
      <trkpt lat="50.435450049117208" lon="5.280095748603344">
        <ele>222.47999999999999</ele>
        <time>2019-07-02T11:41:52Z</time>
      </trkpt>
      <trkpt lat="50.435469411313534" lon="5.28006674721837">
        <ele>222.47</ele>
        <time>2019-07-02T11:41:53Z</time>
      </trkpt>
      <trkpt lat="50.435489444062114" lon="5.280036572366953">
        <ele>222.46000000000001</ele>
        <time>2019-07-02T11:41:54Z</time>
      </trkpt>
      <trkpt lat="50.435501681640744" lon="5.280009163543582">
        <ele>222.47</ele>
        <time>2019-07-02T11:41:55Z</time>
      </trkpt>
      <trkpt lat="50.435511572286487" lon="5.279979575425386">
        <ele>222.44999999999999</ele>
        <time>2019-07-02T11:41:56Z</time>
      </trkpt>
      <trkpt lat="50.435521965846419" lon="5.279955519363284">
        <ele>222.46000000000001</ele>
        <time>2019-07-02T11:41:57Z</time>
      </trkpt>
      <trkpt lat="50.435534622520208" lon="5.279944539070129">
        <ele>222.44</ele>
        <time>2019-07-02T11:41:58Z</time>
      </trkpt>
      <trkpt lat="50.435559516772628" lon="5.279916627332568">
        <ele>222.43000000000001</ele>
        <time>2019-07-02T11:41:59Z</time>
      </trkpt>
      <trkpt lat="50.435780799016356" lon="5.279721077531576">
        <ele>222.40000000000001</ele>
        <time>2019-07-02T11:42:09Z</time>
      </trkpt>
      <trkpt lat="50.435825390741229" lon="5.279687214642763">
        <ele>223.99000000000001</ele>
        <time>2019-07-02T11:42:11Z</time>
      </trkpt>
      <trkpt lat="50.435837293043733" lon="5.279678078368306">
        <ele>223.99000000000001</ele>
        <time>2019-07-02T11:42:12Z</time>
      </trkpt>
      <trkpt lat="50.435871407389641" lon="5.279661733657122">
        <ele>223.97999999999999</ele>
        <time>2019-07-02T11:42:13Z</time>
      </trkpt>
      <trkpt lat="50.436022030189633" lon="5.279533658176661">
        <ele>223.96000000000001</ele>
        <time>2019-07-02T11:42:21Z</time>
      </trkpt>
      <trkpt lat="50.436120601370931" lon="5.279418993741274">
        <ele>223.94999999999999</ele>
        <time>2019-07-02T11:42:29Z</time>
      </trkpt>
      <trkpt lat="50.436168126761913" lon="5.279336851090193">
        <ele>219.19999999999999</ele>
        <time>2019-07-02T11:42:33Z</time>
      </trkpt>
      <trkpt lat="50.436163600534201" lon="5.279300892725587">
        <ele>222.59999999999999</ele>
        <time>2019-07-02T11:42:34Z</time>
      </trkpt>
      <trkpt lat="50.436208611354232" lon="5.279242973774672">
        <ele>222.59</ele>
        <time>2019-07-02T11:42:37Z</time>
      </trkpt>
      <trkpt lat="50.436267284676433" lon="5.279158148914576">
        <ele>222.59</ele>
        <time>2019-07-02T11:42:42Z</time>
      </trkpt>
      <trkpt lat="50.436270805075765" lon="5.279092015698552">
        <ele>220.19999999999999</ele>
        <time>2019-07-02T11:42:45Z</time>
      </trkpt>
      <trkpt lat="50.436294190585613" lon="5.279070977121592">
        <ele>220.18000000000001</ele>
        <time>2019-07-02T11:42:46Z</time>
      </trkpt>
      <trkpt lat="50.436306847259402" lon="5.279054464772344">
        <ele>220.19</ele>
        <time>2019-07-02T11:42:47Z</time>
      </trkpt>
      <trkpt lat="50.436311457306147" lon="5.279035354033113">
        <ele>220.18000000000001</ele>
        <time>2019-07-02T11:42:48Z</time>
      </trkpt>
      <trkpt lat="50.436318246647716" lon="5.279016327112913">
        <ele>220.16999999999999</ele>
        <time>2019-07-02T11:42:49Z</time>
      </trkpt>
      <trkpt lat="50.436331573873758" lon="5.278997719287872">
        <ele>220.19</ele>
        <time>2019-07-02T11:42:50Z</time>
      </trkpt>
      <trkpt lat="50.436349343508482" lon="5.278980704024434">
        <ele>219.37</ele>
        <time>2019-07-02T11:42:51Z</time>
      </trkpt>
      <trkpt lat="50.4363604914397" lon="5.278965029865503">
        <ele>219.31999999999999</ele>
        <time>2019-07-02T11:42:52Z</time>
      </trkpt>
      <trkpt lat="50.436375075951219" lon="5.278950529173017">
        <ele>219.37</ele>
        <time>2019-07-02T11:42:53Z</time>
      </trkpt>
      <trkpt lat="50.436390582472086" lon="5.278935693204403">
        <ele>219.37</ele>
        <time>2019-07-02T11:42:54Z</time>
      </trkpt>
      <trkpt lat="50.436400137841702" lon="5.278917085379362">
        <ele>219.36000000000001</ele>
        <time>2019-07-02T11:42:55Z</time>
      </trkpt>
      <trkpt lat="50.436415644362569" lon="5.278888670727611">
        <ele>219.38999999999999</ele>
        <time>2019-07-02T11:42:57Z</time>
      </trkpt>
      <trkpt lat="50.436591831967235" lon="5.278676021844149">
        <ele>219.41999999999999</ele>
        <time>2019-07-02T11:43:12Z</time>
      </trkpt>
      <trkpt lat="50.436700042337179" lon="5.278603937476873">
        <ele>219.46000000000001</ele>
        <time>2019-07-02T11:43:26Z</time>
      </trkpt>
      <trkpt lat="50.436824848875403" lon="5.278556495904923">
        <ele>219.5</ele>
        <time>2019-07-02T11:43:37Z</time>
      </trkpt>
      <trkpt lat="50.436852592974901" lon="5.278523555025458">
        <ele>219.50999999999999</ele>
        <time>2019-07-02T11:43:41Z</time>
      </trkpt>
      <trkpt lat="50.436860471963882" lon="5.278511485084891">
        <ele>219.50999999999999</ele>
        <time>2019-07-02T11:43:42Z</time>
      </trkpt>
      <trkpt lat="50.437027607113123" lon="5.278346026316285">
        <ele>219.55000000000001</ele>
        <time>2019-07-02T11:43:57Z</time>
      </trkpt>
      <trkpt lat="50.437083598226309" lon="5.278233122080565">
        <ele>219.58000000000001</ele>
        <time>2019-07-02T11:44:08Z</time>
      </trkpt>
      <trkpt lat="50.437299096956849" lon="5.277915028855205">
        <ele>219.63</ele>
        <time>2019-07-02T11:44:30Z</time>
      </trkpt>
      <trkpt lat="50.437513506039977" lon="5.277688382193446">
        <ele>219.66999999999999</ele>
        <time>2019-07-02T11:44:48Z</time>
      </trkpt>
      <trkpt lat="50.437810979783535" lon="5.277451677247882">
        <ele>218.90000000000001</ele>
        <time>2019-07-02T11:45:08Z</time>
      </trkpt>
      <trkpt lat="50.437817517668009" lon="5.277436170727015">
        <ele>218.90000000000001</ele>
        <time>2019-07-02T11:45:09Z</time>
      </trkpt>
      <trkpt lat="50.437995214015245" lon="5.277248667553067">
        <ele>218.88999999999999</ele>
        <time>2019-07-02T11:45:19Z</time>
      </trkpt>
      <trkpt lat="50.43806335888803" lon="5.27715303003788">
        <ele>218.88999999999999</ele>
        <time>2019-07-02T11:45:23Z</time>
      </trkpt>
      <trkpt lat="50.438080709427595" lon="5.277099637314677">
        <ele>221.72</ele>
        <time>2019-07-02T11:45:26Z</time>
      </trkpt>
      <trkpt lat="50.438153799623251" lon="5.276835942640901">
        <ele>218.80000000000001</ele>
        <time>2019-07-02T11:45:35Z</time>
      </trkpt>
      <trkpt lat="50.438156230375171" lon="5.276799649000168">
        <ele>218.80000000000001</ele>
        <time>2019-07-02T11:45:36Z</time>
      </trkpt>
      <trkpt lat="50.43816888704896" lon="5.276762181892991">
        <ele>218.80000000000001</ele>
        <time>2019-07-02T11:45:37Z</time>
      </trkpt>
      <trkpt lat="50.438192943111062" lon="5.276694959029555">
        <ele>221.08000000000001</ele>
        <time>2019-07-02T11:45:39Z</time>
      </trkpt>
      <trkpt lat="50.438205515965819" lon="5.27666537091136">
        <ele>221.06999999999999</ele>
        <time>2019-07-02T11:45:40Z</time>
      </trkpt>
      <trkpt lat="50.43834725394845" lon="5.276225740090013">
        <ele>222.53999999999999</ele>
        <time>2019-07-02T11:45:52Z</time>
      </trkpt>
      <trkpt lat="50.438619246706367" lon="5.275221336632967">
        <ele>223.87</ele>
        <time>2019-07-02T11:46:15Z</time>
      </trkpt>
      <trkpt lat="50.438764085993171" lon="5.274520860984922">
        <ele>223.69999999999999</ele>
        <time>2019-07-02T11:46:28Z</time>
      </trkpt>
      <trkpt lat="50.438815969973803" lon="5.274161947891116">
        <ele>221.09</ele>
        <time>2019-07-02T11:46:36Z</time>
      </trkpt>
      <trkpt lat="50.438902638852596" lon="5.273709325119853">
        <ele>219.31999999999999</ele>
        <time>2019-07-02T11:46:48Z</time>
      </trkpt>
      <trkpt lat="50.438917139545083" lon="5.273626847192645">
        <ele>219.28999999999999</ele>
        <time>2019-07-02T11:46:51Z</time>
      </trkpt>
      <trkpt lat="50.438917391002178" lon="5.273599857464433">
        <ele>219.28999999999999</ele>
        <time>2019-07-02T11:46:52Z</time>
      </trkpt>
      <trkpt lat="50.438931304961443" lon="5.273515116423369">
        <ele>218.44</ele>
        <time>2019-07-02T11:46:56Z</time>
      </trkpt>
      <trkpt lat="50.438944883644581" lon="5.273342868313193">
        <ele>217.63</ele>
        <time>2019-07-02T11:47:05Z</time>
      </trkpt>
      <trkpt lat="50.439065163955092" lon="5.273117478936911">
        <ele>214.84</ele>
        <time>2019-07-02T11:47:17Z</time>
      </trkpt>
      <trkpt lat="50.439084023237228" lon="5.273062996566296">
        <ele>214.96000000000001</ele>
        <time>2019-07-02T11:47:20Z</time>
      </trkpt>
      <trkpt lat="50.439084023237228" lon="5.273044556379318">
        <ele>214.15000000000001</ele>
        <time>2019-07-02T11:47:21Z</time>
      </trkpt>
      <trkpt lat="50.439187791198492" lon="5.272985715419054">
        <ele>213.19</ele>
        <time>2019-07-02T11:47:29Z</time>
      </trkpt>
      <trkpt lat="50.439234897494316" lon="5.273007927462459">
        <ele>211.84</ele>
        <time>2019-07-02T11:47:34Z</time>
      </trkpt>
      <trkpt lat="50.439991364255548" lon="5.273665236309171">
        <ele>200.83000000000001</ele>
        <time>2019-07-02T11:48:43Z</time>
      </trkpt>
      <trkpt lat="50.440123211592436" lon="5.273822145536542">
        <ele>200.06</ele>
        <time>2019-07-02T11:48:56Z</time>
      </trkpt>
      <trkpt lat="50.440161433070898" lon="5.273887356743217">
        <ele>200.00999999999999</ele>
        <time>2019-07-02T11:49:02Z</time>
      </trkpt>
      <trkpt lat="50.44017962180078" lon="5.273925410583615">
        <ele>200.03999999999999</ele>
        <time>2019-07-02T11:49:04Z</time>
      </trkpt>
      <trkpt lat="50.440321024507284" lon="5.274065136909485">
        <ele>200.06999999999999</ele>
        <time>2019-07-02T11:49:12Z</time>
      </trkpt>
      <trkpt lat="50.440411129966378" lon="5.274184159934521">
        <ele>200.06999999999999</ele>
        <time>2019-07-02T11:49:19Z</time>
      </trkpt>
      <trkpt lat="50.440450105816126" lon="5.274255154654384">
        <ele>200.06999999999999</ele>
        <time>2019-07-02T11:49:25Z</time>
      </trkpt>
      <trkpt lat="50.440560411661863" lon="5.274372166022658">
        <ele>198.53999999999999</ele>
        <time>2019-07-02T11:49:36Z</time>
      </trkpt>
      <trkpt lat="50.440579354763031" lon="5.274376189336181">
        <ele>196.49000000000001</ele>
        <time>2019-07-02T11:49:42Z</time>
      </trkpt>
      <trkpt lat="50.440815221518278" lon="5.274425894021988">
        <ele>196.56999999999999</ele>
        <time>2019-07-02T11:49:54Z</time>
      </trkpt>
      <trkpt lat="50.440937513485551" lon="5.274420278146863">
        <ele>195.88</ele>
        <time>2019-07-02T11:50:06Z</time>
      </trkpt>
      <trkpt lat="50.440997024998069" lon="5.274407705292106">
        <ele>195.91</ele>
        <time>2019-07-02T11:50:08Z</time>
      </trkpt>
      <trkpt lat="50.441466076299548" lon="5.273947035893798">
        <ele>199.16999999999999</ele>
        <time>2019-07-02T11:50:45Z</time>
      </trkpt>
      <trkpt lat="50.441518379375339" lon="5.273894397541881">
        <ele>199.28999999999999</ele>
        <time>2019-07-02T11:50:53Z</time>
      </trkpt>
      <trkpt lat="50.441864300519228" lon="5.273973355069757">
        <ele>201.75</ele>
        <time>2019-07-02T11:51:07Z</time>
      </trkpt>
      <trkpt lat="50.442090528085828" lon="5.27410889044404">
        <ele>204.91</ele>
        <time>2019-07-02T11:51:15Z</time>
      </trkpt>
      <trkpt lat="50.442164540290833" lon="5.274143759161234">
        <ele>206.16</ele>
        <time>2019-07-02T11:51:18Z</time>
      </trkpt>
      <trkpt lat="50.442285491153598" lon="5.274198157712817">
        <ele>208.25999999999999</ele>
        <time>2019-07-02T11:51:23Z</time>
      </trkpt>
      <trkpt lat="50.442458828911185" lon="5.274340817704797">
        <ele>211.44999999999999</ele>
        <time>2019-07-02T11:51:31Z</time>
      </trkpt>
      <trkpt lat="50.442688073962927" lon="5.274471323937178">
        <ele>214.25</ele>
        <time>2019-07-02T11:51:41Z</time>
      </trkpt>
      <trkpt lat="50.442705843597651" lon="5.274470066651702">
        <ele>214.25999999999999</ele>
        <time>2019-07-02T11:51:42Z</time>
      </trkpt>
      <trkpt lat="50.442861160263419" lon="5.274442825466394">
        <ele>216</ele>
        <time>2019-07-02T11:51:47Z</time>
      </trkpt>
      <trkpt lat="50.442905751988292" lon="5.27442597784102">
        <ele>216.91</ele>
        <time>2019-07-02T11:51:48Z</time>
      </trkpt>
      <trkpt lat="50.442937184125185" lon="5.274412734434009">
        <ele>217</ele>
        <time>2019-07-02T11:51:49Z</time>
      </trkpt>
      <trkpt lat="50.443204063922167" lon="5.27445481158793">
        <ele>222.22</ele>
        <time>2019-07-02T11:51:59Z</time>
      </trkpt>
      <trkpt lat="50.443418892100453" lon="5.274556400254369">
        <ele>222.91999999999999</ele>
        <time>2019-07-02T11:52:07Z</time>
      </trkpt>
      <trkpt lat="50.443557780236006" lon="5.274586575105786">
        <ele>224.46000000000001</ele>
        <time>2019-07-02T11:52:14Z</time>
      </trkpt>
      <trkpt lat="50.443603880703449" lon="5.274592526257038">
        <ele>224.68000000000001</ele>
        <time>2019-07-02T11:52:15Z</time>
      </trkpt>
      <trkpt lat="50.443736650049686" lon="5.27460970915854">
        <ele>224.46000000000001</ele>
        <time>2019-07-02T11:52:18Z</time>
      </trkpt>
      <trkpt lat="50.443771854043007" lon="5.274615241214633">
        <ele>225.47</ele>
        <time>2019-07-02T11:52:19Z</time>
      </trkpt>
      <trkpt lat="50.443859361112118" lon="5.274616414681077">
        <ele>225.24000000000001</ele>
        <time>2019-07-02T11:52:23Z</time>
      </trkpt>
      <trkpt lat="50.443983329460025" lon="5.274652289226651">
        <ele>226.30000000000001</ele>
        <time>2019-07-02T11:52:30Z</time>
      </trkpt>
      <trkpt lat="50.444319946691394" lon="5.274691600352526">
        <ele>227.94</ele>
        <time>2019-07-02T11:52:37Z</time>
      </trkpt>
      <trkpt lat="50.444487417116761" lon="5.27471674606204">
        <ele>228.09</ele>
        <time>2019-07-02T11:52:43Z</time>
      </trkpt>
      <trkpt lat="50.444623539224267" lon="5.274684727191925">
        <ele>228.75999999999999</ele>
        <time>2019-07-02T11:52:52Z</time>
      </trkpt>
      <trkpt lat="50.44466863386333" lon="5.274676596745849">
        <ele>228.81999999999999</ele>
        <time>2019-07-02T11:52:53Z</time>
      </trkpt>
      <trkpt lat="50.444782460108399" lon="5.274466797709465">
        <ele>228.81</ele>
        <time>2019-07-02T11:53:07Z</time>
      </trkpt>
      <trkpt lat="50.444766534492373" lon="5.27444307692349">
        <ele>228.78999999999999</ele>
        <time>2019-07-02T11:53:08Z</time>
      </trkpt>
      <trkpt lat="50.444709034636617" lon="5.274287676438689">
        <ele>228.84999999999999</ele>
        <time>2019-07-02T11:53:17Z</time>
      </trkpt>
      <trkpt lat="50.444706100970507" lon="5.274265632033348">
        <ele>228.86000000000001</ele>
        <time>2019-07-02T11:53:19Z</time>
      </trkpt>
      <trkpt lat="50.444646505638957" lon="5.274108052253723">
        <ele>228.93000000000001</ele>
        <time>2019-07-02T11:53:29Z</time>
      </trkpt>
      <trkpt lat="50.444569308310747" lon="5.273954411968589">
        <ele>228.97</ele>
        <time>2019-07-02T11:53:38Z</time>
      </trkpt>
      <trkpt lat="50.444544665515423" lon="5.2738899551332">
        <ele>229</ele>
        <time>2019-07-02T11:53:41Z</time>
      </trkpt>
      <trkpt lat="50.444537037983537" lon="5.27387386187911">
        <ele>229.00999999999999</ele>
        <time>2019-07-02T11:53:42Z</time>
      </trkpt>
      <trkpt lat="50.44453133828938" lon="5.273856176063418">
        <ele>229.03</ele>
        <time>2019-07-02T11:53:43Z</time>
      </trkpt>
      <trkpt lat="50.444489931687713" lon="5.273777302354574">
        <ele>229.11000000000001</ele>
        <time>2019-07-02T11:53:52Z</time>
      </trkpt>
      <trkpt lat="50.44440720230341" lon="5.273671606555581">
        <ele>229.16</ele>
        <time>2019-07-02T11:54:01Z</time>
      </trkpt>
      <trkpt lat="50.444328747689724" lon="5.273530287668109">
        <ele>230.06</ele>
        <time>2019-07-02T11:54:11Z</time>
      </trkpt>
      <trkpt lat="50.44429924339056" lon="5.273396680131555">
        <ele>230.15000000000001</ele>
        <time>2019-07-02T11:54:22Z</time>
      </trkpt>
      <trkpt lat="50.444213161244988" lon="5.273206662386656">
        <ele>231.06</ele>
        <time>2019-07-02T11:54:33Z</time>
      </trkpt>
      <trkpt lat="50.444174520671368" lon="5.273163160309196">
        <ele>231.06</ele>
        <time>2019-07-02T11:54:34Z</time>
      </trkpt>
      <trkpt lat="50.444120289757848" lon="5.273068025708199">
        <ele>231.09999999999999</ele>
        <time>2019-07-02T11:54:39Z</time>
      </trkpt>
      <trkpt lat="50.444085085764527" lon="5.273025194182992">
        <ele>231.09</ele>
        <time>2019-07-02T11:54:42Z</time>
      </trkpt>
      <trkpt lat="50.443980060517788" lon="5.272854203358293">
        <ele>231.15000000000001</ele>
        <time>2019-07-02T11:54:52Z</time>
      </trkpt>
      <trkpt lat="50.443928008899093" lon="5.272748004645109">
        <ele>231.19</ele>
        <time>2019-07-02T11:54:59Z</time>
      </trkpt>
      <trkpt lat="50.443915687501431" lon="5.272721936926246">
        <ele>231.19999999999999</ele>
        <time>2019-07-02T11:55:00Z</time>
      </trkpt>
      <trkpt lat="50.443901689723134" lon="5.272698299959302">
        <ele>231.21000000000001</ele>
        <time>2019-07-02T11:55:01Z</time>
      </trkpt>
      <trkpt lat="50.443891966715455" lon="5.27268304489553">
        <ele>231.21000000000001</ele>
        <time>2019-07-02T11:55:02Z</time>
      </trkpt>
      <trkpt lat="50.443813344463706" lon="5.27256821282208">
        <ele>232.08000000000001</ele>
        <time>2019-07-02T11:55:11Z</time>
      </trkpt>
      <trkpt lat="50.443806136026978" lon="5.272515071555972">
        <ele>232.15000000000001</ele>
        <time>2019-07-02T11:55:15Z</time>
      </trkpt>
      <trkpt lat="50.443732123821974" lon="5.272381631657481">
        <ele>232.19</ele>
        <time>2019-07-02T11:55:25Z</time>
      </trkpt>
      <trkpt lat="50.443624081090093" lon="5.272237882018089">
        <ele>232.93000000000001</ele>
        <time>2019-07-02T11:55:34Z</time>
      </trkpt>
      <trkpt lat="50.443501034751534" lon="5.27203856036067">
        <ele>232.97999999999999</ele>
        <time>2019-07-02T11:55:47Z</time>
      </trkpt>
      <trkpt lat="50.443458035588264" lon="5.271974606439471">
        <ele>233</ele>
        <time>2019-07-02T11:55:51Z</time>
      </trkpt>
      <trkpt lat="50.443286374211311" lon="5.271691465750337">
        <ele>233.93000000000001</ele>
        <time>2019-07-02T11:56:07Z</time>
      </trkpt>
      <trkpt lat="50.443282434716821" lon="5.27147269807756">
        <ele>233.96000000000001</ele>
        <time>2019-07-02T11:56:17Z</time>
      </trkpt>
      <trkpt lat="50.44327799230814" lon="5.271440595388413">
        <ele>233.97999999999999</ele>
        <time>2019-07-02T11:56:19Z</time>
      </trkpt>
      <trkpt lat="50.443322835490108" lon="5.271254181861877">
        <ele>234</ele>
        <time>2019-07-02T11:56:29Z</time>
      </trkpt>
      <trkpt lat="50.443328702822328" lon="5.271175224334002">
        <ele>234.00999999999999</ele>
        <time>2019-07-02T11:56:33Z</time>
      </trkpt>
      <trkpt lat="50.443323003128171" lon="5.270889401435852">
        <ele>234.06999999999999</ele>
        <time>2019-07-02T11:56:49Z</time>
      </trkpt>
      <trkpt lat="50.443271622061729" lon="5.27069921605289">
        <ele>234.11000000000001</ele>
        <time>2019-07-02T11:56:59Z</time>
      </trkpt>
      <trkpt lat="50.443273885175586" lon="5.270682536065579">
        <ele>234.09999999999999</ele>
        <time>2019-07-02T11:57:00Z</time>
      </trkpt>
      <trkpt lat="50.443159472197294" lon="5.270130839198828">
        <ele>231.41999999999999</ele>
        <time>2019-07-02T11:57:26Z</time>
      </trkpt>
      <trkpt lat="50.443067941814661" lon="5.269953645765781">
        <ele>231.46000000000001</ele>
        <time>2019-07-02T11:57:37Z</time>
      </trkpt>
      <trkpt lat="50.442956294864416" lon="5.269772093743086">
        <ele>231.53</ele>
        <time>2019-07-02T11:57:49Z</time>
      </trkpt>
      <trkpt lat="50.442849844694138" lon="5.269653154537082">
        <ele>231.53999999999999</ele>
        <time>2019-07-02T11:57:56Z</time>
      </trkpt>
      <trkpt lat="50.442729732021689" lon="5.269516445696354">
        <ele>231.56999999999999</ele>
        <time>2019-07-02T11:58:09Z</time>
      </trkpt>
      <trkpt lat="50.442719673737884" lon="5.269491132348776">
        <ele>231.58000000000001</ele>
        <time>2019-07-02T11:58:11Z</time>
      </trkpt>
      <trkpt lat="50.442540049552917" lon="5.269272280856967">
        <ele>233.97999999999999</ele>
        <time>2019-07-02T11:58:28Z</time>
      </trkpt>
      <trkpt lat="50.442408118396997" lon="5.269116796553135">
        <ele>233.96000000000001</ele>
        <time>2019-07-02T11:58:39Z</time>
      </trkpt>
      <trkpt lat="50.442374339327216" lon="5.269080838188529">
        <ele>233.97</ele>
        <time>2019-07-02T11:58:42Z</time>
      </trkpt>
      <trkpt lat="50.442253556102514" lon="5.268947230651975">
        <ele>233.97999999999999</ele>
        <time>2019-07-02T11:58:51Z</time>
      </trkpt>
      <trkpt lat="50.442185327410698" lon="5.268869195133448">
        <ele>234</ele>
        <time>2019-07-02T11:58:55Z</time>
      </trkpt>
      <trkpt lat="50.442086672410369" lon="5.268744472414255">
        <ele>233.99000000000001</ele>
        <time>2019-07-02T11:59:00Z</time>
      </trkpt>
      <trkpt lat="50.442051803693175" lon="5.268684709444642">
        <ele>233.99000000000001</ele>
        <time>2019-07-02T11:59:03Z</time>
      </trkpt>
      <trkpt lat="50.44203638099134" lon="5.268662245944142">
        <ele>233.99000000000001</ele>
        <time>2019-07-02T11:59:04Z</time>
      </trkpt>
      <trkpt lat="50.442016599699855" lon="5.268638776615262">
        <ele>233.99000000000001</ele>
        <time>2019-07-02T11:59:05Z</time>
      </trkpt>
      <trkpt lat="50.441955747082829" lon="5.268570547923446">
        <ele>234.77000000000001</ele>
        <time>2019-07-02T11:59:10Z</time>
      </trkpt>
      <trkpt lat="50.441797412931919" lon="5.268518747761846">
        <ele>234.78</ele>
        <time>2019-07-02T11:59:20Z</time>
      </trkpt>
      <trkpt lat="50.441592475399375" lon="5.26846518740058">
        <ele>234.81999999999999</ele>
        <time>2019-07-02T11:59:31Z</time>
      </trkpt>
      <trkpt lat="50.441485438495874" lon="5.26843098923564">
        <ele>235.59999999999999</ele>
        <time>2019-07-02T11:59:39Z</time>
      </trkpt>
      <trkpt lat="50.441474793478847" lon="5.268427217379212">
        <ele>235.61000000000001</ele>
        <time>2019-07-02T11:59:40Z</time>
      </trkpt>
      <trkpt lat="50.441435901448131" lon="5.268410621210933">
        <ele>235.63999999999999</ele>
        <time>2019-07-02T11:59:43Z</time>
      </trkpt>
      <trkpt lat="50.441386196762323" lon="5.268394192680717">
        <ele>235.61000000000001</ele>
        <time>2019-07-02T11:59:46Z</time>
      </trkpt>
      <trkpt lat="50.441340934485197" lon="5.268381368368864">
        <ele>235.63</ele>
        <time>2019-07-02T11:59:49Z</time>
      </trkpt>
      <trkpt lat="50.441300198435783" lon="5.268371226266027">
        <ele>235.62</ele>
        <time>2019-07-02T11:59:52Z</time>
      </trkpt>
      <trkpt lat="50.441214703023434" lon="5.26833912357688">
        <ele>236.38999999999999</ele>
        <time>2019-07-02T11:59:58Z</time>
      </trkpt>
      <trkpt lat="50.44115686789155" lon="5.268311714753509">
        <ele>236.38999999999999</ele>
        <time>2019-07-02T12:00:02Z</time>
      </trkpt>
      <trkpt lat="50.441101714968681" lon="5.268281707540155">
        <ele>236.40000000000001</ele>
        <time>2019-07-02T12:00:05Z</time>
      </trkpt>
      <trkpt lat="50.441083945333958" lon="5.268270056694746">
        <ele>237.28</ele>
        <time>2019-07-02T12:00:06Z</time>
      </trkpt>
      <trkpt lat="50.440956372767687" lon="5.268138041719794">
        <ele>237.28</ele>
        <time>2019-07-02T12:00:18Z</time>
      </trkpt>
      <trkpt lat="50.440818490460515" lon="5.267903851345182">
        <ele>237.25999999999999</ele>
        <time>2019-07-02T12:00:35Z</time>
      </trkpt>
      <trkpt lat="50.44079870916903" lon="5.267864121124148">
        <ele>238.12</ele>
        <time>2019-07-02T12:00:37Z</time>
      </trkpt>
      <trkpt lat="50.44079527258873" lon="5.267822965979576">
        <ele>238.09999999999999</ele>
        <time>2019-07-02T12:00:40Z</time>
      </trkpt>
      <trkpt lat="50.440720841288567" lon="5.267671504989266">
        <ele>238.13999999999999</ele>
        <time>2019-07-02T12:00:50Z</time>
      </trkpt>
      <trkpt lat="50.440712291747332" lon="5.267661279067397">
        <ele>238.13</ele>
        <time>2019-07-02T12:00:51Z</time>
      </trkpt>
      <trkpt lat="50.440608942881227" lon="5.267382329329848">
        <ele>238.13999999999999</ele>
        <time>2019-07-02T12:01:05Z</time>
      </trkpt>
      <trkpt lat="50.440487405285239" lon="5.267153335735202">
        <ele>238.16999999999999</ele>
        <time>2019-07-02T12:01:17Z</time>
      </trkpt>
      <trkpt lat="50.440485393628478" lon="5.267111174762249">
        <ele>235.72999999999999</ele>
        <time>2019-07-02T12:01:19Z</time>
      </trkpt>
      <trkpt lat="50.440480532124639" lon="5.267098685726523">
        <ele>235.69999999999999</ele>
        <time>2019-07-02T12:01:20Z</time>
      </trkpt>
      <trkpt lat="50.440458571538329" lon="5.26699441485107">
        <ele>235.65000000000001</ele>
        <time>2019-07-02T12:01:25Z</time>
      </trkpt>
      <trkpt lat="50.440435018390417" lon="5.266927611082792">
        <ele>235.74000000000001</ele>
        <time>2019-07-02T12:01:28Z</time>
      </trkpt>
      <trkpt lat="50.440437532961369" lon="5.266905734315515">
        <ele>235.69</ele>
        <time>2019-07-02T12:01:29Z</time>
      </trkpt>
      <trkpt lat="50.440419428050518" lon="5.26687421835959">
        <ele>235.69</ele>
        <time>2019-07-02T12:01:30Z</time>
      </trkpt>
      <trkpt lat="50.44034767895937" lon="5.266695097088814">
        <ele>234.94999999999999</ele>
        <time>2019-07-02T12:01:42Z</time>
      </trkpt>
      <trkpt lat="50.440297890454531" lon="5.266509354114533">
        <ele>234.96000000000001</ele>
        <time>2019-07-02T12:01:54Z</time>
      </trkpt>
      <trkpt lat="50.440246090292931" lon="5.266229817643762">
        <ele>234.91999999999999</ele>
        <time>2019-07-02T12:02:10Z</time>
      </trkpt>
      <trkpt lat="50.440223878249526" lon="5.265973331406713">
        <ele>234.84999999999999</ele>
        <time>2019-07-02T12:02:25Z</time>
      </trkpt>
      <trkpt lat="50.440202923491597" lon="5.265887333080173">
        <ele>234.86000000000001</ele>
        <time>2019-07-02T12:02:28Z</time>
      </trkpt>
      <trkpt lat="50.440198983997107" lon="5.265798820182681">
        <ele>234.84</ele>
        <time>2019-07-02T12:02:34Z</time>
      </trkpt>
      <trkpt lat="50.440194709226489" lon="5.265743583440781">
        <ele>234.83000000000001</ele>
        <time>2019-07-02T12:02:37Z</time>
      </trkpt>
      <trkpt lat="50.44018984772265" lon="5.265727322548628">
        <ele>234.81999999999999</ele>
        <time>2019-07-02T12:02:38Z</time>
      </trkpt>
      <trkpt lat="50.440173335373402" lon="5.265528336167336">
        <ele>234.72</ele>
        <time>2019-07-02T12:03:04Z</time>
      </trkpt>
      <trkpt lat="50.440135700628161" lon="5.265488941222429">
        <ele>234.66</ele>
        <time>2019-07-02T12:03:19Z</time>
      </trkpt>
      <trkpt lat="50.440116422250867" lon="5.26547921821475">
        <ele>234.65000000000001</ele>
        <time>2019-07-02T12:03:21Z</time>
      </trkpt>
      <trkpt lat="50.440039895474911" lon="5.265381736680865">
        <ele>234.59999999999999</ele>
        <time>2019-07-02T12:04:37Z</time>
      </trkpt>
      <trkpt lat="50.440122624859214" lon="5.265378803014755">
        <ele>234.55000000000001</ele>
        <time>2019-07-02T12:04:42Z</time>
      </trkpt>
      <trkpt lat="50.440216334536672" lon="5.265393974259496">
        <ele>233.75999999999999</ele>
        <time>2019-07-02T12:04:51Z</time>
      </trkpt>
      <trkpt lat="50.440277606248856" lon="5.265399422496557">
        <ele>232.99000000000001</ele>
        <time>2019-07-02T12:04:56Z</time>
      </trkpt>
      <trkpt lat="50.440503330901265" lon="5.265451222658157">
        <ele>229.93000000000001</ele>
        <time>2019-07-02T12:05:10Z</time>
      </trkpt>
      <trkpt lat="50.440637106075883" lon="5.265546441078186">
        <ele>226.83000000000001</ele>
        <time>2019-07-02T12:05:23Z</time>
      </trkpt>
      <trkpt lat="50.440689912065864" lon="5.265607461333275">
        <ele>225.22999999999999</ele>
        <time>2019-07-02T12:05:31Z</time>
      </trkpt>
      <trkpt lat="50.440737437456846" lon="5.265611819922924">
        <ele>224.44999999999999</ele>
        <time>2019-07-02T12:05:37Z</time>
      </trkpt>
      <trkpt lat="50.440980093553662" lon="5.265771159902215">
        <ele>220.94999999999999</ele>
        <time>2019-07-02T12:05:52Z</time>
      </trkpt>
      <trkpt lat="50.441429363563657" lon="5.265629086643457">
        <ele>212.56</ele>
        <time>2019-07-02T12:06:28Z</time>
      </trkpt>
      <trkpt lat="50.441445959731936" lon="5.265272101387382">
        <ele>209.30000000000001</ele>
        <time>2019-07-02T12:06:44Z</time>
      </trkpt>
      <trkpt lat="50.441453587263823" lon="5.265206890180707">
        <ele>207.59</ele>
        <time>2019-07-02T12:06:47Z</time>
      </trkpt>
      <trkpt lat="50.441481582820415" lon="5.264966664835811">
        <ele>207.59999999999999</ele>
        <time>2019-07-02T12:06:59Z</time>
      </trkpt>
      <trkpt lat="50.441563976928592" lon="5.264428127557039">
        <ele>205.11000000000001</ele>
        <time>2019-07-02T12:07:23Z</time>
      </trkpt>
      <trkpt lat="50.441571772098541" lon="5.264223776757717">
        <ele>204.28</ele>
        <time>2019-07-02T12:07:31Z</time>
      </trkpt>
      <trkpt lat="50.441547632217407" lon="5.264001153409481">
        <ele>203.53999999999999</ele>
        <time>2019-07-02T12:07:45Z</time>
      </trkpt>
      <trkpt lat="50.441572275012732" lon="5.26368398219347">
        <ele>202.75999999999999</ele>
        <time>2019-07-02T12:08:04Z</time>
      </trkpt>
      <trkpt lat="50.441587865352631" lon="5.263449288904667">
        <ele>202</ele>
        <time>2019-07-02T12:08:19Z</time>
      </trkpt>
      <trkpt lat="50.441594319418073" lon="5.26325449347496">
        <ele>201.13</ele>
        <time>2019-07-02T12:08:26Z</time>
      </trkpt>
      <trkpt lat="50.441607730463147" lon="5.2632109913975">
        <ele>200.33000000000001</ele>
        <time>2019-07-02T12:08:29Z</time>
      </trkpt>
      <trkpt lat="50.441653998568654" lon="5.262970011681318">
        <ele>199.61000000000001</ele>
        <time>2019-07-02T12:08:42Z</time>
      </trkpt>
      <trkpt lat="50.441660871729255" lon="5.262951487675309">
        <ele>199.59999999999999</ele>
        <time>2019-07-02T12:08:43Z</time>
      </trkpt>
      <trkpt lat="50.441664224490523" lon="5.262924497947097">
        <ele>198.78</ele>
        <time>2019-07-02T12:08:44Z</time>
      </trkpt>
      <trkpt lat="50.441669253632426" lon="5.262804385274649">
        <ele>198.78999999999999</ele>
        <time>2019-07-02T12:08:49Z</time>
      </trkpt>
      <trkpt lat="50.441669337451458" lon="5.262768426910043">
        <ele>198.86000000000001</ele>
        <time>2019-07-02T12:08:51Z</time>
      </trkpt>
      <trkpt lat="50.441673863679171" lon="5.262752501294017">
        <ele>198.03999999999999</ele>
        <time>2019-07-02T12:08:52Z</time>
      </trkpt>
      <trkpt lat="50.44168216176331" lon="5.262685362249613">
        <ele>198.02000000000001</ele>
        <time>2019-07-02T12:08:55Z</time>
      </trkpt>
      <trkpt lat="50.441684760153294" lon="5.262658540159464">
        <ele>198.03999999999999</ele>
        <time>2019-07-02T12:08:56Z</time>
      </trkpt>
      <trkpt lat="50.441688783466816" lon="5.262638088315725">
        <ele>198.03999999999999</ele>
        <time>2019-07-02T12:08:57Z</time>
      </trkpt>
      <trkpt lat="50.441696578636765" lon="5.262618390843272">
        <ele>198.06</ele>
        <time>2019-07-02T12:08:58Z</time>
      </trkpt>
      <trkpt lat="50.441709822043777" lon="5.262602046132088">
        <ele>196.34999999999999</ele>
        <time>2019-07-02T12:08:59Z</time>
      </trkpt>
      <trkpt lat="50.441714264452457" lon="5.262577570974827">
        <ele>196.37</ele>
        <time>2019-07-02T12:09:00Z</time>
      </trkpt>
      <trkpt lat="50.441718874499202" lon="5.262557035312057">
        <ele>196.34999999999999</ele>
        <time>2019-07-02T12:09:01Z</time>
      </trkpt>
      <trkpt lat="50.441762125119567" lon="5.262386631220579">
        <ele>196.38999999999999</ele>
        <time>2019-07-02T12:09:11Z</time>
      </trkpt>
      <trkpt lat="50.441803531721234" lon="5.262255789712071">
        <ele>195.65000000000001</ele>
        <time>2019-07-02T12:09:18Z</time>
      </trkpt>
      <trkpt lat="50.441811494529247" lon="5.262243384495378">
        <ele>195.56</ele>
        <time>2019-07-02T12:09:19Z</time>
      </trkpt>
      <trkpt lat="50.441937977448106" lon="5.26210374198854">
        <ele>192.86000000000001</ele>
        <time>2019-07-02T12:09:31Z</time>
      </trkpt>
      <trkpt lat="50.441943174228072" lon="5.262088738381863">
        <ele>192.75</ele>
        <time>2019-07-02T12:09:32Z</time>
      </trkpt>
      <trkpt lat="50.441946862265468" lon="5.262070214375854">
        <ele>191.63999999999999</ele>
        <time>2019-07-02T12:09:34Z</time>
      </trkpt>
      <trkpt lat="50.442438879981637" lon="5.261554894968867">
        <ele>187.66</ele>
        <time>2019-07-02T12:10:22Z</time>
      </trkpt>
      <trkpt lat="50.442485399544239" lon="5.26150569319725">
        <ele>187.63999999999999</ele>
        <time>2019-07-02T12:10:25Z</time>
      </trkpt>
      <trkpt lat="50.442623281851411" lon="5.261407708749175">
        <ele>187.62</ele>
        <time>2019-07-02T12:10:35Z</time>
      </trkpt>
      <trkpt lat="50.442772898823023" lon="5.261265300214291">
        <ele>187.59999999999999</ele>
        <time>2019-07-02T12:10:49Z</time>
      </trkpt>
      <trkpt lat="50.442803492769599" lon="5.261257588863373">
        <ele>187.59</ele>
        <time>2019-07-02T12:10:51Z</time>
      </trkpt>
      <trkpt lat="50.442920923233032" lon="5.261348281055689">
        <ele>186.81</ele>
        <time>2019-07-02T12:11:00Z</time>
      </trkpt>
      <trkpt lat="50.442932238802314" lon="5.261364793404937">
        <ele>186.77000000000001</ele>
        <time>2019-07-02T12:11:01Z</time>
      </trkpt>
      <trkpt lat="50.442943805828691" lon="5.261385999619961">
        <ele>186.78</ele>
        <time>2019-07-02T12:11:02Z</time>
      </trkpt>
      <trkpt lat="50.443010441958904" lon="5.261467387899756">
        <ele>186.75</ele>
        <time>2019-07-02T12:11:11Z</time>
      </trkpt>
      <trkpt lat="50.44305712915957" lon="5.261515667662025">
        <ele>186.75</ele>
        <time>2019-07-02T12:11:25Z</time>
      </trkpt>
      <trkpt lat="50.443067690357566" lon="5.261534862220287">
        <ele>186.75999999999999</ele>
        <time>2019-07-02T12:11:27Z</time>
      </trkpt>
      <trkpt lat="50.44319442473352" lon="5.261667296290398">
        <ele>186.75</ele>
        <time>2019-07-02T12:11:39Z</time>
      </trkpt>
      <trkpt lat="50.443211356177926" lon="5.261698979884386">
        <ele>186.75</ele>
        <time>2019-07-02T12:11:41Z</time>
      </trkpt>
      <trkpt lat="50.443239100277424" lon="5.261755473911762">
        <ele>189.13999999999999</ele>
        <time>2019-07-02T12:11:46Z</time>
      </trkpt>
      <trkpt lat="50.443283524364233" lon="5.261789001524448">
        <ele>189.96000000000001</ele>
        <time>2019-07-02T12:11:50Z</time>
      </trkpt>
      <trkpt lat="50.44342752546072" lon="5.261875502765179">
        <ele>190.75</ele>
        <time>2019-07-02T12:12:06Z</time>
      </trkpt>
      <trkpt lat="50.443599773570895" lon="5.262034675106406">
        <ele>192.41999999999999</ele>
        <time>2019-07-02T12:12:22Z</time>
      </trkpt>
      <trkpt lat="50.443761460483074" lon="5.262203989550471">
        <ele>191.83000000000001</ele>
        <time>2019-07-02T12:12:35Z</time>
      </trkpt>
      <trkpt lat="50.443796580657363" lon="5.262240199372172">
        <ele>194.75999999999999</ele>
        <time>2019-07-02T12:12:38Z</time>
      </trkpt>
      <trkpt lat="50.443926332518458" lon="5.262393839657307">
        <ele>195.61000000000001</ele>
        <time>2019-07-02T12:12:51Z</time>
      </trkpt>
      <trkpt lat="50.44403538107872" lon="5.262466426938772">
        <ele>195.58000000000001</ele>
        <time>2019-07-02T12:13:03Z</time>
      </trkpt>
      <trkpt lat="50.444075027480721" lon="5.262434994801879">
        <ele>196.53</ele>
        <time>2019-07-02T12:13:07Z</time>
      </trkpt>
      <trkpt lat="50.444080475717783" lon="5.262417225167155">
        <ele>196.52000000000001</ele>
        <time>2019-07-02T12:13:08Z</time>
      </trkpt>
      <trkpt lat="50.444082403555512" lon="5.262397192418575">
        <ele>196.52000000000001</ele>
        <time>2019-07-02T12:13:09Z</time>
      </trkpt>
      <trkpt lat="50.444089695811272" lon="5.262377494946122">
        <ele>196.52000000000001</ele>
        <time>2019-07-02T12:13:10Z</time>
      </trkpt>
      <trkpt lat="50.444159852340817" lon="5.262220585718751">
        <ele>197.31</ele>
        <time>2019-07-02T12:13:23Z</time>
      </trkpt>
      <trkpt lat="50.444276696071029" lon="5.262059234082699">
        <ele>197.27000000000001</ele>
        <time>2019-07-02T12:13:46Z</time>
      </trkpt>
      <trkpt lat="50.4443368781358" lon="5.26184817776084">
        <ele>198.38999999999999</ele>
        <time>2019-07-02T12:13:58Z</time>
      </trkpt>
      <trkpt lat="50.444406950846314" lon="5.261664865538478">
        <ele>198.38999999999999</ele>
        <time>2019-07-02T12:14:10Z</time>
      </trkpt>
      <trkpt lat="50.444466797634959" lon="5.261552799493074">
        <ele>198.40000000000001</ele>
        <time>2019-07-02T12:14:21Z</time>
      </trkpt>
      <trkpt lat="50.444585317745805" lon="5.261526396498084">
        <ele>198.40000000000001</ele>
        <time>2019-07-02T12:14:31Z</time>
      </trkpt>
      <trkpt lat="50.444634687155485" lon="5.261588338762522">
        <ele>198.41999999999999</ele>
        <time>2019-07-02T12:14:36Z</time>
      </trkpt>
      <trkpt lat="50.444638459011912" lon="5.261604348197579">
        <ele>198.41999999999999</ele>
        <time>2019-07-02T12:14:37Z</time>
      </trkpt>
      <trkpt lat="50.444648014381528" lon="5.261623207479715">
        <ele>198.43000000000001</ele>
        <time>2019-07-02T12:14:38Z</time>
      </trkpt>
      <trkpt lat="50.444662598893046" lon="5.261643659323454">
        <ele>198.43000000000001</ele>
        <time>2019-07-02T12:14:39Z</time>
      </trkpt>
      <trkpt lat="50.444675590842962" lon="5.261658327654004">
        <ele>198.43000000000001</ele>
        <time>2019-07-02T12:14:40Z</time>
      </trkpt>
      <trkpt lat="50.444732252508402" lon="5.261796796694398">
        <ele>198.44999999999999</ele>
        <time>2019-07-02T12:14:49Z</time>
      </trkpt>
      <trkpt lat="50.444741472601891" lon="5.261810291558504">
        <ele>198.44999999999999</ele>
        <time>2019-07-02T12:14:50Z</time>
      </trkpt>
      <trkpt lat="50.444800145924091" lon="5.261950772255659">
        <ele>198.44999999999999</ele>
        <time>2019-07-02T12:14:59Z</time>
      </trkpt>
      <trkpt lat="50.444797296077013" lon="5.261988993734121">
        <ele>198.47</ele>
        <time>2019-07-02T12:15:01Z</time>
      </trkpt>
      <trkpt lat="50.444813221693039" lon="5.26202168315649">
        <ele>198.44999999999999</ele>
        <time>2019-07-02T12:15:03Z</time>
      </trkpt>
      <trkpt lat="50.444823112338781" lon="5.262038446962833">
        <ele>198.47</ele>
        <time>2019-07-02T12:15:04Z</time>
      </trkpt>
      <trkpt lat="50.444951606914401" lon="5.262167109176517">
        <ele>199.36000000000001</ele>
        <time>2019-07-02T12:15:14Z</time>
      </trkpt>
      <trkpt lat="50.445058895274997" lon="5.262207509949803">
        <ele>199.36000000000001</ele>
        <time>2019-07-02T12:15:23Z</time>
      </trkpt>
      <trkpt lat="50.445158137008548" lon="5.262214886024594">
        <ele>199.38</ele>
        <time>2019-07-02T12:15:31Z</time>
      </trkpt>
      <trkpt lat="50.445209601894021" lon="5.262223267927766">
        <ele>199.37</ele>
        <time>2019-07-02T12:15:36Z</time>
      </trkpt>
      <trkpt lat="50.445356955751777" lon="5.26222687214613">
        <ele>199.38</ele>
        <time>2019-07-02T12:15:46Z</time>
      </trkpt>
      <trkpt lat="50.445477236062288" lon="5.262216562405229">
        <ele>199.40000000000001</ele>
        <time>2019-07-02T12:15:53Z</time>
      </trkpt>
      <trkpt lat="50.445491904392838" lon="5.262216310948134">
        <ele>199.41</ele>
        <time>2019-07-02T12:15:54Z</time>
      </trkpt>
      <trkpt lat="50.445507327094674" lon="5.26221664622426">
        <ele>199.41999999999999</ele>
        <time>2019-07-02T12:15:55Z</time>
      </trkpt>
      <trkpt lat="50.44552274979651" lon="5.262215975672007">
        <ele>199.41999999999999</ele>
        <time>2019-07-02T12:15:56Z</time>
      </trkpt>
      <trkpt lat="50.445715030655265" lon="5.262139365077019">
        <ele>200.34999999999999</ele>
        <time>2019-07-02T12:16:10Z</time>
      </trkpt>
      <trkpt lat="50.44585844501853" lon="5.262093767523766">
        <ele>200.38999999999999</ele>
        <time>2019-07-02T12:16:19Z</time>
      </trkpt>
      <trkpt lat="50.445880489423871" lon="5.262091001495719">
        <ele>200.38999999999999</ele>
        <time>2019-07-02T12:16:20Z</time>
      </trkpt>
      <trkpt lat="50.44589951634407" lon="5.262086475268006">
        <ele>200.38999999999999</ele>
        <time>2019-07-02T12:16:21Z</time>
      </trkpt>
      <trkpt lat="50.445919129997492" lon="5.262082954868674">
        <ele>200.40000000000001</ele>
        <time>2019-07-02T12:16:22Z</time>
      </trkpt>
      <trkpt lat="50.445939833298326" lon="5.26208178140223">
        <ele>200.40000000000001</ele>
        <time>2019-07-02T12:16:23Z</time>
      </trkpt>
      <trkpt lat="50.445955339819193" lon="5.262078261002898">
        <ele>200.40000000000001</ele>
        <time>2019-07-02T12:16:24Z</time>
      </trkpt>
      <trkpt lat="50.445969337597489" lon="5.262076333165169">
        <ele>200.40000000000001</ele>
        <time>2019-07-02T12:16:25Z</time>
      </trkpt>
      <trkpt lat="50.44598207809031" lon="5.262077171355486">
        <ele>200.41</ele>
        <time>2019-07-02T12:16:26Z</time>
      </trkpt>
      <trkpt lat="50.446038488298655" lon="5.26206174865365">
        <ele>200.41999999999999</ele>
        <time>2019-07-02T12:16:30Z</time>
      </trkpt>
      <trkpt lat="50.446149045601487" lon="5.261960327625275">
        <ele>201.25</ele>
        <time>2019-07-02T12:16:40Z</time>
      </trkpt>
      <trkpt lat="50.446182489395142" lon="5.261918669566512">
        <ele>202.50999999999999</ele>
        <time>2019-07-02T12:16:44Z</time>
      </trkpt>
      <trkpt lat="50.446250969544053" lon="5.26184038259089">
        <ele>202.52000000000001</ele>
        <time>2019-07-02T12:16:50Z</time>
      </trkpt>
      <trkpt lat="50.446265302598476" lon="5.26180568151176">
        <ele>202.52000000000001</ele>
        <time>2019-07-02T12:16:52Z</time>
      </trkpt>
      <trkpt lat="50.446271169930696" lon="5.261784642934799">
        <ele>202.53</ele>
        <time>2019-07-02T12:16:53Z</time>
      </trkpt>
      <trkpt lat="50.446279803290963" lon="5.26174901984632">
        <ele>202.53</ele>
        <time>2019-07-02T12:16:55Z</time>
      </trkpt>
      <trkpt lat="50.44627670198679" lon="5.261722030118108">
        <ele>202.53999999999999</ele>
        <time>2019-07-02T12:16:56Z</time>
      </trkpt>
      <trkpt lat="50.446275612339377" lon="5.261697974056006">
        <ele>202.53999999999999</ele>
        <time>2019-07-02T12:16:57Z</time>
      </trkpt>
      <trkpt lat="50.44627427123487" lon="5.261676097288728">
        <ele>202.55000000000001</ele>
        <time>2019-07-02T12:16:58Z</time>
      </trkpt>
      <trkpt lat="50.44627376832068" lon="5.261650951579213">
        <ele>202.55000000000001</ele>
        <time>2019-07-02T12:16:59Z</time>
      </trkpt>
      <trkpt lat="50.446271002292633" lon="5.261630332097411">
        <ele>202.55000000000001</ele>
        <time>2019-07-02T12:17:00Z</time>
      </trkpt>
      <trkpt lat="50.446269325911999" lon="5.26161314919591">
        <ele>202.56</ele>
        <time>2019-07-02T12:17:01Z</time>
      </trkpt>
      <trkpt lat="50.446264799684286" lon="5.26159311644733">
        <ele>202.56</ele>
        <time>2019-07-02T12:17:02Z</time>
      </trkpt>
      <trkpt lat="50.44626496732235" lon="5.261575095355511">
        <ele>202.56</ele>
        <time>2019-07-02T12:17:03Z</time>
      </trkpt>
      <trkpt lat="50.446232864633203" lon="5.26137275621295">
        <ele>202.58000000000001</ele>
        <time>2019-07-02T12:17:12Z</time>
      </trkpt>
      <trkpt lat="50.446184668689966" lon="5.2610351331532">
        <ele>202.61000000000001</ele>
        <time>2019-07-02T12:17:28Z</time>
      </trkpt>
      <trkpt lat="50.446161283180118" lon="5.260800523683429">
        <ele>202.63</ele>
        <time>2019-07-02T12:17:40Z</time>
      </trkpt>
      <trkpt lat="50.446141920983791" lon="5.260524759069085">
        <ele>202.66</ele>
        <time>2019-07-02T12:17:53Z</time>
      </trkpt>
      <trkpt lat="50.446118954569101" lon="5.260204067453742">
        <ele>203.56</ele>
        <time>2019-07-02T12:18:07Z</time>
      </trkpt>
      <trkpt lat="50.446105124428868" lon="5.259875832125545">
        <ele>204.31999999999999</ele>
        <time>2019-07-02T12:18:22Z</time>
      </trkpt>
      <trkpt lat="50.446092886850238" lon="5.259778518229723">
        <ele>204.33000000000001</ele>
        <time>2019-07-02T12:18:26Z</time>
      </trkpt>
      <trkpt lat="50.446094227954745" lon="5.259754043072462">
        <ele>204.33000000000001</ele>
        <time>2019-07-02T12:18:27Z</time>
      </trkpt>
      <trkpt lat="50.446098586544394" lon="5.259731495752931">
        <ele>204.33000000000001</ele>
        <time>2019-07-02T12:18:28Z</time>
      </trkpt>
      <trkpt lat="50.446104453876615" lon="5.259712217375636">
        <ele>204.34</ele>
        <time>2019-07-02T12:18:29Z</time>
      </trkpt>
      <trkpt lat="50.446108393371105" lon="5.259689334779978">
        <ele>204.34</ele>
        <time>2019-07-02T12:18:30Z</time>
      </trkpt>
      <trkpt lat="50.446149967610836" lon="5.259594283998013">
        <ele>204.34</ele>
        <time>2019-07-02T12:18:36Z</time>
      </trkpt>
      <trkpt lat="50.446156924590468" lon="5.259574837982655">
        <ele>204.34</ele>
        <time>2019-07-02T12:18:37Z</time>
      </trkpt>
      <trkpt lat="50.44616530649364" lon="5.259555811062455">
        <ele>204.34</ele>
        <time>2019-07-02T12:18:38Z</time>
      </trkpt>
      <trkpt lat="50.446174526587129" lon="5.259537035599351">
        <ele>204.34999999999999</ele>
        <time>2019-07-02T12:18:39Z</time>
      </trkpt>
      <trkpt lat="50.446181148290634" lon="5.259515410289168">
        <ele>205.47</ele>
        <time>2019-07-02T12:18:40Z</time>
      </trkpt>
      <trkpt lat="50.446189362555742" lon="5.259496467188001">
        <ele>205.47</ele>
        <time>2019-07-02T12:18:41Z</time>
      </trkpt>
      <trkpt lat="50.446198415011168" lon="5.259479116648436">
        <ele>205.47</ele>
        <time>2019-07-02T12:18:42Z</time>
      </trkpt>
      <trkpt lat="50.446285586804152" lon="5.259303264319897">
        <ele>206.80000000000001</ele>
        <time>2019-07-02T12:18:51Z</time>
      </trkpt>
      <trkpt lat="50.446428498253226" lon="5.259003611281514">
        <ele>206.81999999999999</ele>
        <time>2019-07-02T12:19:07Z</time>
      </trkpt>
      <trkpt lat="50.446437383070588" lon="5.258981566876173">
        <ele>206.83000000000001</ele>
        <time>2019-07-02T12:19:08Z</time>
      </trkpt>
      <trkpt lat="50.446590101346374" lon="5.258710328489542">
        <ele>206.86000000000001</ele>
        <time>2019-07-02T12:19:23Z</time>
      </trkpt>
      <trkpt lat="50.446691354736686" lon="5.25856951251626">
        <ele>207.72999999999999</ele>
        <time>2019-07-02T12:19:32Z</time>
      </trkpt>
      <trkpt lat="50.446704095229506" lon="5.258555095642805">
        <ele>207.75999999999999</ele>
        <time>2019-07-02T12:19:33Z</time>
      </trkpt>
      <trkpt lat="50.446716584265232" lon="5.258539421483874">
        <ele>207.75999999999999</ele>
        <time>2019-07-02T12:19:34Z</time>
      </trkpt>
      <trkpt lat="50.446791686117649" lon="5.258375303819776">
        <ele>209.03999999999999</ele>
        <time>2019-07-02T12:19:43Z</time>
      </trkpt>
      <trkpt lat="50.44692805968225" lon="5.258196182549">
        <ele>209.05000000000001</ele>
        <time>2019-07-02T12:19:55Z</time>
      </trkpt>
      <trkpt lat="50.4469392914325" lon="5.258185034617782">
        <ele>209.05000000000001</ele>
        <time>2019-07-02T12:19:56Z</time>
      </trkpt>
      <trkpt lat="50.446951780468225" lon="5.258174557238817">
        <ele>209.05000000000001</ele>
        <time>2019-07-02T12:19:57Z</time>
      </trkpt>
      <trkpt lat="50.446975417435169" lon="5.258151842281222">
        <ele>209.06</ele>
        <time>2019-07-02T12:19:59Z</time>
      </trkpt>
      <trkpt lat="50.447063595056534" lon="5.25802074931562">
        <ele>209.09999999999999</ele>
        <time>2019-07-02T12:20:07Z</time>
      </trkpt>
      <trkpt lat="50.44710055924952" lon="5.257962495088577">
        <ele>209.09</ele>
        <time>2019-07-02T12:20:11Z</time>
      </trkpt>
      <trkpt lat="50.447253612801433" lon="5.257750265300274">
        <ele>211.15000000000001</ele>
        <time>2019-07-02T12:20:25Z</time>
      </trkpt>
      <trkpt lat="50.44732728973031" lon="5.257639037445188">
        <ele>212.22999999999999</ele>
        <time>2019-07-02T12:20:32Z</time>
      </trkpt>
      <trkpt lat="50.44738638214767" lon="5.257539795711637">
        <ele>212.27000000000001</ele>
        <time>2019-07-02T12:20:38Z</time>
      </trkpt>
      <trkpt lat="50.447393339127302" lon="5.257524373009801">
        <ele>213.25</ele>
        <time>2019-07-02T12:20:39Z</time>
      </trkpt>
      <trkpt lat="50.447451174259186" lon="5.257446924224496">
        <ele>213.22</ele>
        <time>2019-07-02T12:20:45Z</time>
      </trkpt>
      <trkpt lat="50.447463914752007" lon="5.257435105741024">
        <ele>214.22</ele>
        <time>2019-07-02T12:20:46Z</time>
      </trkpt>
      <trkpt lat="50.447472631931305" lon="5.25741876102984">
        <ele>214.21000000000001</ele>
        <time>2019-07-02T12:20:47Z</time>
      </trkpt>
      <trkpt lat="50.447479924187064" lon="5.257405349984765">
        <ele>214.22</ele>
        <time>2019-07-02T12:20:48Z</time>
      </trkpt>
      <trkpt lat="50.447491239756346" lon="5.257395124062896">
        <ele>214.22999999999999</ele>
        <time>2019-07-02T12:20:49Z</time>
      </trkpt>
      <trkpt lat="50.44750171713531" lon="5.257386574521661">
        <ele>214.22</ele>
        <time>2019-07-02T12:20:50Z</time>
      </trkpt>
      <trkpt lat="50.447648735716939" lon="5.257182391360402">
        <ele>215.96000000000001</ele>
        <time>2019-07-02T12:21:04Z</time>
      </trkpt>
      <trkpt lat="50.447787456214428" lon="5.256965300068259">
        <ele>217.53</ele>
        <time>2019-07-02T12:21:19Z</time>
      </trkpt>
      <trkpt lat="50.447801286354661" lon="5.256956331431866">
        <ele>217.52000000000001</ele>
        <time>2019-07-02T12:21:20Z</time>
      </trkpt>
      <trkpt lat="50.447814613580704" lon="5.256943423300982">
        <ele>217.52000000000001</ele>
        <time>2019-07-02T12:21:21Z</time>
      </trkpt>
      <trkpt lat="50.447832802310586" lon="5.256930179893971">
        <ele>218.41999999999999</ele>
        <time>2019-07-02T12:21:22Z</time>
      </trkpt>
      <trkpt lat="50.447844117879868" lon="5.256917104125023">
        <ele>218.41999999999999</ele>
        <time>2019-07-02T12:21:23Z</time>
      </trkpt>
      <trkpt lat="50.447852667421103" lon="5.25690134614706">
        <ele>218.41</ele>
        <time>2019-07-02T12:21:24Z</time>
      </trkpt>
      <trkpt lat="50.44786180369556" lon="5.256885169073939">
        <ele>218.41</ele>
        <time>2019-07-02T12:21:25Z</time>
      </trkpt>
      <trkpt lat="50.447872448712587" lon="5.256872260943055">
        <ele>218.40000000000001</ele>
        <time>2019-07-02T12:21:26Z</time>
      </trkpt>
      <trkpt lat="50.447881417348981" lon="5.256859268993139">
        <ele>218.41</ele>
        <time>2019-07-02T12:21:27Z</time>
      </trkpt>
      <trkpt lat="50.447889044880867" lon="5.256845019757748">
        <ele>218.41</ele>
        <time>2019-07-02T12:21:28Z</time>
      </trkpt>
      <trkpt lat="50.447905724868178" lon="5.256807971745729">
        <ele>220.25</ele>
        <time>2019-07-02T12:21:30Z</time>
      </trkpt>
      <trkpt lat="50.447929948568344" lon="5.256733456626535">
        <ele>220.22999999999999</ele>
        <time>2019-07-02T12:21:34Z</time>
      </trkpt>
      <trkpt lat="50.447933720424771" lon="5.256718453019857">
        <ele>220.24000000000001</ele>
        <time>2019-07-02T12:21:35Z</time>
      </trkpt>
      <trkpt lat="50.448023742064834" lon="5.256595993414521">
        <ele>220.21000000000001</ele>
        <time>2019-07-02T12:21:45Z</time>
      </trkpt>
      <trkpt lat="50.44803824275732" lon="5.256557939574122">
        <ele>220.19</ele>
        <time>2019-07-02T12:21:47Z</time>
      </trkpt>
      <trkpt lat="50.448212837800384" lon="5.256318468600512">
        <ele>221.78</ele>
        <time>2019-07-02T12:22:03Z</time>
      </trkpt>
      <trkpt lat="50.448311576619744" lon="5.256203971803188">
        <ele>222.78</ele>
        <time>2019-07-02T12:22:11Z</time>
      </trkpt>
      <trkpt lat="50.448322808369994" lon="5.256189303472638">
        <ele>223.62</ele>
        <time>2019-07-02T12:22:12Z</time>
      </trkpt>
      <trkpt lat="50.448331777006388" lon="5.256175976246595">
        <ele>223.63</ele>
        <time>2019-07-02T12:22:13Z</time>
      </trkpt>
      <trkpt lat="50.448345188051462" lon="5.256167929619551">
        <ele>223.62</ele>
        <time>2019-07-02T12:22:14Z</time>
      </trkpt>
      <trkpt lat="50.448357090353966" lon="5.256156111136079">
        <ele>223.61000000000001</ele>
        <time>2019-07-02T12:22:15Z</time>
      </trkpt>
      <trkpt lat="50.44848969206214" lon="5.256004231050611">
        <ele>224.33000000000001</ele>
        <time>2019-07-02T12:22:26Z</time>
      </trkpt>
      <trkpt lat="50.448592454195023" lon="5.255882777273655">
        <ele>226.06</ele>
        <time>2019-07-02T12:22:33Z</time>
      </trkpt>
      <trkpt lat="50.448833853006363" lon="5.25560692884028">
        <ele>226.00999999999999</ele>
        <time>2019-07-02T12:22:51Z</time>
      </trkpt>
      <trkpt lat="50.448959078639746" lon="5.255445996299386">
        <ele>226.86000000000001</ele>
        <time>2019-07-02T12:23:02Z</time>
      </trkpt>
      <trkpt lat="50.448971400037408" lon="5.255428561940789">
        <ele>226.84999999999999</ele>
        <time>2019-07-02T12:23:03Z</time>
      </trkpt>
      <trkpt lat="50.448983553797007" lon="5.255410121753812">
        <ele>226.86000000000001</ele>
        <time>2019-07-02T12:23:04Z</time>
      </trkpt>
      <trkpt lat="50.449175415560603" lon="5.25520283728838">
        <ele>227.68000000000001</ele>
        <time>2019-07-02T12:23:20Z</time>
      </trkpt>
      <trkpt lat="50.449185641482472" lon="5.255187582224608">
        <ele>227.69</ele>
        <time>2019-07-02T12:23:21Z</time>
      </trkpt>
      <trkpt lat="50.449196957051754" lon="5.25517207570374">
        <ele>227.69</ele>
        <time>2019-07-02T12:23:22Z</time>
      </trkpt>
      <trkpt lat="50.449410695582628" lon="5.254926485940814">
        <ele>229.77000000000001</ele>
        <time>2019-07-02T12:23:40Z</time>
      </trkpt>
      <trkpt lat="50.449557797983289" lon="5.254774102941155">
        <ele>231.63999999999999</ele>
        <time>2019-07-02T12:23:52Z</time>
      </trkpt>
      <trkpt lat="50.449718479067087" lon="5.254573104903102">
        <ele>232.53999999999999</ele>
        <time>2019-07-02T12:24:06Z</time>
      </trkpt>
      <trkpt lat="50.449917046353221" lon="5.254357103258371">
        <ele>234.25</ele>
        <time>2019-07-02T12:24:22Z</time>
      </trkpt>
      <trkpt lat="50.450133718550205" lon="5.25411419570446">
        <ele>235.91999999999999</ele>
        <time>2019-07-02T12:24:40Z</time>
      </trkpt>
      <trkpt lat="50.450342008844018" lon="5.253859302029014">
        <ele>238.47</ele>
        <time>2019-07-02T12:24:58Z</time>
      </trkpt>
      <trkpt lat="50.450544012710452" lon="5.253619495779276">
        <ele>239.49000000000001</ele>
        <time>2019-07-02T12:25:14Z</time>
      </trkpt>
      <trkpt lat="50.450711231678724" lon="5.253405002877116">
        <ele>241.36000000000001</ele>
        <time>2019-07-02T12:25:30Z</time>
      </trkpt>
      <trkpt lat="50.450723888352513" lon="5.25339687243104">
        <ele>241.38</ele>
        <time>2019-07-02T12:25:31Z</time>
      </trkpt>
      <trkpt lat="50.4507349524647" lon="5.2533851377666">
        <ele>241.37</ele>
        <time>2019-07-02T12:25:32Z</time>
      </trkpt>
      <trkpt lat="50.450742663815618" lon="5.253369128331542">
        <ele>241.36000000000001</ele>
        <time>2019-07-02T12:25:33Z</time>
      </trkpt>
      <trkpt lat="50.450751464813948" lon="5.253356387838721">
        <ele>241.36000000000001</ele>
        <time>2019-07-02T12:25:34Z</time>
      </trkpt>
      <trkpt lat="50.450761523097754" lon="5.253343814983964">
        <ele>241.37</ele>
        <time>2019-07-02T12:25:35Z</time>
      </trkpt>
      <trkpt lat="50.450772503390908" lon="5.253327637910843">
        <ele>241.37</ele>
        <time>2019-07-02T12:25:36Z</time>
      </trkpt>
      <trkpt lat="50.450833272188902" lon="5.253251194953919">
        <ele>242.25999999999999</ele>
        <time>2019-07-02T12:25:42Z</time>
      </trkpt>
      <trkpt lat="50.45085615478456" lon="5.25321121327579">
        <ele>243.30000000000001</ele>
        <time>2019-07-02T12:25:45Z</time>
      </trkpt>
      <trkpt lat="50.450893873348832" lon="5.253118593245745">
        <ele>244.21000000000001</ele>
        <time>2019-07-02T12:25:51Z</time>
      </trkpt>
      <trkpt lat="50.450973501428962" lon="5.253001833334565">
        <ele>249.49000000000001</ele>
        <time>2019-07-02T12:43:05Z</time>
      </trkpt>
      <trkpt lat="50.4509646166116" lon="5.253018345683813">
        <ele>249.59999999999999</ele>
        <time>2019-07-02T12:43:37Z</time>
      </trkpt>
      <trkpt lat="50.450962018221617" lon="5.252993786707521">
        <ele>249.75</ele>
        <time>2019-07-02T12:44:11Z</time>
      </trkpt>
      <trkpt lat="50.450966795906425" lon="5.252999402582645">
        <ele>249.83000000000001</ele>
        <time>2019-07-02T12:44:42Z</time>
      </trkpt>
      <trkpt lat="50.45096998102963" lon="5.25301088578999">
        <ele>249.93000000000001</ele>
        <time>2019-07-02T12:45:11Z</time>
      </trkpt>
      <trkpt lat="50.451079783961177" lon="5.252881217747927">
        <ele>251.90000000000001</ele>
        <time>2019-07-02T13:14:59Z</time>
      </trkpt>
      <trkpt lat="50.451122866943479" lon="5.252828076481819">
        <ele>254.25</ele>
        <time>2019-07-02T13:15:04Z</time>
      </trkpt>
      <trkpt lat="50.451261335983872" lon="5.2526546549052">
        <ele>256.83999999999997</ele>
        <time>2019-07-02T13:15:21Z</time>
      </trkpt>
      <trkpt lat="50.451384885236621" lon="5.252435971051455">
        <ele>258.49000000000001</ele>
        <time>2019-07-02T13:15:40Z</time>
      </trkpt>
      <trkpt lat="50.452216872945428" lon="5.251617645844817">
        <ele>262.79000000000002</ele>
        <time>2019-07-02T13:16:54Z</time>
      </trkpt>
      <trkpt lat="50.452227601781487" lon="5.251616137102246">
        <ele>262.76999999999998</ele>
        <time>2019-07-02T13:16:55Z</time>
      </trkpt>
      <trkpt lat="50.452295914292336" lon="5.251652179285884">
        <ele>262.63999999999999</ele>
        <time>2019-07-02T13:17:08Z</time>
      </trkpt>
      <trkpt lat="50.452285688370466" lon="5.251644300296903">
        <ele>263.5</ele>
        <time>2019-07-02T13:17:22Z</time>
      </trkpt>
      <trkpt lat="50.452326508238912" lon="5.251601720228791">
        <ele>263.50999999999999</ele>
        <time>2019-07-02T13:17:27Z</time>
      </trkpt>
      <trkpt lat="50.452337404713035" lon="5.251588309183717">
        <ele>263.5</ele>
        <time>2019-07-02T13:17:28Z</time>
      </trkpt>
      <trkpt lat="50.452518872916698" lon="5.251429472118616">
        <ele>264.55000000000001</ele>
        <time>2019-07-02T13:17:45Z</time>
      </trkpt>
      <trkpt lat="50.452708303928375" lon="5.251206513494253">
        <ele>264.44</ele>
        <time>2019-07-02T13:18:01Z</time>
      </trkpt>
      <trkpt lat="50.452864542603493" lon="5.250992020592094">
        <ele>264.29000000000002</ele>
        <time>2019-07-02T13:18:17Z</time>
      </trkpt>
      <trkpt lat="50.45288885012269" lon="5.250959750264883">
        <ele>261.94999999999999</ele>
        <time>2019-07-02T13:18:20Z</time>
      </trkpt>
      <trkpt lat="50.453001586720347" lon="5.250796554610133">
        <ele>261.13</ele>
        <time>2019-07-02T13:18:33Z</time>
      </trkpt>
      <trkpt lat="50.453100660815835" lon="5.250663030892611">
        <ele>258.5</ele>
        <time>2019-07-02T13:18:47Z</time>
      </trkpt>
      <trkpt lat="50.453191688284278" lon="5.25043529458344">
        <ele>254.65000000000001</ele>
        <time>2019-07-02T13:19:06Z</time>
      </trkpt>
      <trkpt lat="50.453435769304633" lon="5.250123487785459">
        <ele>248.81999999999999</ele>
        <time>2019-07-02T13:19:28Z</time>
      </trkpt>
      <trkpt lat="50.453701559454203" lon="5.249914359301329">
        <ele>246.44</ele>
        <time>2019-07-02T13:19:44Z</time>
      </trkpt>
      <trkpt lat="50.453876322135329" lon="5.249735740944743">
        <ele>244.55000000000001</ele>
        <time>2019-07-02T13:20:01Z</time>
      </trkpt>
      <trkpt lat="50.453927787020802" lon="5.249665500596166">
        <ele>242.90000000000001</ele>
        <time>2019-07-02T13:20:09Z</time>
      </trkpt>
      <trkpt lat="50.45398922637105" lon="5.249567097052932">
        <ele>242.03999999999999</ele>
        <time>2019-07-02T13:20:19Z</time>
      </trkpt>
      <trkpt lat="50.454185698181391" lon="5.249446565285325">
        <ele>240.28</ele>
        <time>2019-07-02T13:20:35Z</time>
      </trkpt>
      <trkpt lat="50.454246802255511" lon="5.249305497854948">
        <ele>238.47999999999999</ele>
        <time>2019-07-02T13:20:45Z</time>
      </trkpt>
      <trkpt lat="50.454337745904922" lon="5.249187732115388">
        <ele>236.84</ele>
        <time>2019-07-02T13:20:55Z</time>
      </trkpt>
      <trkpt lat="50.454521812498569" lon="5.248991176486015">
        <ele>233.63</ele>
        <time>2019-07-02T13:21:11Z</time>
      </trkpt>
      <trkpt lat="50.454531367868185" lon="5.248979274183512">
        <ele>233.59999999999999</ele>
        <time>2019-07-02T13:21:12Z</time>
      </trkpt>
      <trkpt lat="50.454610157757998" lon="5.248908028006554">
        <ele>232.22999999999999</ele>
        <time>2019-07-02T13:21:17Z</time>
      </trkpt>
      <trkpt lat="50.454800175502896" lon="5.248646764084697">
        <ele>232.06999999999999</ele>
        <time>2019-07-02T13:21:34Z</time>
      </trkpt>
      <trkpt lat="50.455165123566985" lon="5.248370077461004">
        <ele>230.19</ele>
        <time>2019-07-02T13:21:53Z</time>
      </trkpt>
      <trkpt lat="50.455402499064803" lon="5.248101353645325">
        <ele>227.36000000000001</ele>
        <time>2019-07-02T13:22:14Z</time>
      </trkpt>
      <trkpt lat="50.455571310594678" lon="5.247866492718458">
        <ele>226.49000000000001</ele>
        <time>2019-07-02T13:22:29Z</time>
      </trkpt>
      <trkpt lat="50.455759735777974" lon="5.247610760852695">
        <ele>225.50999999999999</ele>
        <time>2019-07-02T13:22:46Z</time>
      </trkpt>
      <trkpt lat="50.455947406589985" lon="5.247419234365225">
        <ele>222.77000000000001</ele>
        <time>2019-07-02T13:22:59Z</time>
      </trkpt>
      <trkpt lat="50.456117056310177" lon="5.247221756726503">
        <ele>220.78999999999999</ele>
        <time>2019-07-02T13:23:13Z</time>
      </trkpt>
      <trkpt lat="50.456339847296476" lon="5.246926629915834">
        <ele>220.97999999999999</ele>
        <time>2019-07-02T13:23:34Z</time>
      </trkpt>
      <trkpt lat="50.456512682139874" lon="5.246722027659416">
        <ele>220.06</ele>
        <time>2019-07-02T13:23:51Z</time>
      </trkpt>
      <trkpt lat="50.456523830071092" lon="5.246711801737547">
        <ele>220.05000000000001</ele>
        <time>2019-07-02T13:23:52Z</time>
      </trkpt>
      <trkpt lat="50.456737568601966" lon="5.246474258601666">
        <ele>219.00999999999999</ele>
        <time>2019-07-02T13:24:11Z</time>
      </trkpt>
      <trkpt lat="50.45699380338192" lon="5.246196985244751">
        <ele>218.09999999999999</ele>
        <time>2019-07-02T13:24:32Z</time>
      </trkpt>
      <trkpt lat="50.457306280732155" lon="5.24585098028183">
        <ele>216.22999999999999</ele>
        <time>2019-07-02T13:24:58Z</time>
      </trkpt>
      <trkpt lat="50.457568215206265" lon="5.245555937290192">
        <ele>214.12</ele>
        <time>2019-07-02T13:25:21Z</time>
      </trkpt>
      <trkpt lat="50.457796957343817" lon="5.245313197374344">
        <ele>213.19</ele>
        <time>2019-07-02T13:25:40Z</time>
      </trkpt>
      <trkpt lat="50.458063334226608" lon="5.245046066120267">
        <ele>211.41</ele>
        <time>2019-07-02T13:26:02Z</time>
      </trkpt>
      <trkpt lat="50.458249244838953" lon="5.244903657585383">
        <ele>209.72999999999999</ele>
        <time>2019-07-02T13:26:20Z</time>
      </trkpt>
      <trkpt lat="50.458338428288698" lon="5.244822353124619">
        <ele>208.03</ele>
        <time>2019-07-02T13:26:33Z</time>
      </trkpt>
      <trkpt lat="50.458423588424921" lon="5.244765356183052">
        <ele>207.03999999999999</ele>
        <time>2019-07-02T13:26:42Z</time>
      </trkpt>
      <trkpt lat="50.45843624509871" lon="5.24475839920342">
        <ele>207.00999999999999</ele>
        <time>2019-07-02T13:26:43Z</time>
      </trkpt>
      <trkpt lat="50.4586077388376" lon="5.244583217427135">
        <ele>204.19</ele>
        <time>2019-07-02T13:26:58Z</time>
      </trkpt>
      <trkpt lat="50.458804043009877" lon="5.244373753666878">
        <ele>200.66</ele>
        <time>2019-07-02T13:27:14Z</time>
      </trkpt>
      <trkpt lat="50.458817034959793" lon="5.244356403127313">
        <ele>200.62</ele>
        <time>2019-07-02T13:27:15Z</time>
      </trkpt>
      <trkpt lat="50.45900596305728" lon="5.24410561658442">
        <ele>200.63999999999999</ele>
        <time>2019-07-02T13:27:30Z</time>
      </trkpt>
      <trkpt lat="50.459135798737407" lon="5.24378458969295">
        <ele>199.75</ele>
        <time>2019-07-02T13:27:47Z</time>
      </trkpt>
      <trkpt lat="50.4592708311975" lon="5.243411930277944">
        <ele>198.91999999999999</ele>
        <time>2019-07-02T13:28:05Z</time>
      </trkpt>
      <trkpt lat="50.459325481206179" lon="5.243177320808172">
        <ele>197.28999999999999</ele>
        <time>2019-07-02T13:28:18Z</time>
      </trkpt>
      <trkpt lat="50.459272172302008" lon="5.242982944473624">
        <ele>195.40000000000001</ele>
        <time>2019-07-02T13:28:32Z</time>
      </trkpt>
      <trkpt lat="50.459257420152426" lon="5.242954278364778">
        <ele>195.38</ele>
        <time>2019-07-02T13:28:34Z</time>
      </trkpt>
      <trkpt lat="50.459184581413865" lon="5.24282586760819">
        <ele>193.77000000000001</ele>
        <time>2019-07-02T13:28:45Z</time>
      </trkpt>
      <trkpt lat="50.459083747118711" lon="5.242619924247265">
        <ele>192.06999999999999</ele>
        <time>2019-07-02T13:28:58Z</time>
      </trkpt>
      <trkpt lat="50.458893226459622" lon="5.242178617045283">
        <ele>190.47</ele>
        <time>2019-07-02T13:29:20Z</time>
      </trkpt>
      <trkpt lat="50.458803791552782" lon="5.241944426670671">
        <ele>188.86000000000001</ele>
        <time>2019-07-02T13:29:34Z</time>
      </trkpt>
      <trkpt lat="50.458769593387842" lon="5.241900170221925">
        <ele>188.83000000000001</ele>
        <time>2019-07-02T13:29:37Z</time>
      </trkpt>
      <trkpt lat="50.4587597027421" lon="5.241883993148804">
        <ele>187.97</ele>
        <time>2019-07-02T13:29:38Z</time>
      </trkpt>
      <trkpt lat="50.458751656115055" lon="5.241866558790207">
        <ele>187.97999999999999</ele>
        <time>2019-07-02T13:29:39Z</time>
      </trkpt>
      <trkpt lat="50.458740843459964" lon="5.241848202422261">
        <ele>187.96000000000001</ele>
        <time>2019-07-02T13:29:40Z</time>
      </trkpt>
      <trkpt lat="50.458731288090348" lon="5.241830516606569">
        <ele>187.94999999999999</ele>
        <time>2019-07-02T13:29:41Z</time>
      </trkpt>
      <trkpt lat="50.458693066611886" lon="5.241775782778859">
        <ele>187.02000000000001</ele>
        <time>2019-07-02T13:29:45Z</time>
      </trkpt>
      <trkpt lat="50.458684433251619" lon="5.241762287914753">
        <ele>187.02000000000001</ele>
        <time>2019-07-02T13:29:46Z</time>
      </trkpt>
      <trkpt lat="50.45860824175179" lon="5.241669667884708">
        <ele>186.06999999999999</ele>
        <time>2019-07-02T13:29:54Z</time>
      </trkpt>
      <trkpt lat="50.458598518744111" lon="5.241661034524441">
        <ele>186.03999999999999</ele>
        <time>2019-07-02T13:29:55Z</time>
      </trkpt>
      <trkpt lat="50.458528529852629" lon="5.241519045084715">
        <ele>185.19999999999999</ele>
        <time>2019-07-02T13:30:05Z</time>
      </trkpt>
      <trkpt lat="50.45839274302125" lon="5.241245627403259">
        <ele>183.31</ele>
        <time>2019-07-02T13:30:21Z</time>
      </trkpt>
      <trkpt lat="50.458329962566495" lon="5.241010598838329">
        <ele>182.34999999999999</ele>
        <time>2019-07-02T13:30:31Z</time>
      </trkpt>
      <trkpt lat="50.458312276750803" lon="5.240899370983243">
        <ele>179.87</ele>
        <time>2019-07-02T13:30:35Z</time>
      </trkpt>
      <trkpt lat="50.458336668089032" lon="5.240837009623647">
        <ele>182.12</ele>
        <time>2019-07-02T13:30:37Z</time>
      </trkpt>
      <trkpt lat="50.458384109660983" lon="5.240563508123159">
        <ele>178.65000000000001</ele>
        <time>2019-07-02T13:30:46Z</time>
      </trkpt>
      <trkpt lat="50.458393078297377" lon="5.24055034853518">
        <ele>178.62</ele>
        <time>2019-07-02T13:30:47Z</time>
      </trkpt>
      <trkpt lat="50.458412943407893" lon="5.240524699911475">
        <ele>181.31</ele>
        <time>2019-07-02T13:30:49Z</time>
      </trkpt>
      <trkpt lat="50.458478657528758" lon="5.240356391295791">
        <ele>181.25</ele>
        <time>2019-07-02T13:30:58Z</time>
      </trkpt>
      <trkpt lat="50.45849097892642" lon="5.240339292213321">
        <ele>181.22999999999999</ele>
        <time>2019-07-02T13:30:59Z</time>
      </trkpt>
      <trkpt lat="50.458502378314734" lon="5.240319343283773">
        <ele>181.22</ele>
        <time>2019-07-02T13:31:00Z</time>
      </trkpt>
      <trkpt lat="50.458513693884015" lon="5.240311967208982">
        <ele>181.21000000000001</ele>
        <time>2019-07-02T13:31:01Z</time>
      </trkpt>
      <trkpt lat="50.458527021110058" lon="5.240302579477429">
        <ele>181.19999999999999</ele>
        <time>2019-07-02T13:31:02Z</time>
      </trkpt>
      <trkpt lat="50.458537666127086" lon="5.240297801792622">
        <ele>181.18000000000001</ele>
        <time>2019-07-02T13:31:03Z</time>
      </trkpt>
      <trkpt lat="50.458548394963145" lon="5.240286402404308">
        <ele>181.16999999999999</ele>
        <time>2019-07-02T13:31:04Z</time>
      </trkpt>
      <trkpt lat="50.45855987817049" lon="5.24027718231082">
        <ele>181.16</ele>
        <time>2019-07-02T13:31:05Z</time>
      </trkpt>
      <trkpt lat="50.458594830706716" lon="5.240192022174597">
        <ele>181.09</ele>
        <time>2019-07-02T13:31:10Z</time>
      </trkpt>
      <trkpt lat="50.458596339449286" lon="5.240116836503148">
        <ele>180.93000000000001</ele>
        <time>2019-07-02T13:31:27Z</time>
      </trkpt>
      <trkpt lat="50.458585442975163" lon="5.239833276718855">
        <ele>180.81</ele>
        <time>2019-07-02T13:31:43Z</time>
      </trkpt>
      <trkpt lat="50.458579827100039" lon="5.239817937836051">
        <ele>180.81999999999999</ele>
        <time>2019-07-02T13:31:44Z</time>
      </trkpt>
      <trkpt lat="50.458552669733763" lon="5.239735627546907">
        <ele>180.78999999999999</ele>
        <time>2019-07-02T13:31:48Z</time>
      </trkpt>
      <trkpt lat="50.458436999469995" lon="5.239408314228058">
        <ele>180.68000000000001</ele>
        <time>2019-07-02T13:32:03Z</time>
      </trkpt>
      <trkpt lat="50.45840254984796" lon="5.239294152706862">
        <ele>180.65000000000001</ele>
        <time>2019-07-02T13:32:09Z</time>
      </trkpt>
      <trkpt lat="50.458393413573503" lon="5.239274958148599">
        <ele>180.63999999999999</ele>
        <time>2019-07-02T13:32:10Z</time>
      </trkpt>
      <trkpt lat="50.458380924537778" lon="5.239252410829067">
        <ele>180.63</ele>
        <time>2019-07-02T13:32:11Z</time>
      </trkpt>
      <trkpt lat="50.458285035565495" lon="5.238862652331591">
        <ele>180.53999999999999</ele>
        <time>2019-07-02T13:32:29Z</time>
      </trkpt>
      <trkpt lat="50.458280341699719" lon="5.238840440288186">
        <ele>180.53</ele>
        <time>2019-07-02T13:32:30Z</time>
      </trkpt>
      <trkpt lat="50.458276486024261" lon="5.238818228244782">
        <ele>180.53</ele>
        <time>2019-07-02T13:32:31Z</time>
      </trkpt>
      <trkpt lat="50.458177663385868" lon="5.238443808630109">
        <ele>180.46000000000001</ele>
        <time>2019-07-02T13:32:47Z</time>
      </trkpt>
      <trkpt lat="50.458082025870681" lon="5.238309865817428">
        <ele>180.43000000000001</ele>
        <time>2019-07-02T13:32:57Z</time>
      </trkpt>
      <trkpt lat="50.458053192123771" lon="5.238261502236128">
        <ele>180.41999999999999</ele>
        <time>2019-07-02T13:33:00Z</time>
      </trkpt>
      <trkpt lat="50.458041708916426" lon="5.238236356526613">
        <ele>180.41</ele>
        <time>2019-07-02T13:33:01Z</time>
      </trkpt>
      <trkpt lat="50.458031902089715" lon="5.238215485587716">
        <ele>180.41</ele>
        <time>2019-07-02T13:33:02Z</time>
      </trkpt>
      <trkpt lat="50.457971217110753" lon="5.238121692091227">
        <ele>180.38999999999999</ele>
        <time>2019-07-02T13:33:10Z</time>
      </trkpt>
      <trkpt lat="50.457945400848985" lon="5.238069137558341">
        <ele>180.37</ele>
        <time>2019-07-02T13:33:14Z</time>
      </trkpt>
      <trkpt lat="50.457936180755496" lon="5.237994706258178">
        <ele>180.37</ele>
        <time>2019-07-02T13:33:18Z</time>
      </trkpt>
      <trkpt lat="50.457912459969521" lon="5.237852884456515">
        <ele>180.34</ele>
        <time>2019-07-02T13:33:24Z</time>
      </trkpt>
      <trkpt lat="50.457845740020275" lon="5.237694131210446">
        <ele>180.31</ele>
        <time>2019-07-02T13:33:32Z</time>
      </trkpt>
      <trkpt lat="50.457834005355835" lon="5.237667392939329">
        <ele>180.31</ele>
        <time>2019-07-02T13:33:33Z</time>
      </trkpt>
      <trkpt lat="50.457823108881712" lon="5.237652389332652">
        <ele>180.31</ele>
        <time>2019-07-02T13:33:34Z</time>
      </trkpt>
      <trkpt lat="50.457730237394571" lon="5.237489026039839">
        <ele>180.28999999999999</ele>
        <time>2019-07-02T13:33:42Z</time>
      </trkpt>
      <trkpt lat="50.45766519382596" lon="5.237422892823815">
        <ele>181.16999999999999</ele>
        <time>2019-07-02T13:33:47Z</time>
      </trkpt>
      <trkpt lat="50.457647843286395" lon="5.23739866912365">
        <ele>181.18000000000001</ele>
        <time>2019-07-02T13:33:48Z</time>
      </trkpt>
      <trkpt lat="50.45753519050777" lon="5.237168585881591">
        <ele>181.15000000000001</ele>
        <time>2019-07-02T13:33:57Z</time>
      </trkpt>
      <trkpt lat="50.457429494708776" lon="5.237024249508977">
        <ele>181.90000000000001</ele>
        <time>2019-07-02T13:34:05Z</time>
      </trkpt>
      <trkpt lat="50.457370737567544" lon="5.237000193446875">
        <ele>181.90000000000001</ele>
        <time>2019-07-02T13:34:09Z</time>
      </trkpt>
      <trkpt lat="50.457353806123137" lon="5.236998181790113">
        <ele>181.90000000000001</ele>
        <time>2019-07-02T13:34:10Z</time>
      </trkpt>
      <trkpt lat="50.4572141636163" lon="5.236877901479602">
        <ele>181.84999999999999</ele>
        <time>2019-07-02T13:34:20Z</time>
      </trkpt>
      <trkpt lat="50.457178708165884" lon="5.236816881224513">
        <ele>181.84</ele>
        <time>2019-07-02T13:34:23Z</time>
      </trkpt>
      <trkpt lat="50.45706077478826" lon="5.236638514325023">
        <ele>181.77000000000001</ele>
        <time>2019-07-02T13:34:34Z</time>
      </trkpt>
      <trkpt lat="50.457048285752535" lon="5.236623007804155">
        <ele>181.77000000000001</ele>
        <time>2019-07-02T13:34:35Z</time>
      </trkpt>
      <trkpt lat="50.457029677927494" lon="5.236626612022519">
        <ele>181.77000000000001</ele>
        <time>2019-07-02T13:34:36Z</time>
      </trkpt>
      <trkpt lat="50.45701484195888" lon="5.236624851822853">
        <ele>181.78</ele>
        <time>2019-07-02T13:34:37Z</time>
      </trkpt>
      <trkpt lat="50.456867991015315" lon="5.236493088304997">
        <ele>183.24000000000001</ele>
        <time>2019-07-02T13:34:53Z</time>
      </trkpt>
      <trkpt lat="50.45663807541132" lon="5.236236769706011">
        <ele>184.75</ele>
        <time>2019-07-02T13:35:09Z</time>
      </trkpt>
      <trkpt lat="50.456379326060414" lon="5.23603250272572">
        <ele>184.63999999999999</ele>
        <time>2019-07-02T13:35:25Z</time>
      </trkpt>
      <trkpt lat="50.456270528957248" lon="5.235700998455286">
        <ele>186.19999999999999</ele>
        <time>2019-07-02T13:35:40Z</time>
      </trkpt>
      <trkpt lat="50.456287544220686" lon="5.235344851389527">
        <ele>187.94</ele>
        <time>2019-07-02T13:35:55Z</time>
      </trkpt>
      <trkpt lat="50.456328950822353" lon="5.235011419281364">
        <ele>190.53</ele>
        <time>2019-07-02T13:36:11Z</time>
      </trkpt>
      <trkpt lat="50.45633808709681" lon="5.234995074570179">
        <ele>190.52000000000001</ele>
        <time>2019-07-02T13:36:12Z</time>
      </trkpt>
      <trkpt lat="50.456367591395974" lon="5.234968001022935">
        <ele>190.52000000000001</ele>
        <time>2019-07-02T13:36:14Z</time>
      </trkpt>
      <trkpt lat="50.456376392394304" lon="5.234954003244638">
        <ele>191.30000000000001</ele>
        <time>2019-07-02T13:36:15Z</time>
      </trkpt>
      <trkpt lat="50.456449147313833" lon="5.234813690185547">
        <ele>193.02000000000001</ele>
        <time>2019-07-02T13:36:26Z</time>
      </trkpt>
      <trkpt lat="50.456463480368257" lon="5.234795920550823">
        <ele>192.97999999999999</ele>
        <time>2019-07-02T13:36:28Z</time>
      </trkpt>
      <trkpt lat="50.456544533371925" lon="5.234767589718103">
        <ele>194.68000000000001</ele>
        <time>2019-07-02T13:36:39Z</time>
      </trkpt>
      <trkpt lat="50.456768665462732" lon="5.234786365181208">
        <ele>197.33000000000001</ele>
        <time>2019-07-02T13:36:57Z</time>
      </trkpt>
      <trkpt lat="50.456898668780923" lon="5.234825257211924">
        <ele>199.84</ele>
        <time>2019-07-02T13:37:11Z</time>
      </trkpt>
      <trkpt lat="50.457132859155536" lon="5.23488275706768">
        <ele>202.99000000000001</ele>
        <time>2019-07-02T13:37:28Z</time>
      </trkpt>
      <trkpt lat="50.45732706785202" lon="5.234769182279706">
        <ele>204.53</ele>
        <time>2019-07-02T13:37:41Z</time>
      </trkpt>
      <trkpt lat="50.457340814173222" lon="5.234751077368856">
        <ele>204.52000000000001</ele>
        <time>2019-07-02T13:37:42Z</time>
      </trkpt>
      <trkpt lat="50.457692937925458" lon="5.234461566433311">
        <ele>207.75</ele>
        <time>2019-07-02T13:38:05Z</time>
      </trkpt>
      <trkpt lat="50.457765944302082" lon="5.23423190228641">
        <ele>208.58000000000001</ele>
        <time>2019-07-02T13:38:18Z</time>
      </trkpt>
      <trkpt lat="50.457802405580878" lon="5.234063258394599">
        <ele>209.31</ele>
        <time>2019-07-02T13:38:26Z</time>
      </trkpt>
      <trkpt lat="50.457910196855664" lon="5.233605774119496">
        <ele>211.69999999999999</ele>
        <time>2019-07-02T13:38:47Z</time>
      </trkpt>
      <trkpt lat="50.457985633984208" lon="5.233502509072423">
        <ele>212.50999999999999</ele>
        <time>2019-07-02T13:38:54Z</time>
      </trkpt>
      <trkpt lat="50.458279000595212" lon="5.233341911807656">
        <ele>214.12</ele>
        <time>2019-07-02T13:39:14Z</time>
      </trkpt>
      <trkpt lat="50.458538001403213" lon="5.233380300924182">
        <ele>214.78</ele>
        <time>2019-07-02T13:39:28Z</time>
      </trkpt>
      <trkpt lat="50.458801193162799" lon="5.233334535732865">
        <ele>215.63999999999999</ele>
        <time>2019-07-02T13:39:43Z</time>
      </trkpt>
      <trkpt lat="50.459027839824557" lon="5.233261110261083">
        <ele>216.41</ele>
        <time>2019-07-02T13:39:57Z</time>
      </trkpt>
      <trkpt lat="50.459151640534401" lon="5.233060866594315">
        <ele>217.91</ele>
        <time>2019-07-02T13:40:11Z</time>
      </trkpt>
      <trkpt lat="50.45916186645627" lon="5.232645962387323">
        <ele>218.69</ele>
        <time>2019-07-02T13:40:30Z</time>
      </trkpt>
      <trkpt lat="50.459151221439242" lon="5.232289144769311">
        <ele>219.58000000000001</ele>
        <time>2019-07-02T13:40:45Z</time>
      </trkpt>
      <trkpt lat="50.459122890606523" lon="5.231919502839446">
        <ele>220.36000000000001</ele>
        <time>2019-07-02T13:41:01Z</time>
      </trkpt>
      <trkpt lat="50.459098750725389" lon="5.231569223105907">
        <ele>221.31</ele>
        <time>2019-07-02T13:41:16Z</time>
      </trkpt>
      <trkpt lat="50.459056841209531" lon="5.23109681904316">
        <ele>221.30000000000001</ele>
        <time>2019-07-02T13:41:36Z</time>
      </trkpt>
      <trkpt lat="50.459017530083656" lon="5.230571525171399">
        <ele>222.06999999999999</ele>
        <time>2019-07-02T13:41:57Z</time>
      </trkpt>
      <trkpt lat="50.458976123481989" lon="5.230142036452889">
        <ele>222.93000000000001</ele>
        <time>2019-07-02T13:42:15Z</time>
      </trkpt>
      <trkpt lat="50.458926754072309" lon="5.229666363447905">
        <ele>223.77000000000001</ele>
        <time>2019-07-02T13:42:35Z</time>
      </trkpt>
      <trkpt lat="50.458901356905699" lon="5.229139477014542">
        <ele>224.74000000000001</ele>
        <time>2019-07-02T13:42:57Z</time>
      </trkpt>
      <trkpt lat="50.458870511502028" lon="5.22874016314745">
        <ele>226.34</ele>
        <time>2019-07-02T13:43:13Z</time>
      </trkpt>
      <trkpt lat="50.458845198154449" lon="5.228376807644963">
        <ele>227.93000000000001</ele>
        <time>2019-07-02T13:43:29Z</time>
      </trkpt>
      <trkpt lat="50.458811251446605" lon="5.228048656135798">
        <ele>228.71000000000001</ele>
        <time>2019-07-02T13:43:44Z</time>
      </trkpt>
      <trkpt lat="50.458768252283335" lon="5.227671386674047">
        <ele>229.5</ele>
        <time>2019-07-02T13:44:00Z</time>
      </trkpt>
      <trkpt lat="50.458722403272986" lon="5.227237120270729">
        <ele>231.27000000000001</ele>
        <time>2019-07-02T13:44:18Z</time>
      </trkpt>
      <trkpt lat="50.458685187622905" lon="5.226884074509144">
        <ele>233.02000000000001</ele>
        <time>2019-07-02T13:44:34Z</time>
      </trkpt>
      <trkpt lat="50.458623664453626" lon="5.22659070789814">
        <ele>234.56999999999999</ele>
        <time>2019-07-02T13:44:48Z</time>
      </trkpt>
      <trkpt lat="50.458521153777838" lon="5.226228190585971">
        <ele>236.16</ele>
        <time>2019-07-02T13:45:05Z</time>
      </trkpt>
      <trkpt lat="50.458494750782847" lon="5.226142359897494">
        <ele>236.15000000000001</ele>
        <time>2019-07-02T13:45:10Z</time>
      </trkpt>
      <trkpt lat="50.458485279232264" lon="5.226123668253422">
        <ele>236.15000000000001</ele>
        <time>2019-07-02T13:45:11Z</time>
      </trkpt>
      <trkpt lat="50.458477735519409" lon="5.226103970780969">
        <ele>236.15000000000001</ele>
        <time>2019-07-02T13:45:12Z</time>
      </trkpt>
      <trkpt lat="50.458468934521079" lon="5.226088045164943">
        <ele>236.16</ele>
        <time>2019-07-02T13:45:13Z</time>
      </trkpt>
      <trkpt lat="50.458462815731764" lon="5.226071532815695">
        <ele>236.15000000000001</ele>
        <time>2019-07-02T13:45:14Z</time>
      </trkpt>
      <trkpt lat="50.458454517647624" lon="5.226052422076464">
        <ele>236.15000000000001</ele>
        <time>2019-07-02T13:45:15Z</time>
      </trkpt>
      <trkpt lat="50.458447057753801" lon="5.226032305508852">
        <ele>236.15000000000001</ele>
        <time>2019-07-02T13:45:16Z</time>
      </trkpt>
      <trkpt lat="50.458354856818914" lon="5.225744303315878">
        <ele>236.88999999999999</ele>
        <time>2019-07-02T13:45:30Z</time>
      </trkpt>
      <trkpt lat="50.458347229287028" lon="5.225723683834076">
        <ele>236.88999999999999</ele>
        <time>2019-07-02T13:45:31Z</time>
      </trkpt>
      <trkpt lat="50.458340439945459" lon="5.225702645257115">
        <ele>236.88999999999999</ele>
        <time>2019-07-02T13:45:32Z</time>
      </trkpt>
      <trkpt lat="50.458251424133778" lon="5.225269887596369">
        <ele>238.53</ele>
        <time>2019-07-02T13:45:51Z</time>
      </trkpt>
      <trkpt lat="50.458202306181192" lon="5.22490787319839">
        <ele>240.34</ele>
        <time>2019-07-02T13:46:06Z</time>
      </trkpt>
      <trkpt lat="50.458163162693381" lon="5.224509565159679">
        <ele>242.13</ele>
        <time>2019-07-02T13:46:23Z</time>
      </trkpt>
      <trkpt lat="50.458179842680693" lon="5.223911013454199">
        <ele>244.62</ele>
        <time>2019-07-02T13:46:53Z</time>
      </trkpt>
      <trkpt lat="50.458182776346803" lon="5.223893160000444">
        <ele>244.62</ele>
        <time>2019-07-02T13:46:54Z</time>
      </trkpt>
      <trkpt lat="50.458194175735116" lon="5.22362326271832">
        <ele>245.40000000000001</ele>
        <time>2019-07-02T13:47:07Z</time>
      </trkpt>
      <trkpt lat="50.458246059715748" lon="5.223462665453553">
        <ele>232.25</ele>
        <time>2019-07-02T13:47:16Z</time>
      </trkpt>
      <trkpt lat="50.458245640620589" lon="5.223445147275925">
        <ele>254.19</ele>
        <time>2019-07-02T13:47:17Z</time>
      </trkpt>
      <trkpt lat="50.458247819915414" lon="5.223429892212153">
        <ele>249.34999999999999</ele>
        <time>2019-07-02T13:47:18Z</time>
      </trkpt>
      <trkpt lat="50.458250166848302" lon="5.223403321579099">
        <ele>247.47</ele>
        <time>2019-07-02T13:47:20Z</time>
      </trkpt>
      <trkpt lat="50.458242204040289" lon="5.223288908600807">
        <ele>247.44999999999999</ele>
        <time>2019-07-02T13:47:24Z</time>
      </trkpt>
      <trkpt lat="50.458244550973177" lon="5.223263259977102">
        <ele>247.46000000000001</ele>
        <time>2019-07-02T13:47:25Z</time>
      </trkpt>
      <trkpt lat="50.458275647833943" lon="5.22311364300549">
        <ele>247.43000000000001</ele>
        <time>2019-07-02T13:47:31Z</time>
      </trkpt>
      <trkpt lat="50.458285873755813" lon="5.223093274980784">
        <ele>247.41</ele>
        <time>2019-07-02T13:47:32Z</time>
      </trkpt>
      <trkpt lat="50.458295261487365" lon="5.223077852278948">
        <ele>247.43000000000001</ele>
        <time>2019-07-02T13:47:33Z</time>
      </trkpt>
      <trkpt lat="50.458299787715077" lon="5.223057651892304">
        <ele>247.41</ele>
        <time>2019-07-02T13:47:34Z</time>
      </trkpt>
      <trkpt lat="50.458303894847631" lon="5.223038038238883">
        <ele>247.41</ele>
        <time>2019-07-02T13:47:35Z</time>
      </trkpt>
      <trkpt lat="50.458311773836613" lon="5.223011802881956">
        <ele>247.40000000000001</ele>
        <time>2019-07-02T13:47:36Z</time>
      </trkpt>
      <trkpt lat="50.458322335034609" lon="5.222983891144395">
        <ele>247.40000000000001</ele>
        <time>2019-07-02T13:47:37Z</time>
      </trkpt>
      <trkpt lat="50.4583297111094" lon="5.222962601110339">
        <ele>249.93000000000001</ele>
        <time>2019-07-02T13:47:38Z</time>
      </trkpt>
      <trkpt lat="50.458337003365159" lon="5.222941981628537">
        <ele>249.94999999999999</ele>
        <time>2019-07-02T13:47:39Z</time>
      </trkpt>
      <trkpt lat="50.458341026678681" lon="5.222920691594482">
        <ele>249.93000000000001</ele>
        <time>2019-07-02T13:47:40Z</time>
      </trkpt>
      <trkpt lat="50.458484441041946" lon="5.222632270306349">
        <ele>252.69999999999999</ele>
        <time>2019-07-02T13:47:56Z</time>
      </trkpt>
      <trkpt lat="50.458650905638933" lon="5.222283583134413">
        <ele>254.28</ele>
        <time>2019-07-02T13:48:14Z</time>
      </trkpt>
      <trkpt lat="50.458852993324399" lon="5.221945205703378">
        <ele>255.78</ele>
        <time>2019-07-02T13:48:35Z</time>
      </trkpt>
      <trkpt lat="50.459049716591835" lon="5.221665501594544">
        <ele>258.31999999999999</ele>
        <time>2019-07-02T13:48:55Z</time>
      </trkpt>
      <trkpt lat="50.459132697433233" lon="5.22154756821692">
        <ele>260.11000000000001</ele>
        <time>2019-07-02T13:49:03Z</time>
      </trkpt>
      <trkpt lat="50.459302011877298" lon="5.221306923776865">
        <ele>260.12</ele>
        <time>2019-07-02T13:49:18Z</time>
      </trkpt>
      <trkpt lat="50.459310058504343" lon="5.221286723390222">
        <ele>260.12</ele>
        <time>2019-07-02T13:49:19Z</time>
      </trkpt>
      <trkpt lat="50.459318859502673" lon="5.221268953755498">
        <ele>260.10000000000002</ele>
        <time>2019-07-02T13:49:20Z</time>
      </trkpt>
      <trkpt lat="50.459515415132046" lon="5.221009869128466">
        <ele>261.64999999999998</ele>
        <time>2019-07-02T13:49:38Z</time>
      </trkpt>
      <trkpt lat="50.459744660183787" lon="5.220701163634658">
        <ele>262.62</ele>
        <time>2019-07-02T13:49:59Z</time>
      </trkpt>
      <trkpt lat="50.459753209725022" lon="5.220696302130818">
        <ele>263.94</ele>
        <time>2019-07-02T13:50:01Z</time>
      </trkpt>
      <trkpt lat="50.459919841960073" lon="5.220508631318808">
        <ele>263.94</ele>
        <time>2019-07-02T13:50:17Z</time>
      </trkpt>
      <trkpt lat="50.460108937695622" lon="5.220255246385932">
        <ele>263.94</ele>
        <time>2019-07-02T13:50:34Z</time>
      </trkpt>
      <trkpt lat="50.460340026766062" lon="5.219937153160572">
        <ele>263.95999999999998</ele>
        <time>2019-07-02T13:50:55Z</time>
      </trkpt>
      <trkpt lat="50.460523841902614" lon="5.219716457650065">
        <ele>263.98000000000002</ele>
        <time>2019-07-02T13:51:11Z</time>
      </trkpt>
      <trkpt lat="50.460594333708286" lon="5.219625765457749">
        <ele>260.82999999999998</ele>
        <time>2019-07-02T13:51:17Z</time>
      </trkpt>
      <trkpt lat="50.46060673892498" lon="5.219612689688802">
        <ele>264.77999999999997</ele>
        <time>2019-07-02T13:51:18Z</time>
      </trkpt>
      <trkpt lat="50.460619227960706" lon="5.219600116834045">
        <ele>260.75999999999999</ele>
        <time>2019-07-02T13:51:19Z</time>
      </trkpt>
      <trkpt lat="50.460645547136664" lon="5.219582179561257">
        <ele>264.93000000000001</ele>
        <time>2019-07-02T13:51:21Z</time>
      </trkpt>
      <trkpt lat="50.460656778886914" lon="5.219572205096483">
        <ele>264.93000000000001</ele>
        <time>2019-07-02T13:51:22Z</time>
      </trkpt>
      <trkpt lat="50.46069324016571" lon="5.219535240903497">
        <ele>262.49000000000001</ele>
        <time>2019-07-02T13:51:25Z</time>
      </trkpt>
      <trkpt lat="50.460821986198425" lon="5.219339523464441">
        <ele>261.64999999999998</ele>
        <time>2019-07-02T13:51:38Z</time>
      </trkpt>
      <trkpt lat="50.4609942343086" lon="5.219026291742921">
        <ele>259.91000000000003</ele>
        <time>2019-07-02T13:52:01Z</time>
      </trkpt>
      <trkpt lat="50.461203865706921" lon="5.218762177973986">
        <ele>257.48000000000002</ele>
        <time>2019-07-02T13:52:23Z</time>
      </trkpt>
      <trkpt lat="50.461398158222437" lon="5.218543913215399">
        <ele>253.96000000000001</ele>
        <time>2019-07-02T13:52:41Z</time>
      </trkpt>
      <trkpt lat="50.461637545377016" lon="5.218267813324928">
        <ele>251.28999999999999</ele>
        <time>2019-07-02T13:53:03Z</time>
      </trkpt>
      <trkpt lat="50.461694290861487" lon="5.21811836399138">
        <ele>249.44999999999999</ele>
        <time>2019-07-02T13:53:15Z</time>
      </trkpt>
      <trkpt lat="50.461845500394702" lon="5.217909486964345">
        <ele>246.22</ele>
        <time>2019-07-02T13:53:29Z</time>
      </trkpt>
      <trkpt lat="50.462080780416727" lon="5.217623747885227">
        <ele>242.72</ele>
        <time>2019-07-02T13:53:48Z</time>
      </trkpt>
      <trkpt lat="50.46227440237999" lon="5.21741671487689">
        <ele>239.72</ele>
        <time>2019-07-02T13:54:06Z</time>
      </trkpt>
      <trkpt lat="50.462439274415374" lon="5.217241365462542">
        <ele>236.83000000000001</ele>
        <time>2019-07-02T13:54:23Z</time>
      </trkpt>
      <trkpt lat="50.462525356560946" lon="5.217075906693935">
        <ele>233.53</ele>
        <time>2019-07-02T13:54:35Z</time>
      </trkpt>
      <trkpt lat="50.462670531123877" lon="5.216914722695947">
        <ele>228.68000000000001</ele>
        <time>2019-07-02T13:54:53Z</time>
      </trkpt>
      <trkpt lat="50.462682349607348" lon="5.216902317479253">
        <ele>228.66999999999999</ele>
        <time>2019-07-02T13:54:54Z</time>
      </trkpt>
      <trkpt lat="50.462976051494479" lon="5.21655086427927">
        <ele>226.88999999999999</ele>
        <time>2019-07-02T13:55:15Z</time>
      </trkpt>
      <trkpt lat="50.463174618780613" lon="5.2163524646312">
        <ele>224.36000000000001</ele>
        <time>2019-07-02T13:55:34Z</time>
      </trkpt>
      <trkpt lat="50.463416604325175" lon="5.216166973114014">
        <ele>221.75</ele>
        <time>2019-07-02T13:55:52Z</time>
      </trkpt>
      <trkpt lat="50.463643502444029" lon="5.215972261503339">
        <ele>219.97999999999999</ele>
        <time>2019-07-02T13:56:08Z</time>
      </trkpt>
      <trkpt lat="50.46375791542232" lon="5.215868828818202">
        <ele>219.19</ele>
        <time>2019-07-02T13:56:18Z</time>
      </trkpt>
      <trkpt lat="50.46378968283534" lon="5.215836390852928">
        <ele>218.41</ele>
        <time>2019-07-02T13:56:21Z</time>
      </trkpt>
      <trkpt lat="50.463950531557202" lon="5.215685935690999">
        <ele>217.61000000000001</ele>
        <time>2019-07-02T13:56:35Z</time>
      </trkpt>
      <trkpt lat="50.464137867093086" lon="5.215487368404865">
        <ele>215.91999999999999</ele>
        <time>2019-07-02T13:56:52Z</time>
      </trkpt>
      <trkpt lat="50.464377673342824" lon="5.215281676501036">
        <ele>213.31999999999999</ele>
        <time>2019-07-02T13:57:11Z</time>
      </trkpt>
      <trkpt lat="50.46457682736218" lon="5.215149745345116">
        <ele>212.46000000000001</ele>
        <time>2019-07-02T13:57:25Z</time>
      </trkpt>
      <trkpt lat="50.464848233386874" lon="5.214980598539114">
        <ele>211.53999999999999</ele>
        <time>2019-07-02T13:57:42Z</time>
      </trkpt>
      <trkpt lat="50.464965999126434" lon="5.215016724541783">
        <ele>207.93000000000001</ele>
        <time>2019-07-02T13:57:53Z</time>
      </trkpt>
      <trkpt lat="50.464974883943796" lon="5.215031644329429">
        <ele>207.93000000000001</ele>
        <time>2019-07-02T13:57:54Z</time>
      </trkpt>
      <trkpt lat="50.464978404343128" lon="5.215041115880013">
        <ele>211.08000000000001</ele>
        <time>2019-07-02T13:57:55Z</time>
      </trkpt>
      <trkpt lat="50.464985864236951" lon="5.215050838887692">
        <ele>211.08000000000001</ele>
        <time>2019-07-02T13:57:56Z</time>
      </trkpt>
      <trkpt lat="50.465128272771835" lon="5.215200204402208">
        <ele>211.06</ele>
        <time>2019-07-02T13:58:07Z</time>
      </trkpt>
      <trkpt lat="50.465172277763486" lon="5.215199030935764">
        <ele>211.05000000000001</ele>
        <time>2019-07-02T13:58:10Z</time>
      </trkpt>
      <trkpt lat="50.465245451778173" lon="5.215109176933765">
        <ele>208.47999999999999</ele>
        <time>2019-07-02T13:58:18Z</time>
      </trkpt>
      <trkpt lat="50.465249810367823" lon="5.215102219954133">
        <ele>206.41</ele>
        <time>2019-07-02T13:58:20Z</time>
      </trkpt>
      <trkpt lat="50.465292390435934" lon="5.215039439499378">
        <ele>214.03999999999999</ele>
        <time>2019-07-02T13:58:25Z</time>
      </trkpt>
      <trkpt lat="50.465305298566818" lon="5.215023010969162">
        <ele>213.96000000000001</ele>
        <time>2019-07-02T13:58:26Z</time>
      </trkpt>
      <trkpt lat="50.465318625792861" lon="5.215006582438946">
        <ele>208.16999999999999</ele>
        <time>2019-07-02T13:58:27Z</time>
      </trkpt>
      <trkpt lat="50.465333294123411" lon="5.214988980442286">
        <ele>208.06</ele>
        <time>2019-07-02T13:58:28Z</time>
      </trkpt>
      <trkpt lat="50.46559757553041" lon="5.214671725407243">
        <ele>208.03999999999999</ele>
        <time>2019-07-02T13:58:47Z</time>
      </trkpt>
      <trkpt lat="50.465787593275309" lon="5.214426638558507">
        <ele>207.18000000000001</ele>
        <time>2019-07-02T13:59:06Z</time>
      </trkpt>
      <trkpt lat="50.465761441737413" lon="5.214409288018942">
        <ele>206.36000000000001</ele>
        <time>2019-07-02T13:59:09Z</time>
      </trkpt>
      <trkpt lat="50.465767392888665" lon="5.214480366557837">
        <ele>205.22999999999999</ele>
        <time>2019-07-02T14:01:49Z</time>
      </trkpt>
      <trkpt lat="50.465807877480984" lon="5.214471146464348">
        <ele>205.25</ele>
        <time>2019-07-02T14:01:54Z</time>
      </trkpt>
      <trkpt lat="50.465958165004849" lon="5.214226813986898">
        <ele>205.09</ele>
        <time>2019-07-02T14:02:15Z</time>
      </trkpt>
      <trkpt lat="50.465977443382144" lon="5.214179372414947">
        <ele>205.16999999999999</ele>
        <time>2019-07-02T14:02:32Z</time>
      </trkpt>
      <trkpt lat="50.466084228828549" lon="5.213971165940166">
        <ele>205.13</ele>
        <time>2019-07-02T14:02:45Z</time>
      </trkpt>
      <trkpt lat="50.466120354831219" lon="5.213876366615295">
        <ele>205.12</ele>
        <time>2019-07-02T14:03:00Z</time>
      </trkpt>
      <trkpt lat="50.466125132516026" lon="5.213864799588919">
        <ele>205.12</ele>
        <time>2019-07-02T14:03:04Z</time>
      </trkpt>
      <trkpt lat="50.466187158599496" lon="5.213774610310793">
        <ele>205.13</ele>
        <time>2019-07-02T14:03:17Z</time>
      </trkpt>
      <trkpt lat="50.46622596681118" lon="5.213714009150863">
        <ele>206.58000000000001</ele>
        <time>2019-07-02T14:03:21Z</time>
      </trkpt>
      <trkpt lat="50.466395365074277" lon="5.213451571762562">
        <ele>206.63999999999999</ele>
        <time>2019-07-02T14:03:37Z</time>
      </trkpt>
      <trkpt lat="50.46646049246192" lon="5.213374542072415">
        <ele>209.74000000000001</ele>
        <time>2019-07-02T14:03:43Z</time>
      </trkpt>
      <trkpt lat="50.466577168554068" lon="5.21308938972652">
        <ele>209.75</ele>
        <time>2019-07-02T14:03:59Z</time>
      </trkpt>
      <trkpt lat="50.466646486893296" lon="5.212764674797654">
        <ele>212.06999999999999</ele>
        <time>2019-07-02T14:04:16Z</time>
      </trkpt>
      <trkpt lat="50.466714631766081" lon="5.212515061721206">
        <ele>213.58000000000001</ele>
        <time>2019-07-02T14:04:29Z</time>
      </trkpt>
      <trkpt lat="50.466845892369747" lon="5.212201997637749">
        <ele>216.11000000000001</ele>
        <time>2019-07-02T14:04:46Z</time>
      </trkpt>
      <trkpt lat="50.466980673372746" lon="5.211908463388681">
        <ele>219.68000000000001</ele>
        <time>2019-07-02T14:05:03Z</time>
      </trkpt>
      <trkpt lat="50.467141857370734" lon="5.211729006841779">
        <ele>222.06999999999999</ele>
        <time>2019-07-02T14:05:17Z</time>
      </trkpt>
      <trkpt lat="50.467373030260205" lon="5.211563128978014">
        <ele>224.83000000000001</ele>
        <time>2019-07-02T14:05:34Z</time>
      </trkpt>
      <trkpt lat="50.46761560253799" lon="5.211422732099891">
        <ele>228.22999999999999</ele>
        <time>2019-07-02T14:05:51Z</time>
      </trkpt>
      <trkpt lat="50.467895558103919" lon="5.21126045845449">
        <ele>231.84999999999999</ele>
        <time>2019-07-02T14:06:12Z</time>
      </trkpt>
      <trkpt lat="50.46816092915833" lon="5.211122827604413">
        <ele>235.06999999999999</ele>
        <time>2019-07-02T14:06:31Z</time>
      </trkpt>
      <trkpt lat="50.468427641317248" lon="5.21097119897604">
        <ele>237.55000000000001</ele>
        <time>2019-07-02T14:06:49Z</time>
      </trkpt>
      <trkpt lat="50.468651941046119" lon="5.21085636690259">
        <ele>240.83000000000001</ele>
        <time>2019-07-02T14:07:05Z</time>
      </trkpt>
      <trkpt lat="50.468879928812385" lon="5.210761399939656">
        <ele>243.28999999999999</ele>
        <time>2019-07-02T14:07:22Z</time>
      </trkpt>
      <trkpt lat="50.469171199947596" lon="5.210630893707275">
        <ele>245.77000000000001</ele>
        <time>2019-07-02T14:07:42Z</time>
      </trkpt>
      <trkpt lat="50.469442522153258" lon="5.210455376654863">
        <ele>249.25999999999999</ele>
        <time>2019-07-02T14:08:03Z</time>
      </trkpt>
      <trkpt lat="50.469691967591643" lon="5.210259072482586">
        <ele>251.80000000000001</ele>
        <time>2019-07-02T14:08:23Z</time>
      </trkpt>
      <trkpt lat="50.469962619245052" lon="5.210021696984768">
        <ele>253.52000000000001</ele>
        <time>2019-07-02T14:08:43Z</time>
      </trkpt>
      <trkpt lat="50.470134364441037" lon="5.209814412519336">
        <ele>254.33000000000001</ele>
        <time>2019-07-02T14:08:59Z</time>
      </trkpt>
      <trkpt lat="50.470330752432346" lon="5.209683822467923">
        <ele>255.13999999999999</ele>
        <time>2019-07-02T14:09:14Z</time>
      </trkpt>
      <trkpt lat="50.470543736591935" lon="5.209486512467265">
        <ele>255.94999999999999</ele>
        <time>2019-07-02T14:09:30Z</time>
      </trkpt>
      <trkpt lat="50.470788236707449" lon="5.20927419885993">
        <ele>256.68000000000001</ele>
        <time>2019-07-02T14:09:49Z</time>
      </trkpt>
      <trkpt lat="50.47103357501328" lon="5.209030201658607">
        <ele>256.67000000000002</ele>
        <time>2019-07-02T14:10:07Z</time>
      </trkpt>
      <trkpt lat="50.471216216683388" lon="5.208858959376812">
        <ele>256.67000000000002</ele>
        <time>2019-07-02T14:10:22Z</time>
      </trkpt>
      <trkpt lat="50.471384944394231" lon="5.208706744015217">
        <ele>254.44</ele>
        <time>2019-07-02T14:10:37Z</time>
      </trkpt>
      <trkpt lat="50.471547469496727" lon="5.208533741533756">
        <ele>254.47999999999999</ele>
        <time>2019-07-02T14:10:53Z</time>
      </trkpt>
      <trkpt lat="50.471750646829605" lon="5.208344226703048">
        <ele>254.5</ele>
        <time>2019-07-02T14:11:10Z</time>
      </trkpt>
      <trkpt lat="50.471838740631938" lon="5.208220425993204">
        <ele>254.50999999999999</ele>
        <time>2019-07-02T14:11:19Z</time>
      </trkpt>
      <trkpt lat="50.471874950453639" lon="5.208116406574845">
        <ele>254.46000000000001</ele>
        <time>2019-07-02T14:11:42Z</time>
      </trkpt>
      <trkpt lat="50.471999505534768" lon="5.207910044118762">
        <ele>254.44999999999999</ele>
        <time>2019-07-02T14:11:56Z</time>
      </trkpt>
    </trkseg>
  </trk>

</gpx>